GFSSGP_sfc_rhum_000.txt.gz
RH
81 73 69 66 63 62 77 66 57 67 67 71 60 62 78 77 71 87 91 85 85 92 88 83 82 77 76 77 78 76 75 79 81 82 82 80 78 79 77 76 77 77 75 74 75 75 74 73 70
74 62 76 76 55 77 72 59 63 60 65 62 63 68 78 85 81 96 92 87 83 86 92 90 84 81 77 78 79 77 75 78 82 83 84 82 80 79 77 76 76 75 74 73 72 71 70 70 71
61 58 74 85 54 70 71 61 64 62 60 58 71 66 75 90 85 85 86 84 89 94 94 92 83 81 80 80 80 82 81 81 81 83 81 80 80 78 75 74 74 74 73 71 69 69 69 71 70
58 61 64 43 39 45 55 57 60 63 63 63 68 87 76 69 75 82 81 84 93 94 91 84 80 78 79 80 80 80 82 82 83 83 81 79 76 73 72 71 72 72 70 69 68 68 68 71 71
59 58 49 50 51 54 50 48 54 61 68 67 68 88 85 76 77 78 84 82 93 95 90 84 83 82 80 80 79 82 81 80 83 83 79 77 75 72 72 72 71 70 69 69 68 68 68 69 71
52 53 48 57 57 54 49 47 57 70 75 74 78 80 95 79 78 81 79 86 90 96 95 90 82 81 81 81 81 83 82 82 83 81 78 77 75 74 73 71 69 67 66 67 67 68 70 72 74
63 58 57 56 61 58 54 60 72 78 75 75 68 80 92 85 77 78 83 90 94 94 96 96 92 82 80 83 82 82 82 79 79 78 79 77 75 74 73 71 70 68 67 67 68 69 73 74 75
44 43 53 53 59 60 54 62 64 65 69 60 64 87 90 85 77 79 85 95 97 96 97 97 95 92 95 91 79 76 78 78 77 77 76 75 73 71 68 77 78 71 70 70 72 71 74 74 76
40 46 49 48 46 46 54 68 57 57 66 59 61 70 72 77 78 87 94 98 98 93 97 97 97 97 97 95 88 79 76 76 76 76 75 82 90 85 77 78 74 70 69 72 73 71 71 76 77
40 45 40 36 38 50 48 58 60 64 65 70 74 74 77 79 85 92 93 95 97 96 97 97 97 98 98 92 94 94 91 90 92 91 90 95 91 90 75 77 73 70 66 72 74 71 77 82 81
39 36 34 33 34 40 47 55 51 61 74 72 82 86 83 83 87 92 90 88 91 92 94 97 98 98 98 98 98 99 98 97 97 93 94 94 92 93 92 88 90 89 80 84 83 87 81 83 82
32 29 31 30 35 40 47 50 61 59 61 57 67 74 81 86 88 89 89 90 94 97 95 96 97 98 98 99 99 98 99 98 96 95 95 97 97 94 91 94 90 93 89 86 88 87 87 86 87
19 19 29 33 33 35 40 52 60 54 59 59 66 74 79 81 84 81 81 86 90 96 94 96 98 98 97 98 98 99 99 97 95 97 95 95 97 97 94 94 95 95 94 91 91 94 93 90 86
16 28 33 36 39 41 50 56 56 59 61 68 70 75 76 76 79 80 84 89 91 91 92 93 96 97 98 98 98 98 98 97 97 96 96 95 98 98 96 96 93 92 95 89 94 93 91 87 85
27 35 33 38 41 51 42 56 59 58 62 73 74 75 75 75 76 81 82 86 86 88 88 91 92 96 97 96 98 98 97 97 94 95 92 94 96 98 97 98 96 95 90 90 91 90 87 85 83
32 37 43 37 40 46 43 60 66 57 62 73 74 74 75 77 76 76 76 79 82 85 89 89 81 89 95 96 96 95 97 97 97 93 90 91 93 94 96 98 97 95 95 91 92 90 87 88 88
34 45 45 43 37 43 51 64 64 57 62 72 74 73 73 77 74 74 73 75 77 82 84 87 89 91 95 97 96 96 94 92 92 94 95 90 90 90 96 98 97 94 97 97 93 91 93 93 89
42 44 44 46 36 44 55 64 65 58 60 66 67 66 70 71 71 67 67 69 73 77 83 84 89 93 96 97 97 97 97 95 93 96 95 90 93 90 96 97 96 96 97 95 96 96 95 94 93
29 38 34 39 35 46 56 63 68 60 59 61 62 63 65 64 60 60 62 64 70 74 86 90 94 96 96 98 99 99 98 97 94 95 93 91 90 93 95 98 94 96 95 93 93 94 96 93 94
29 31 36 33 33 41 61 59 64 62 60 58 60 61 61 59 63 62 63 64 68 75 85 91 92 95 93 97 97 96 96 96 92 92 93 91 91 93 91 94 93 94 94 92 91 95 95 95 96
24 21 24 28 40 50 54 66 67 63 59 57 56 56 56 58 59 61 62 66 66 74 84 88 89 91 92 96 98 98 98 98 98 97 96 95 92 91 92 92 93 91 92 91 90 90 94 94 95
27 18 18 30 39 49 47 58 70 57 62 56 54 55 55 55 54 56 59 64 64 71 77 83 86 87 92 96 96 96 98 99 98 95 96 94 90 88 87 88 87 88 92 91 91 92 94 95 95
18 19 21 32 40 50 64 52 50 59 66 56 50 49 49 49 50 55 55 56 59 65 75 80 86 88 94 96 94 93 97 97 91 93 95 95 88 82 83 85 87 90 88 90 91 91 94 95 96
16 16 26 38 45 54 46 47 49 75 54 47 47 46 48 48 51 53 54 56 61 64 71 78 89 90 94 95 95 94 95 96 94 94 96 90 84 84 85 84 91 90 89 88 86 88 90 93 95
17 24 31 38 54 50 51 58 36 42 44 39 44 46 47 46 52 54 58 60 65 74 76 79 85 88 94 94 95 94 94 94 92 92 92 88 84 87 90 91 89 85 85 86 87 89 89 90 92
20 21 31 32 42 45 54 60 41 28 31 40 41 41 43 46 51 53 56 58 64 70 72 77 84 85 93 94 95 96 95 88 87 90 88 85 84 84 88 85 84 81 81 82 85 84 84 89 92
21 22 20 28 50 37 44 34 25 27 31 42 40 45 45 47 50 55 56 58 62 66 71 76 82 84 91 93 95 97 94 89 87 90 86 84 87 80 84 82 82 78 78 84 83 83 86 87 88
15 18 22 32 37 48 38 37 34 33 32 37 46 44 43 45 50 53 57 59 60 58 63 71 74 81 86 90 92 89 88 85 84 87 88 85 84 82 82 82 81 81 82 84 87 85 84 87 82
22 24 28 28 33 33 34 35 31 27 32 32 42 38 39 43 49 53 58 58 59 56 59 68 74 80 85 87 86 81 79 79 81 82 83 83 82 84 84 84 82 83 83 84 87 88 86 88 90
14 18 21 20 30 39 33 27 23 26 30 42 38 37 41 46 49 52 57 59 62 60 58 64 70 74 78 82 83 78 72 77 74 84 83 85 84 85 84 84 85 85 85 86 86 85 83 86 88

GFSSGP_sfc_rhum_003.txt.gz
RH
68 62 60 64 43 36 52 52 45 54 54 56 53 61 77 78 63 67 64 67 64 67 66 68 81 78 77 77 76 77 76 79 82 81 80 76 74 76 76 77 78 77 75 75 75 74 73 72 72
54 57 58 54 36 41 48 46 50 49 57 52 55 58 68 76 64 67 66 64 60 58 64 60 84 79 78 78 77 78 78 78 80 82 80 76 76 75 74 76 76 76 76 74 73 71 71 72 72
52 48 51 42 36 39 45 45 51 52 50 50 60 55 61 70 63 58 54 60 59 63 66 67 83 81 79 79 79 77 80 78 78 79 78 76 75 75 75 75 74 75 74 72 71 70 70 71 71
42 42 39 28 35 38 42 44 49 55 52 53 51 63 60 56 56 56 56 58 58 63 63 73 82 79 80 80 80 77 80 78 80 80 78 76 76 73 72 72 72 73 72 71 70 70 70 72 71
36 32 27 34 39 39 37 43 48 52 56 53 52 65 69 66 56 55 59 58 57 59 61 62 82 80 79 79 79 80 80 78 81 79 76 75 73 71 71 72 73 72 70 69 69 68 69 70 72
31 30 26 32 43 40 38 40 46 56 57 58 56 58 67 63 56 57 56 58 52 55 62 62 78 80 82 78 78 79 81 79 80 78 76 75 73 72 72 72 70 68 67 67 68 69 72 73 74
31 30 36 36 43 42 41 38 46 54 57 57 48 64 72 62 52 55 57 57 58 60 61 68 68 73 80 81 80 80 82 80 78 78 76 76 75 74 72 71 70 68 68 69 70 70 72 72 73
27 24 32 34 40 38 41 42 46 46 55 48 46 63 75 58 53 55 57 58 61 63 64 69 71 72 69 63 79 75 78 77 75 75 77 76 72 70 69 72 74 72 72 71 71 72 70 73 74
28 26 28 29 37 34 39 41 46 43 54 51 49 51 45 54 53 56 62 64 66 68 69 66 63 69 73 70 68 75 74 74 74 72 72 69 57 59 60 73 73 70 68 69 73 71 74 78 74
24 28 25 22 26 32 42 38 48 54 50 51 58 54 55 60 58 59 62 64 63 63 64 67 68 69 65 64 68 70 62 55 59 62 64 60 65 65 64 65 77 70 68 71 78 81 73 62 51
24 25 23 23 24 29 38 43 41 50 51 47 58 65 62 62 60 59 57 57 57 60 59 63 67 71 66 76 74 72 64 63 62 69 66 69 65 63 56 56 54 54 66 52 55 56 53 62 58
21 20 20 21 28 30 36 36 42 45 37 36 49 57 61 62 61 58 57 57 58 62 63 61 65 72 73 82 65 77 66 67 59 62 74 74 63 65 67 59 63 74 58 62 63 56 66 63 63
16 13 18 20 27 28 33 39 39 45 38 40 51 58 61 60 59 56 55 55 60 62 62 64 69 75 75 76 66 64 73 58 57 65 68 64 64 72 70 68 67 68 64 61 64 67 66 66 58
11 14 16 22 28 31 33 40 37 39 46 52 57 59 58 59 58 61 62 62 64 62 63 64 71 75 75 75 80 74 72 68 64 64 63 72 69 71 86 73 81 62 64 60 66 68 65 63 60
22 26 28 29 28 35 34 48 42 39 50 56 56 58 58 59 58 62 60 62 63 64 62 65 69 73 77 79 81 74 68 66 59 60 70 72 74 83 74 88 85 64 67 73 68 68 65 59 57
22 24 27 30 31 36 28 30 38 44 49 54 54 57 60 59 56 58 58 59 63 65 69 66 58 64 71 74 79 68 67 64 63 63 68 73 75 74 79 88 82 72 69 63 64 64 62 61 60
24 23 28 33 29 37 32 30 37 44 45 50 54 53 56 59 58 58 57 60 60 67 71 71 70 69 75 80 81 72 75 72 74 68 68 74 78 77 87 84 80 77 66 82 67 65 70 64 60
23 26 26 28 31 34 36 33 47 47 45 48 53 53 56 57 59 58 58 57 60 64 69 72 69 75 82 89 86 83 84 89 67 68 68 76 79 73 74 76 76 74 80 68 70 79 71 69 66
17 22 23 27 27 30 34 34 44 48 46 47 52 55 55 54 50 52 56 56 59 64 69 73 75 79 73 69 69 72 62 69 67 66 74 76 76 76 81 83 78 76 70 72 77 71 76 61 68
22 23 23 26 26 27 34 33 36 47 48 45 47 50 52 51 52 57 56 54 56 63 70 74 77 79 84 69 76 67 69 67 63 66 75 73 72 76 76 77 72 74 64 77 76 79 66 65 68
16 21 24 23 26 31 32 32 40 46 45 45 43 42 43 46 49 53 55 54 55 63 70 73 78 79 79 77 75 79 75 74 70 70 68 70 72 76 76 75 70 74 68 58 72 71 78 64 71
14 17 19 25 26 30 27 30 36 37 49 48 44 43 42 44 45 46 50 54 53 59 63 71 76 79 77 82 78 82 69 67 63 70 68 70 75 72 72 74 71 74 62 72 68 68 73 76 66
14 14 18 21 23 28 36 30 22 42 44 45 43 41 39 39 40 44 46 48 49 53 59 65 76 80 79 83 81 75 76 65 66 70 79 81 80 74 67 69 70 73 63 74 72 76 78 67 64
14 16 20 24 20 26 21 27 19 38 38 32 34 37 39 38 39 41 42 45 49 50 55 61 76 83 80 82 82 84 81 77 72 74 68 66 68 65 70 65 70 72 71 72 66 73 75 73 71
14 14 21 24 27 22 22 32 23 20 26 25 26 35 35 36 38 40 44 46 50 55 58 61 74 81 79 79 79 81 81 81 82 78 69 69 67 64 66 71 73 66 75 69 68 73 72 71 67
15 12 18 30 24 19 34 30 20 20 18 24 26 27 31 33 33 37 42 46 51 54 59 62 69 77 77 76 82 82 81 68 69 74 66 64 62 62 64 67 67 71 68 65 70 58 55 66 64
16 18 10 16 22 19 19 27 20 19 21 22 24 28 32 33 33 37 40 44 50 54 61 64 70 73 72 71 79 81 81 80 73 78 77 64 71 57 64 64 68 66 63 66 69 52 60 66 68
11 11 15 17 29 29 20 24 16 21 20 21 28 28 29 33 36 35 39 43 47 48 53 58 63 68 69 68 71 71 76 80 78 80 80 72 68 64 66 66 64 63 63 63 70 59 60 67 55
11 13 17 14 17 21 22 17 20 24 26 21 23 26 27 34 38 37 41 42 45 45 48 53 57 64 64 67 72 73 74 75 79 83 78 83 76 70 68 68 64 62 63 65 70 70 62 64 65
8 12 14 16 28 19 17 14 13 19 17 19 19 22 26 35 40 39 40 42 43 46 46 48 50 52 58 64 72 73 74 85 82 81 82 77 80 70 67 66 66 65 62 63 68 65 55 63 64

GFSSGP_sfc_rhum_006.txt.gz
RH
66 51 44 52 49 29 55 50 33 40 45 44 50 47 57 62 46 61 44 47 49 50 52 58 80 79 73 74 77 77 79 77 80 78 74 72 75 76 77 77 75 75 74 74 72 70 70 70 70
40 44 43 36 24 34 35 32 35 36 37 37 44 49 42 60 51 55 48 47 45 38 39 45 82 76 73 73 75 75 73 73 77 75 73 73 74 73 75 74 74 74 73 71 71 70 70 69 70
34 36 34 20 17 28 34 32 36 37 34 36 43 37 40 52 44 39 41 42 38 42 41 54 77 74 73 73 76 78 77 76 77 74 73 72 72 74 74 73 73 73 72 70 69 69 70 70 70
32 31 27 19 18 24 30 32 35 37 36 36 36 46 41 35 40 37 40 39 38 43 46 65 71 73 72 75 76 77 77 76 77 74 73 72 74 72 71 71 72 71 70 69 68 68 68 68 70
27 21 16 17 21 22 24 30 31 34 35 35 31 42 49 45 38 39 41 38 39 38 42 45 79 76 74 76 76 77 74 76 76 76 74 74 71 70 70 71 71 69 67 68 66 67 69 70 72
22 18 15 18 21 22 24 29 31 34 36 39 35 45 48 42 42 41 39 42 38 38 44 48 77 80 79 78 78 79 76 76 77 75 74 73 70 70 70 70 68 66 65 65 66 68 69 69 71
19 16 19 18 22 24 25 24 29 34 38 36 32 43 47 42 41 40 41 39 37 38 43 47 48 67 78 78 78 77 76 74 73 74 73 72 71 69 69 66 65 66 67 68 67 67 67 68 69
18 15 18 18 20 21 21 24 26 27 36 29 29 44 52 41 41 38 39 40 42 40 42 51 54 55 55 56 77 76 74 70 70 72 72 72 70 68 67 68 70 69 66 67 69 67 68 71 72
19 18 17 18 21 22 21 25 27 26 34 35 32 30 33 36 37 40 45 48 44 43 43 44 46 57 58 52 57 69 71 71 71 69 71 66 40 44 47 67 70 70 66 67 68 68 72 70 71
16 17 16 14 16 20 23 22 29 33 34 34 38 32 33 37 41 43 45 47 45 47 44 42 44 54 50 42 56 56 48 43 44 44 50 43 46 48 48 58 71 68 67 68 71 70 68 65 35
12 17 15 15 14 16 22 24 24 26 32 29 37 38 38 39 42 41 41 41 41 43 42 48 47 53 50 50 46 45 43 42 45 54 53 46 46 45 40 40 41 42 60 39 46 46 38 48 43
12 10 11 13 16 16 21 20 27 25 23 23 27 34 38 41 39 38 39 40 40 43 43 43 46 54 51 69 46 44 41 42 41 44 58 55 48 48 52 42 46 52 40 48 47 40 52 51 49
10 9 8 9 14 14 18 22 23 26 25 24 29 36 38 38 38 36 36 37 39 43 43 43 48 61 58 62 46 44 46 42 39 42 50 46 43 62 51 55 55 54 45 42 48 49 50 53 46
8 8 9 8 12 16 21 23 25 24 22 29 34 37 35 36 36 39 38 39 41 43 44 43 49 56 58 59 62 54 48 43 42 40 43 57 47 68 49 50 48 48 46 44 48 54 54 51 45
8 12 16 15 15 20 19 29 29 24 27 34 35 36 36 36 36 40 40 41 42 42 43 45 50 52 61 62 60 55 45 43 41 41 52 56 62 66 62 49 51 48 56 63 55 57 52 44 41
10 11 14 17 19 22 21 22 25 26 29 35 34 36 37 37 36 38 39 40 41 44 49 49 42 46 55 58 56 50 45 44 43 41 44 61 60 62 60 50 49 47 52 52 48 51 47 41 40
11 14 13 22 20 25 24 20 23 25 26 31 34 34 36 39 39 40 38 40 40 46 51 54 52 50 55 61 55 54 54 71 68 50 52 54 59 58 57 52 50 58 52 72 64 48 50 43 38
14 14 12 16 22 23 24 20 26 26 25 27 33 33 35 35 37 38 39 39 40 45 51 56 51 58 62 76 75 62 58 51 46 46 60 61 66 58 64 54 57 58 68 51 50 61 46 49 43
10 12 14 13 18 22 20 20 22 29 27 27 30 34 33 32 32 35 39 39 40 45 53 59 61 64 74 65 52 50 46 48 48 48 59 61 59 60 63 51 60 61 58 56 57 50 52 41 43
10 12 13 12 18 20 18 20 20 22 30 26 27 30 33 31 31 38 40 38 39 46 53 60 63 67 71 53 56 49 49 42 48 45 57 58 57 63 61 64 58 62 45 60 57 58 45 41 43
11 12 13 15 20 18 17 22 20 18 24 27 24 25 28 31 32 36 39 39 39 45 54 59 66 67 72 66 60 61 58 60 52 50 56 60 62 63 67 65 56 60 51 37 55 54 57 42 49
12 9 10 13 18 22 19 21 18 16 24 27 28 26 24 29 31 32 36 39 38 43 47 57 64 69 67 71 62 72 54 49 41 44 41 49 60 59 62 63 60 57 42 54 52 48 54 59 45
11 8 10 12 16 18 20 22 17 18 19 22 24 25 23 23 27 32 34 36 37 40 44 51 64 70 69 70 72 60 67 44 42 42 58 66 62 61 54 62 57 56 46 58 59 58 62 48 46
8 10 11 12 13 20 18 18 16 14 19 15 17 21 24 22 23 28 30 33 37 37 41 47 62 73 70 69 70 73 66 62 46 53 49 45 43 50 60 61 59 56 52 58 55 59 60 59 55
8 12 19 21 18 19 16 18 17 11 10 12 10 14 21 22 22 26 31 33 38 40 42 46 59 71 68 68 68 70 70 68 67 61 51 49 40 41 57 67 63 50 60 56 57 61 56 58 53
10 11 15 27 18 16 16 20 14 11 10 9 9 12 17 21 19 23 28 31 37 39 43 47 55 67 66 66 72 73 72 57 55 57 44 42 39 38 48 64 57 55 54 56 56 46 46 52 50
10 12 9 12 12 13 11 15 12 10 12 11 11 14 16 20 20 21 25 29 34 38 44 50 58 62 61 60 68 73 72 70 56 59 59 46 53 38 51 58 57 51 54 54 57 45 52 51 53
7 8 13 12 25 24 15 16 15 15 12 10 11 14 16 19 21 20 22 26 30 33 37 44 49 58 57 57 60 61 64 67 65 61 66 62 54 58 54 57 52 52 54 54 60 49 52 56 42
8 9 12 11 13 18 19 15 11 14 13 12 8 13 13 17 21 21 21 23 28 29 33 38 44 51 53 54 59 60 58 59 64 63 70 68 67 63 60 61 56 53 54 56 61 59 50 51 54
6 9 11 14 24 14 14 12 7 9 10 9 8 8 8 15 20 22 22 23 26 30 30 32 36 41 46 50 59 58 58 58 61 72 73 81 73 66 66 65 63 66 52 55 59 57 47 50 52

GFSSGP_sfc_rhum_009.txt.gz
RH
68 53 54 71 89 70 52 38 34 38 40 39 37 46 56 51 63 74 60 55 44 43 46 56 76 76 78 76 79 79 78 77 78 77 76 74 75 77 76 74 74 74 73 71 70 70 70 70 70
39 40 51 38 34 84 51 40 56 34 39 35 33 36 40 56 39 54 53 46 43 36 38 45 80 77 77 76 75 76 72 72 74 74 73 73 73 74 73 72 72 72 71 70 68 68 69 70 71
35 31 59 37 36 37 38 33 28 28 27 31 32 33 44 47 36 42 39 36 38 42 42 56 77 73 73 75 75 76 74 73 73 73 72 71 71 73 70 70 71 71 70 68 68 68 68 68 70
31 29 27 13 18 23 30 25 25 26 26 26 30 38 32 28 37 32 31 34 38 40 43 65 72 71 72 76 77 76 76 76 75 72 71 71 72 69 68 70 69 68 68 67 67 67 68 69 70
26 23 22 15 16 19 22 22 22 27 26 26 28 38 39 33 30 31 31 34 39 38 39 46 74 72 73 75 77 76 75 75 74 72 71 72 68 67 68 68 66 65 66 66 66 66 68 68 69
31 15 18 13 15 16 20 20 21 22 25 27 32 38 42 32 33 31 32 37 37 40 37 47 72 73 74 75 76 74 74 74 75 73 72 70 68 67 68 64 64 64 64 65 66 64 65 67 67
23 27 19 13 16 15 17 16 18 22 26 27 28 39 39 34 31 32 37 38 38 36 40 45 48 65 76 76 75 74 74 74 74 72 72 69 68 67 64 60 61 65 66 66 66 65 65 66 67
15 17 13 20 14 15 14 15 15 19 24 21 23 38 44 36 31 33 39 38 39 38 36 43 47 49 56 57 75 72 72 70 68 70 69 68 68 66 63 60 67 65 64 65 65 64 66 67 69
10 26 17 16 28 15 13 14 16 17 22 22 23 27 30 31 29 34 42 42 43 44 40 35 37 58 54 55 62 72 71 67 68 67 69 65 56 59 52 64 65 66 65 66 65 66 67 66 69
13 55 19 11 22 14 14 14 16 19 23 24 26 25 30 32 32 35 39 40 37 42 44 40 51 44 47 36 59 55 46 43 45 44 53 46 51 51 42 54 66 66 66 66 67 67 68 68 60
10 26 16 11 11 14 13 14 14 18 22 23 28 30 32 33 33 33 36 32 32 32 33 40 56 62 45 59 42 41 40 39 40 47 46 42 42 45 47 77 60 50 63 68 63 66 63 42 39
10 10 10 10 11 13 14 13 15 15 16 17 22 26 30 34 33 30 31 31 31 36 36 38 47 61 56 55 37 36 34 34 35 40 53 55 45 48 45 67 64 63 66 48 57 57 44 45 45
8 9 8 8 9 10 13 15 15 15 14 16 21 26 29 31 32 29 28 28 30 33 34 35 41 51 53 57 38 39 38 33 33 36 45 44 40 62 55 63 45 49 54 64 54 61 47 48 55
7 7 7 8 7 10 13 14 16 15 15 19 24 26 26 28 29 31 30 30 31 33 34 34 40 51 57 52 56 48 43 50 34 35 38 54 47 73 48 71 66 59 48 68 54 63 52 64 60
7 9 9 9 8 11 12 15 16 15 18 21 24 26 26 27 27 31 30 32 32 33 35 37 40 44 54 56 58 49 39 35 38 34 43 47 52 55 61 55 54 42 62 57 66 69 60 69 32
8 8 11 10 9 10 13 19 17 15 18 20 22 25 26 26 25 28 29 30 32 35 40 40 33 38 48 57 55 46 41 52 48 48 62 51 55 61 61 52 58 62 49 67 56 59 68 36 33
9 11 11 13 10 13 14 28 16 16 16 19 21 23 25 27 27 29 28 30 31 37 42 44 42 40 48 62 50 49 54 44 66 51 42 72 67 64 56 50 58 56 64 51 53 50 68 38 35
13 11 10 16 11 14 15 23 17 18 17 17 20 21 24 25 27 28 29 30 31 36 41 47 43 52 56 56 72 46 42 46 46 44 39 50 54 58 57 52 55 59 54 51 83 63 44 45 41
9 10 10 10 10 14 16 16 17 18 18 17 19 20 22 24 24 26 29 29 32 36 43 51 56 64 55 53 76 52 46 46 41 38 67 59 59 61 63 56 63 57 59 71 52 47 49 39 40
9 10 11 10 12 12 14 16 15 19 19 19 18 19 20 21 22 28 30 30 31 38 45 56 61 67 65 57 63 52 56 44 36 40 53 52 70 60 63 64 51 55 46 52 54 56 46 37 41
9 10 10 10 15 14 14 18 16 14 18 19 17 17 18 19 20 26 30 32 32 38 46 55 65 68 68 68 63 58 62 49 49 42 50 49 57 56 62 62 62 58 52 32 55 52 54 43 42
10 8 8 9 17 20 12 19 18 14 15 19 18 18 17 18 19 22 28 33 32 37 42 53 63 68 66 72 61 74 57 48 37 39 36 44 58 54 55 60 54 59 42 56 51 45 56 56 44
9 7 9 9 12 22 13 15 19 13 15 16 17 18 16 16 18 20 25 30 31 33 38 47 63 71 69 73 73 56 64 41 36 33 52 57 62 51 46 53 54 55 43 55 58 54 62 50 45
6 8 9 9 10 15 15 17 16 19 14 13 13 16 18 17 17 21 22 26 30 31 35 43 65 74 73 72 73 74 70 60 41 44 42 43 43 48 53 50 57 56 50 53 53 58 58 60 56
7 9 14 16 14 14 11 15 25 12 11 11 10 11 14 17 16 19 24 25 31 36 39 43 61 74 72 68 69 72 71 70 66 56 46 51 37 38 61 60 62 53 59 54 56 61 59 57 53
7 8 12 24 16 13 11 15 12 10 8 8 8 8 9 15 16 16 21 26 33 35 41 45 56 71 71 68 72 72 72 52 49 56 44 41 37 38 60 59 56 56 52 54 57 48 47 54 51
7 9 7 10 11 12 11 11 9 10 10 9 8 8 8 12 15 17 18 22 29 34 42 47 55 65 66 60 70 73 71 70 53 61 62 44 52 36 46 54 58 56 51 55 58 48 56 55 54
5 5 9 10 22 21 12 13 12 14 12 10 10 9 8 10 14 16 17 20 25 28 34 42 48 60 59 59 62 63 66 70 67 64 64 60 53 55 56 58 58 56 56 59 64 55 57 58 48
6 6 8 8 11 16 16 13 9 14 13 12 10 8 8 10 13 15 16 18 22 24 30 36 42 52 56 56 58 61 61 61 66 64 63 64 60 63 58 66 62 59 61 63 67 63 55 57 63
5 7 6 11 21 12 13 11 8 8 9 9 9 9 8 9 12 15 15 17 20 24 26 29 33 37 46 50 59 61 61 61 61 67 64 67 68 64 64 65 68 60 64 72 65 62 55 54 56

GFSSGP_sfc_rhum_012.txt.gz
RH
72 61 49 81 93 59 77 52 52 57 41 33 44 44 54 60 58 85 59 56 53 54 59 64 79 77 77 81 82 83 82 82 82 82 81 81 81 80 79 78 76 76 74 72 72 72 71 72 70
47 50 71 94 94 83 56 50 58 34 35 36 40 44 42 64 53 60 64 51 45 46 49 57 82 79 79 81 81 79 78 78 80 79 79 79 80 78 76 73 72 72 72 70 70 70 70 71 71
41 42 70 70 51 85 46 48 42 37 33 36 58 47 39 58 55 58 50 43 41 45 51 65 81 80 79 79 80 78 78 77 78 78 77 77 77 75 72 71 70 70 70 69 69 69 69 69 70
51 93 60 72 49 33 32 25 25 33 36 31 36 40 35 35 41 39 40 40 36 44 50 71 78 77 78 79 78 78 78 77 77 76 75 76 73 69 71 70 67 66 67 68 69 69 69 69 70
62 69 57 26 26 29 20 24 28 28 32 33 33 47 47 35 33 36 37 37 40 44 51 59 78 78 79 80 80 78 77 76 76 75 74 71 69 68 69 66 64 65 66 67 68 66 67 67 67
65 50 48 16 16 18 19 20 24 30 34 32 36 47 49 32 37 36 39 40 39 41 44 57 75 78 79 79 78 79 76 75 75 73 72 70 67 67 66 62 62 63 65 67 67 65 66 66 64
84 53 24 18 15 17 17 16 21 24 33 32 35 49 41 36 35 34 38 37 36 36 47 57 60 70 76 80 77 76 75 76 74 72 71 69 67 66 65 63 61 64 64 65 66 63 64 65 65
53 28 31 17 16 16 14 15 16 18 32 23 34 42 48 36 36 34 35 43 41 39 44 55 61 62 69 68 75 74 74 72 71 71 69 68 68 67 67 67 69 64 63 64 64 64 64 65 67
13 23 29 20 17 14 13 14 15 18 22 27 29 30 32 30 37 41 42 44 49 42 44 46 49 63 70 68 67 73 72 69 69 68 70 72 63 62 64 70 68 66 65 63 65 67 69 70 71
19 39 26 29 17 15 12 14 14 18 22 23 30 27 28 30 39 41 42 44 46 45 43 47 55 56 60 47 74 73 62 56 61 60 70 67 92 71 56 64 65 69 71 62 68 72 69 72 60
22 38 20 17 16 16 13 13 13 18 22 22 34 33 30 32 40 48 40 41 39 43 40 47 53 60 53 68 65 59 55 55 57 68 69 65 72 64 89 89 95 90 79 85 68 71 74 65 55
10 15 14 13 13 15 12 12 14 16 18 19 26 30 31 31 34 34 38 34 37 44 47 48 51 66 71 61 53 53 50 52 50 57 69 72 66 69 81 96 90 90 85 97 80 74 63 61 68
8 12 9 8 9 11 13 14 14 14 15 17 22 30 33 30 28 30 28 29 33 39 44 50 58 74 75 71 60 58 58 49 52 63 65 60 68 79 88 75 69 80 83 64 72 73 71 72 66
7 7 8 7 7 9 15 14 14 13 14 18 23 28 31 30 27 30 29 30 36 37 44 51 58 68 76 73 74 73 63 61 58 54 65 69 69 79 70 71 71 72 75 70 73 75 74 73 67
7 8 8 8 8 9 10 16 15 14 14 19 22 26 28 29 28 30 29 32 34 36 40 50 53 57 66 71 69 68 66 48 53 58 70 70 74 73 76 76 80 79 75 70 80 74 82 71 63
8 8 11 8 9 9 11 23 13 15 15 18 22 24 27 28 27 29 28 29 32 37 47 49 36 53 61 67 72 63 57 67 68 60 63 66 69 72 77 79 89 83 77 83 83 77 75 72 63
8 11 10 10 9 10 12 24 23 14 16 18 21 23 24 28 28 31 28 31 32 41 51 52 51 54 64 72 66 67 68 73 71 68 70 71 77 74 79 72 82 78 78 74 76 75 83 73 64
11 10 10 11 12 10 27 45 36 23 18 18 19 21 24 25 26 29 29 30 32 41 51 55 52 63 70 71 77 68 57 70 69 71 69 82 79 73 83 72 74 76 76 74 81 79 70 69 68
9 10 10 10 12 12 32 55 62 32 25 16 19 20 22 24 25 26 29 29 32 41 52 59 62 71 68 70 67 66 69 68 61 65 69 74 70 73 76 75 77 77 80 72 72 69 72 70 69
9 10 11 10 13 13 17 42 40 31 22 16 18 18 19 20 23 28 31 29 32 42 52 64 66 74 72 69 74 70 68 66 64 62 76 72 71 78 75 83 84 80 79 78 75 72 76 72 72
10 10 11 10 11 11 12 16 25 19 16 16 15 16 16 20 20 29 32 32 34 44 55 63 70 73 74 73 74 81 87 75 73 65 71 69 73 75 82 78 80 80 71 74 78 74 71 76 76
11 8 8 9 14 19 14 23 32 24 20 18 16 16 16 18 20 25 30 35 34 42 49 62 70 74 74 75 75 79 68 73 63 70 65 67 70 70 72 76 79 80 77 82 78 70 75 78 77
9 8 8 9 14 17 20 21 22 21 22 20 17 17 16 17 18 21 28 33 33 38 46 56 71 76 75 78 77 74 74 62 62 61 70 79 82 73 71 77 78 78 73 79 74 75 78 79 79
6 8 8 9 10 17 18 20 20 20 22 18 17 16 17 17 18 21 26 31 35 35 44 51 72 78 76 78 79 81 77 72 64 64 69 67 69 67 71 70 79 78 74 80 76 75 73 76 80
5 8 14 16 15 16 13 20 23 17 17 15 34 30 17 17 18 21 25 31 37 40 45 52 70 78 77 76 80 78 78 78 77 77 66 67 62 64 76 77 80 75 77 77 77 83 78 78 77
6 7 13 25 18 14 12 15 15 16 15 16 27 38 15 17 16 19 24 29 38 39 45 51 67 76 77 75 82 81 79 70 68 69 66 65 64 59 73 72 74 76 75 75 80 76 73 77 76
6 8 6 10 11 13 11 11 8 10 17 16 12 10 12 16 17 18 23 26 36 40 45 52 66 74 76 74 78 82 80 77 70 72 71 66 70 63 69 70 75 73 75 77 82 74 77 76 79
5 5 8 9 22 23 14 17 15 15 18 15 16 12 10 9 17 18 19 25 30 35 40 47 56 70 73 73 73 73 76 76 72 73 76 70 70 68 74 74 72 73 74 78 83 77 77 79 75
6 7 7 7 10 16 20 15 12 18 19 19 16 12 10 10 13 16 18 21 28 33 38 43 50 64 70 71 72 73 72 74 73 73 72 74 70 72 74 75 74 74 73 76 81 80 74 78 78
6 7 7 10 20 12 13 13 8 14 12 12 12 11 11 12 14 14 18 20 25 31 34 40 45 51 62 67 71 72 74 74 74 74 74 73 76 74 73 75 76 74 71 76 77 74 65 76 77

GFSSGP_sfc_rhum_015.txt.gz
RH
80 74 64 83 96 93 83 69 58 49 49 48 45 56 68 68 66 87 83 73 72 76 76 75 81 80 80 84 85 84 84 85 85 84 84 84 80 80 80 78 77 77 76 72 71 72 72 71 70
71 68 82 92 92 92 75 59 62 46 46 45 48 56 63 77 64 80 83 64 64 70 73 76 83 82 82 84 84 83 80 80 83 83 83 82 80 80 77 74 74 74 74 71 70 70 70 71 70
60 60 91 97 90 83 72 51 41 44 47 44 51 46 60 76 64 69 59 56 58 65 70 76 82 82 82 81 82 82 81 79 81 81 82 81 80 76 74 73 72 71 73 71 69 69 69 70 70
62 91 89 91 73 56 46 42 42 45 42 41 42 60 57 53 59 57 50 50 59 68 75 80 81 78 80 81 81 80 80 79 80 80 80 79 78 73 72 70 69 68 69 70 70 69 68 69 69
76 91 96 87 48 40 35 43 36 41 41 46 48 61 60 50 49 52 47 52 61 71 74 77 82 83 82 81 80 81 78 77 80 80 79 78 76 72 70 68 67 67 67 68 68 66 68 66 67
91 91 75 50 32 26 30 37 40 39 44 47 49 56 59 48 49 47 44 51 58 68 71 73 80 82 83 79 79 82 79 78 80 80 78 77 76 76 73 69 66 65 65 66 67 67 67 67 68
70 66 52 48 24 29 32 33 39 39 46 49 42 62 58 50 45 42 46 48 55 58 68 76 76 76 79 83 80 79 80 79 79 80 78 76 74 71 70 70 68 65 64 65 66 67 71 72 72
56 45 66 50 38 25 24 29 32 35 44 38 39 60 68 51 46 43 45 46 50 60 68 73 80 82 88 81 77 76 77 77 76 77 74 74 69 67 68 75 74 64 63 65 67 72 73 73 76
31 46 71 47 31 19 21 33 30 31 40 41 37 43 44 42 43 47 54 59 60 61 67 71 76 83 87 85 77 77 75 75 76 76 76 78 81 78 75 79 72 66 66 70 70 76 75 75 77
28 41 41 29 24 19 18 30 33 36 41 43 40 38 42 42 45 53 56 60 59 64 65 67 71 77 78 67 85 89 80 82 83 82 83 84 84 89 78 78 70 66 72 72 66 76 76 71 76
27 33 24 22 21 20 17 17 21 34 44 41 46 47 48 48 48 52 53 52 57 55 55 62 68 71 70 68 83 87 84 81 77 77 80 82 86 92 95 90 93 94 70 85 84 83 81 74 66
29 19 18 21 19 19 17 17 22 23 32 32 36 39 48 50 48 50 50 50 53 54 56 60 65 69 75 76 78 77 73 72 77 79 79 83 96 94 93 94 95 96 91 90 94 92 77 73 64
16 17 17 20 20 18 16 17 21 23 31 31 32 35 47 51 49 46 46 44 46 57 55 58 64 73 74 72 70 69 67 66 64 69 78 72 82 95 92 95 96 97 94 94 90 85 70 75 71
12 12 14 13 22 17 19 21 19 25 31 34 35 37 40 50 50 48 44 44 46 54 57 59 69 73 80 81 79 73 63 58 64 66 70 71 80 85 88 88 84 92 88 78 78 76 79 76 77
11 12 10 10 11 19 23 31 36 22 26 36 38 38 37 38 40 37 42 42 49 52 56 61 68 74 76 81 77 73 70 58 58 68 74 73 73 80 82 84 92 85 81 83 80 73 80 74 65
12 12 16 11 10 11 24 43 27 20 28 36 37 38 38 40 37 36 38 39 43 50 59 63 52 67 76 78 82 73 69 71 72 73 75 77 80 76 82 91 90 83 82 89 87 84 82 80 80
15 16 15 12 9 14 27 43 21 18 27 31 34 36 37 39 40 41 37 39 42 52 63 61 57 62 72 79 81 76 73 79 75 77 77 77 81 81 83 88 87 81 93 84 83 80 82 74 70
18 16 13 13 13 14 27 37 32 23 23 28 32 32 34 36 38 37 36 41 42 56 58 55 64 62 67 83 82 81 82 81 77 77 74 83 84 82 88 84 90 85 88 86 83 77 76 74 74
12 13 13 11 13 32 37 36 35 22 30 31 31 31 33 33 33 36 36 36 45 55 58 59 70 70 69 79 84 91 92 85 78 68 73 83 84 84 89 89 85 79 88 76 73 81 75 78 74
10 13 13 11 13 29 36 34 27 22 20 30 27 30 30 32 32 36 36 36 43 56 55 63 64 84 71 74 78 83 80 82 75 78 84 82 78 85 81 89 89 88 89 84 74 75 84 82 76
11 13 13 14 15 25 33 44 43 28 27 28 26 25 28 30 31 36 35 37 39 52 63 62 62 82 78 78 78 88 92 89 85 78 83 77 78 85 84 88 90 83 79 82 77 77 80 80 81
14 10 11 11 13 30 26 45 55 43 46 38 32 22 25 27 29 33 35 38 38 52 60 63 68 77 78 81 77 85 86 88 82 76 73 80 85 84 84 84 88 84 84 86 80 77 78 87 81
10 10 11 11 14 25 20 28 41 43 50 43 32 21 21 23 26 32 36 35 37 46 54 68 68 70 73 83 75 82 87 73 78 83 72 91 92 83 81 86 88 79 78 88 82 77 78 85 91
6 9 11 12 14 21 23 25 34 50 47 46 29 21 20 21 23 30 32 35 37 45 55 66 74 75 79 74 87 84 82 84 76 80 95 83 75 87 88 85 80 77 79 86 81 82 83 87 89
6 11 16 21 21 25 22 24 27 21 25 24 24 30 26 29 22 24 33 38 39 47 54 67 74 78 80 78 76 87 78 79 83 88 86 82 81 90 89 83 83 80 80 84 82 76 80 82 83
7 8 13 29 26 22 19 20 24 16 20 18 21 28 28 25 21 23 32 34 40 43 54 64 73 74 78 80 81 74 89 70 72 80 86 75 73 72 79 77 77 79 74 84 86 86 84 84 84
10 9 7 15 19 24 19 17 14 17 20 19 20 24 24 20 18 22 27 32 40 42 56 58 76 75 77 77 82 80 77 80 76 85 83 84 71 72 77 80 77 75 78 79 85 89 84 86 86
7 9 11 9 17 22 17 21 24 29 22 26 27 23 24 23 23 22 25 31 39 40 49 54 70 74 76 72 80 81 78 75 73 90 80 83 76 81 75 82 75 84 75 85 91 86 88 86 90
10 8 10 11 12 18 25 19 18 22 24 26 22 20 22 21 22 22 25 29 38 39 46 53 64 73 76 77 74 80 81 80 74 84 83 81 79 84 78 78 80 78 80 84 91 86 83 90 84
8 12 10 14 23 22 15 15 13 11 23 20 19 18 17 20 19 21 24 27 38 40 42 50 65 70 72 74 76 77 80 80 80 74 82 89 73 84 77 76 80 78 75 78 84 82 75 84 90

GFSSGP_sfc_rhum_018.txt.gz
RH
78 72 70 83 99 96 86 66 60 61 57 54 55 64 81 80 69 92 86 82 77 80 80 80 82 81 82 84 85 85 85 83 85 85 82 78 78 78 77 75 75 74 73 72 72 73 72 71 70
77 68 81 93 98 93 79 61 62 54 53 57 55 59 68 81 75 92 92 74 75 79 82 85 84 83 82 84 84 83 80 80 84 84 82 79 78 77 75 74 73 73 72 72 71 70 71 71 71
65 65 94 96 94 87 76 58 56 48 51 49 60 55 66 85 78 81 74 72 74 77 82 80 84 84 81 82 82 82 81 78 81 81 78 77 76 74 73 73 72 72 72 71 70 70 69 70 70
74 92 96 99 77 63 50 50 55 55 45 46 54 77 65 59 70 66 66 67 75 78 80 79 82 78 79 81 80 79 78 78 79 81 77 76 75 73 71 70 70 70 71 70 68 68 67 69 71
78 90 91 88 66 49 48 48 49 53 53 55 54 77 79 60 57 62 63 64 77 84 80 76 81 81 81 80 79 78 76 76 79 81 76 74 73 71 70 68 68 69 69 68 66 65 68 68 70
89 87 75 68 48 42 46 47 45 49 53 60 65 67 76 58 61 57 60 70 74 82 81 78 80 82 81 78 77 78 76 75 78 78 76 75 74 72 69 67 67 68 67 68 67 67 69 70 71
71 71 69 51 51 54 47 40 48 54 57 57 52 75 72 65 57 56 61 69 72 76 82 83 80 75 76 81 78 78 76 75 76 77 76 76 73 70 66 66 67 66 66 67 68 68 70 71 69
58 54 61 52 45 49 41 42 45 49 50 46 52 76 81 62 51 53 64 69 71 76 80 87 89 87 90 84 78 78 78 76 76 76 74 73 70 68 66 74 72 66 63 67 69 70 74 72 72
49 54 66 53 43 43 39 46 41 39 48 49 45 56 55 50 48 56 65 68 76 74 83 85 90 96 96 90 79 78 77 76 76 76 75 81 85 82 76 71 72 64 66 68 62 72 76 75 74
50 57 39 39 37 33 38 39 45 48 50 50 56 50 48 49 53 58 65 74 76 81 81 83 87 92 92 75 88 92 84 89 90 90 89 90 90 90 83 77 66 66 69 66 73 72 74 73 76
38 43 29 21 29 29 37 41 41 50 55 55 61 58 53 53 55 59 61 68 70 75 76 80 83 86 86 81 95 97 95 93 92 89 87 89 91 94 94 92 94 90 67 77 75 83 81 76 71
28 26 24 24 22 26 36 39 44 46 45 43 49 51 52 54 56 59 61 62 66 72 73 76 78 81 83 81 88 89 89 90 90 85 85 91 96 96 93 94 95 96 91 87 87 92 77 80 72
22 21 21 20 21 21 22 33 43 42 38 40 46 48 53 54 52 50 54 55 60 68 68 72 76 79 79 81 83 93 88 83 78 80 86 89 92 95 94 96 96 95 94 89 93 88 81 80 76
17 16 15 19 22 20 21 24 28 37 38 47 49 53 52 52 52 52 52 55 58 60 65 68 73 76 73 79 88 83 78 79 78 68 74 77 91 94 95 94 96 96 94 85 94 85 79 73 75
15 17 14 15 19 23 22 33 41 38 39 51 54 53 52 51 50 52 49 51 56 58 61 66 70 73 75 77 76 71 67 68 65 66 76 78 88 88 94 96 95 90 95 92 87 82 84 76 74
15 19 19 13 15 25 24 39 37 38 41 45 53 52 51 52 50 48 47 46 51 58 61 65 60 70 75 76 77 79 71 74 73 71 83 80 81 84 87 95 91 87 90 91 90 90 86 80 70
20 21 18 14 16 25 33 42 31 38 41 44 43 50 51 55 51 49 46 45 48 58 61 63 61 69 76 86 81 79 73 81 82 86 82 83 84 85 87 92 90 88 93 84 87 81 82 69 70
22 20 17 16 15 27 36 40 28 40 43 44 44 42 42 47 50 42 42 43 48 56 61 64 63 67 74 78 89 84 83 86 84 84 82 88 88 84 89 88 91 91 92 90 87 84 82 78 82
16 17 17 14 14 33 31 32 28 36 43 46 47 45 43 40 39 39 43 44 50 56 62 67 66 69 73 82 89 91 88 88 88 86 78 84 88 89 88 90 94 91 94 88 83 85 77 77 81
12 14 15 13 13 30 38 31 28 32 36 40 43 44 44 42 39 42 43 43 49 59 65 67 66 68 69 70 72 80 89 90 82 81 83 85 85 87 87 93 93 92 90 85 78 77 88 87 84
12 13 12 15 14 36 34 39 35 29 29 32 35 36 38 40 40 40 40 47 47 61 65 66 69 68 68 70 83 94 94 94 92 86 91 86 79 83 89 91 94 94 92 85 78 81 81 78 86
20 11 10 12 19 23 34 49 46 41 44 33 33 33 35 36 35 38 39 41 48 55 60 61 73 72 70 76 75 80 71 85 90 87 89 87 84 87 86 89 90 82 88 81 80 83 89 84 83
14 12 12 13 17 25 24 45 44 42 44 39 36 31 32 32 33 36 38 37 41 49 56 57 69 79 76 78 70 73 77 72 86 88 87 91 95 88 82 89 92 84 87 85 83 84 84 92 87
10 11 12 19 18 28 21 33 42 57 35 32 28 30 28 30 32 32 36 35 39 45 54 58 65 80 82 78 75 72 72 81 85 91 93 97 93 87 87 90 90 81 84 91 88 82 83 90 92
11 13 18 20 22 26 20 35 32 30 31 25 24 31 28 27 29 31 36 37 39 44 54 62 67 68 81 80 77 76 76 78 81 85 86 95 90 97 95 94 88 80 78 89 86 87 88 88 87
14 11 16 23 29 25 22 33 23 26 27 26 22 28 26 24 26 28 32 37 38 43 55 63 68 66 74 79 79 77 76 74 79 84 89 88 78 74 85 86 79 81 80 89 87 88 88 88 86
15 13 9 17 40 28 27 21 18 22 26 27 28 29 25 23 24 25 30 35 38 43 55 63 69 66 72 74 76 81 78 74 74 90 92 88 79 75 86 82 78 77 78 91 92 93 88 92 90
12 11 18 18 17 17 22 24 24 21 25 26 29 28 25 22 22 21 24 32 38 38 51 59 67 67 72 74 71 73 75 79 76 84 92 88 81 80 83 82 77 77 77 85 91 95 89 88 95
16 13 22 12 16 15 25 15 16 18 22 30 26 24 24 23 25 24 24 29 34 38 50 60 66 66 71 75 73 73 74 72 80 85 86 83 81 77 81 81 78 76 79 80 92 92 92 88 90
11 13 12 14 18 21 11 12 15 15 16 28 24 26 24 23 24 25 24 26 33 40 47 57 67 65 67 72 74 76 78 78 76 74 86 85 80 80 78 80 79 78 77 80 80 89 80 90 90

GFSSGP_sfc_rhum_021.txt.gz
RH
76 75 75 90 96 93 88 70 65 62 61 62 58 60 82 86 78 93 89 84 78 79 81 79 82 81 80 83 84 82 82 81 81 80 78 77 77 77 76 75 74 74 72 72 74 73 72 72 71
73 71 81 94 96 96 83 69 73 59 65 61 58 64 75 86 81 95 94 78 76 82 88 86 83 83 80 82 82 82 79 79 80 79 78 78 77 75 74 73 73 73 72 71 71 72 72 72 72
72 62 88 94 97 93 76 62 71 61 57 54 65 60 69 90 81 84 78 77 76 83 90 84 82 83 79 79 80 81 81 78 78 78 77 77 76 74 73 72 72 72 72 71 71 71 71 74 70
68 89 94 93 80 64 60 60 55 61 63 58 65 82 71 66 74 74 75 76 82 86 89 79 80 78 77 77 78 78 78 78 78 77 76 76 74 72 71 70 70 70 70 71 69 70 70 73 69
76 92 93 91 61 57 51 52 56 59 59 57 60 84 88 70 70 72 76 74 83 93 86 79 82 80 78 76 76 75 75 78 79 77 75 75 72 71 69 68 68 68 70 70 68 69 70 69 68
92 95 85 73 51 43 50 52 51 62 66 67 73 75 85 70 75 72 70 77 79 87 85 82 79 78 78 76 76 75 75 77 78 76 75 75 74 70 69 67 67 68 68 69 69 69 69 67 68
84 89 68 53 59 56 53 50 55 64 59 62 56 85 84 78 69 67 74 78 80 83 88 85 79 74 75 77 76 76 74 76 77 76 75 74 74 70 68 66 67 65 66 66 68 68 68 68 69
75 65 71 51 58 52 51 51 51 55 57 48 56 86 93 75 63 68 75 80 84 87 89 95 91 83 87 82 75 75 75 75 76 75 74 74 71 68 67 73 71 67 64 68 71 71 69 69 69
67 67 70 53 50 53 48 55 48 46 57 50 52 61 60 62 62 73 81 83 88 86 93 96 96 96 97 94 82 77 76 75 75 76 74 79 88 85 79 73 69 66 67 67 64 65 72 72 72
69 72 53 40 39 48 45 50 49 56 59 60 59 56 60 60 69 79 86 87 90 90 93 92 97 97 97 81 91 93 88 90 93 92 92 93 91 92 84 78 70 66 70 61 71 72 72 74 77
58 64 38 30 30 40 46 48 46 58 65 63 67 66 62 61 71 76 78 81 83 84 86 90 94 97 94 88 98 99 98 98 98 95 95 94 92 96 95 92 93 91 70 73 72 81 80 79 80
38 43 38 28 28 38 45 44 50 52 52 51 54 58 60 62 67 71 73 78 76 83 82 86 90 95 95 96 97 98 96 98 98 96 93 94 97 97 97 96 93 94 91 84 92 94 80 80 76
37 30 22 28 24 34 38 48 48 50 47 48 52 55 60 61 61 62 64 69 72 81 79 84 87 92 92 95 97 99 99 98 92 89 89 93 94 97 96 95 96 96 95 91 88 92 86 85 81
19 18 18 20 25 24 42 46 47 47 47 54 56 59 59 60 59 62 65 67 73 74 78 80 83 86 87 87 94 95 97 94 88 83 82 86 96 95 96 95 97 96 94 85 92 93 84 76 76
17 20 17 16 19 30 36 48 51 44 48 57 58 58 58 57 56 61 62 64 67 70 73 78 81 81 85 85 89 90 89 83 84 75 73 85 91 90 93 95 97 93 96 92 95 88 89 73 69
18 21 22 16 17 26 30 45 45 44 52 60 58 57 58 57 54 53 56 58 62 66 70 73 69 78 81 82 87 79 80 83 77 68 87 84 87 88 94 98 97 92 97 97 93 94 89 79 65
22 25 21 18 14 30 29 40 48 45 54 60 58 58 58 59 56 52 50 53 59 62 69 72 72 77 80 82 84 82 84 80 75 83 88 87 87 90 95 95 92 91 95 91 90 88 88 69 74
25 23 21 20 21 31 40 45 49 47 56 59 58 59 59 59 57 52 50 48 53 59 65 69 70 75 78 81 83 84 86 87 85 88 89 89 88 88 93 92 93 91 95 94 92 86 85 79 83
19 20 19 17 18 34 32 41 51 48 50 59 61 60 59 56 52 50 50 48 51 60 66 68 71 74 76 86 93 95 83 93 93 89 86 85 88 90 90 92 94 94 94 91 88 88 78 81 87
17 18 17 16 14 25 30 36 42 49 49 49 54 58 57 55 54 51 52 50 49 60 65 69 68 70 74 73 74 84 87 90 87 89 86 87 88 91 89 93 95 96 96 92 90 80 86 91 88
20 18 16 16 20 30 41 48 41 49 46 46 45 45 48 50 51 52 49 47 49 58 66 70 69 68 71 71 78 96 95 96 95 93 92 87 86 87 89 92 96 96 93 90 84 80 84 80 89
26 16 13 15 19 22 38 57 54 45 55 50 48 47 46 44 42 46 46 49 50 56 62 66 68 68 70 73 75 71 75 79 96 92 91 85 87 81 90 91 94 96 98 90 82 82 86 82 84
19 15 15 17 19 26 28 44 43 43 47 46 44 44 44 43 41 42 46 46 47 53 61 66 69 68 68 72 68 71 70 69 92 94 89 95 95 89 87 90 93 87 96 90 82 89 92 88 82
16 19 16 21 24 31 17 28 28 56 38 38 35 37 39 40 40 40 38 43 49 50 59 66 73 71 69 73 71 72 70 79 92 95 94 97 98 98 93 89 93 88 89 87 84 89 88 94 93
18 20 27 25 27 23 18 31 18 34 31 30 33 32 34 34 36 38 40 41 46 53 60 65 71 75 73 76 74 74 71 76 77 84 81 97 99 98 96 94 97 89 88 89 88 89 86 92 93
20 19 31 28 30 23 23 30 24 19 26 26 25 27 29 31 32 35 36 38 41 48 58 63 70 74 77 78 77 74 70 70 69 79 78 78 92 90 86 89 91 88 83 89 89 93 91 91 90
18 19 15 20 51 27 27 24 21 20 23 29 28 26 29 30 30 32 33 35 38 42 53 61 66 67 78 79 77 77 73 71 74 85 78 81 84 86 91 89 89 88 81 86 90 95 92 93 92
15 14 21 23 24 24 22 24 23 25 18 30 36 33 31 29 29 29 30 31 35 38 45 55 60 62 68 75 73 75 76 75 76 83 85 89 86 86 91 91 87 86 82 86 91 95 92 95 96
19 18 20 17 19 18 22 16 14 19 24 28 34 32 28 30 27 27 28 28 32 36 42 53 58 60 60 70 71 72 75 76 78 78 82 87 89 90 87 88 85 85 83 85 89 95 94 92 94
13 14 18 20 21 24 15 14 16 13 14 23 27 26 29 28 27 25 24 27 32 37 40 53 56 60 58 64 68 71 72 75 80 77 78 84 85 87 84 86 86 84 81 80 85 91 86 88 92

GFSSGP_sfc_rhum_024.txt.gz
RH
76 77 82 94 99 96 94 76 60 65 65 70 61 64 77 89 79 91 90 84 76 81 84 80 82 80 82 83 84 82 80 79 80 80 78 76 76 76 75 74 74 73 72 75 72 72 70 72 70
77 78 85 94 94 96 87 76 69 63 68 63 64 71 79 89 81 95 93 80 74 82 89 85 83 83 81 82 83 81 76 78 79 79 78 77 76 74 73 73 73 74 73 72 74 71 71 71 69
77 62 92 92 93 92 80 70 71 64 60 59 69 65 73 91 84 86 78 77 78 85 90 87 82 83 80 79 81 82 79 77 78 77 77 76 74 73 72 72 73 73 73 72 71 71 68 68 66
74 90 92 88 79 70 68 67 61 67 60 63 69 87 78 70 77 79 75 76 87 87 88 81 80 77 78 78 80 79 77 76 77 77 76 75 73 71 71 71 71 72 72 70 70 70 70 66 65
81 92 88 86 70 63 59 56 60 64 61 65 67 90 92 75 74 76 79 79 88 95 91 78 81 80 78 77 78 77 77 77 77 77 76 74 72 70 69 69 70 71 71 70 69 69 68 67 67
87 94 91 76 54 46 54 57 60 67 70 71 74 81 93 79 80 80 75 83 84 88 88 84 79 78 77 76 75 76 77 78 77 75 75 73 71 70 69 68 69 69 69 69 68 69 68 66 70
75 86 78 68 61 62 58 54 67 68 66 70 61 91 92 85 78 76 79 84 85 86 91 90 81 78 76 75 75 74 76 77 77 75 74 74 72 68 66 67 68 67 68 68 67 68 68 67 67
82 73 68 71 68 64 57 55 59 59 64 53 61 91 94 83 75 78 81 87 92 92 89 93 89 84 88 82 75 74 74 76 76 75 74 72 70 66 66 72 72 69 67 65 68 68 69 69 69
68 80 77 59 59 52 57 62 53 51 60 56 57 69 65 72 73 84 90 92 96 94 98 96 93 93 94 91 82 76 74 74 74 74 73 77 86 83 76 73 68 67 67 66 63 65 71 71 72
86 82 60 43 44 57 54 56 56 62 61 64 65 64 68 71 80 90 92 92 95 94 98 97 96 95 96 83 92 91 86 86 88 88 89 90 89 90 82 78 70 67 70 58 72 73 71 74 70
76 83 50 36 34 46 55 54 51 62 69 68 77 76 73 75 81 87 87 86 90 90 92 96 97 96 96 92 96 96 95 94 94 93 92 92 90 93 93 89 90 89 75 73 76 80 76 76 72
63 49 51 37 39 47 54 51 54 53 59 51 62 67 71 78 82 84 86 83 86 88 90 93 95 97 98 96 96 96 96 96 96 95 93 93 95 93 94 94 89 91 89 81 88 88 81 78 74
54 45 32 25 27 45 46 51 52 56 52 52 58 66 71 76 78 76 76 77 79 87 87 91 94 97 97 97 98 98 98 96 94 92 91 92 89 94 94 94 93 93 92 87 86 87 81 82 76
21 28 24 20 24 28 48 49 50 51 52 56 63 68 69 70 75 75 75 78 78 81 83 86 92 94 96 95 98 97 97 96 93 89 87 88 96 93 94 94 94 94 95 88 91 88 81 79 74
17 21 20 20 20 27 40 60 56 52 53 61 63 64 66 66 66 71 70 75 74 76 78 85 88 90 95 94 95 97 95 90 92 87 85 85 92 93 92 93 93 92 95 91 89 83 85 75 65
21 23 25 20 21 25 43 56 51 52 58 64 61 62 64 65 63 63 64 68 69 75 82 84 74 84 91 92 94 92 92 91 88 87 82 84 88 90 93 95 95 90 94 93 89 89 85 78 70
27 28 24 21 17 29 46 50 46 50 59 65 64 63 63 65 63 62 62 65 66 73 80 84 83 83 88 90 94 92 89 87 84 87 87 88 88 90 96 91 91 90 94 88 86 84 85 74 73
30 26 25 22 22 38 50 45 49 53 59 64 63 63 64 64 63 59 60 61 64 71 76 80 81 85 88 87 93 92 91 90 87 86 87 90 89 88 92 90 93 90 91 88 87 85 80 78 80
22 23 23 20 21 39 38 42 64 55 58 63 63 63 64 62 58 56 56 57 62 69 75 79 83 86 87 91 95 95 88 90 90 88 89 90 90 90 92 91 93 89 92 88 85 83 78 76 81
20 22 23 18 15 20 28 37 58 57 59 58 60 62 62 60 60 59 57 55 58 68 73 80 81 83 85 84 84 88 87 90 87 87 88 89 89 90 88 92 92 92 91 89 88 82 80 82 79
25 22 22 22 20 26 42 45 48 55 58 56 56 56 58 60 60 60 60 57 55 66 73 77 80 81 82 83 85 95 94 94 91 89 90 87 89 89 90 91 93 93 91 88 88 83 81 79 85
32 19 16 16 19 22 36 44 54 59 62 56 57 59 58 58 56 57 57 59 56 59 67 73 77 79 80 83 83 86 81 81 83 86 87 86 88 89 90 90 91 93 92 90 87 81 82 83 82
22 17 17 17 19 26 27 41 39 58 72 62 53 51 54 53 53 56 55 54 54 55 61 69 77 78 80 82 79 82 80 78 88 90 88 90 92 89 87 90 92 92 91 92 88 87 89 82 82
18 19 21 26 28 31 24 27 33 60 52 58 51 48 48 47 48 49 50 52 52 52 58 66 77 79 78 81 80 82 81 85 87 93 88 88 93 90 90 90 90 91 90 92 88 88 89 90 84
21 26 36 34 33 27 23 29 18 31 36 38 47 46 45 45 45 46 48 50 52 56 61 67 77 81 78 80 80 79 79 82 84 85 84 92 93 96 94 92 92 89 89 88 89 90 88 89 87
24 26 38 37 35 26 28 27 24 16 33 29 28 30 36 40 42 43 44 47 51 55 61 68 75 80 78 79 81 80 80 74 74 79 78 82 84 87 92 91 89 90 88 86 89 85 82 88 86
25 24 20 27 52 29 29 25 21 23 21 33 31 29 32 33 38 41 42 43 48 52 58 68 74 77 77 76 78 80 79 78 77 81 81 79 85 84 91 90 90 91 87 87 89 84 86 87 87
17 18 25 31 37 38 30 27 26 29 23 27 38 35 31 30 33 34 37 39 42 45 52 60 67 74 73 75 75 74 77 78 77 80 83 82 83 87 91 91 90 91 88 87 89 88 88 90 85
23 21 25 22 29 32 33 26 21 21 26 20 25 32 29 30 31 32 33 35 38 39 48 56 62 69 70 76 77 76 76 77 77 80 81 83 83 88 90 91 92 91 89 88 87 88 88 88 90
16 19 21 24 28 27 28 20 16 16 14 25 24 31 35 35 34 32 30 32 35 39 41 53 58 61 65 73 78 78 78 79 78 81 80 84 86 88 87 90 91 90 88 87 87 86 83 86 88

GFSSGP_sfc_rhum_027.txt.gz
RH
71 66 70 80 96 82 78 68 50 52 52 50 45 50 54 72 73 83 82 70 61 63 76 74 82 79 80 81 83 83 81 80 80 79 77 76 75 75 75 73 72 73 74 72 71 70 71 69 68
66 70 80 75 85 67 65 58 52 49 56 51 54 59 63 86 79 90 85 61 58 60 61 60 83 82 80 83 83 82 77 78 78 78 77 75 75 74 73 73 74 74 75 71 70 70 69 69 68
69 63 76 79 67 63 58 58 48 55 51 51 61 57 64 81 75 73 62 58 55 58 57 64 82 83 80 81 81 81 79 77 78 77 76 75 74 72 72 73 73 74 73 71 71 69 67 66 65
67 73 78 74 55 52 51 49 52 61 61 54 55 74 68 59 66 61 58 54 54 55 54 72 80 78 79 80 80 77 77 77 77 77 75 74 72 71 72 72 73 74 71 70 69 69 68 64 64
62 72 75 64 47 48 45 46 49 51 54 57 56 77 86 68 60 59 58 53 52 51 58 60 81 80 80 80 78 76 76 76 77 76 74 73 71 70 70 71 71 73 70 68 68 67 67 66 69
72 60 56 48 45 46 46 45 48 52 59 61 62 67 88 65 63 61 55 52 50 52 54 58 77 79 79 77 77 77 76 76 76 76 74 72 71 70 69 70 70 69 68 67 68 67 66 66 71
61 50 50 47 50 48 48 42 48 52 54 57 51 70 88 72 61 59 57 53 52 52 55 56 57 68 76 76 76 77 77 76 76 74 74 73 70 68 67 70 68 67 66 66 66 66 66 66 70
54 47 53 46 48 46 45 44 46 47 55 45 47 67 86 72 60 58 57 55 57 56 55 59 57 56 62 61 74 74 76 76 75 74 72 72 69 67 68 70 71 66 64 65 66 64 64 64 65
57 52 49 37 46 39 43 49 44 42 50 48 48 52 52 61 59 61 65 62 64 61 58 56 55 64 70 66 64 71 72 74 74 70 72 68 55 59 59 70 68 66 66 67 65 67 66 67 69
66 54 41 33 31 33 42 42 47 50 49 49 54 52 58 62 64 64 66 67 65 64 61 56 58 62 64 57 68 68 60 53 57 57 65 59 64 66 65 68 71 69 66 66 73 74 70 60 41
63 47 41 31 26 32 41 44 41 48 50 45 56 60 61 62 62 60 59 58 57 57 58 60 64 69 65 63 62 61 60 59 60 69 67 65 64 66 57 57 55 58 62 46 51 51 48 52 42
59 47 36 32 27 38 42 39 43 42 38 35 47 52 58 61 60 57 57 57 57 60 59 58 62 71 68 63 61 60 61 60 58 59 73 70 60 64 67 61 61 66 55 59 59 51 60 56 56
55 39 33 31 26 21 38 41 40 44 37 37 48 52 56 56 57 54 53 54 56 59 59 60 66 74 73 76 64 63 66 60 57 63 65 60 58 66 65 68 61 63 60 54 59 73 56 69 64
24 24 19 17 16 17 36 34 41 40 42 50 53 53 52 54 54 56 56 56 59 58 59 60 67 72 73 74 77 71 68 62 64 58 58 68 64 69 63 65 62 59 61 58 62 67 61 69 59
13 13 11 11 14 15 22 37 43 38 43 51 52 53 53 53 52 57 56 59 58 58 60 64 68 69 78 76 75 70 64 60 59 57 67 66 68 72 74 64 61 60 67 74 73 67 66 47 46
14 15 15 11 13 14 20 18 28 40 44 50 50 53 55 54 53 55 54 56 57 58 66 66 58 64 72 74 73 67 62 60 57 56 58 65 68 73 74 66 62 62 67 71 63 77 71 55 56
16 15 17 15 12 20 24 19 24 40 41 48 51 51 53 55 54 55 53 55 55 61 66 68 67 66 71 76 71 70 69 64 57 56 56 64 68 70 70 62 61 71 63 63 69 60 62 54 50
16 16 14 15 12 15 22 24 29 42 41 46 49 49 52 52 51 51 52 51 54 59 65 67 66 71 76 72 75 66 62 59 57 56 56 67 66 68 70 62 69 68 62 64 62 71 61 54 53
12 12 14 14 12 17 17 19 29 42 42 45 49 50 50 49 45 46 48 49 52 58 64 70 75 77 74 71 69 65 62 60 60 60 68 70 69 72 76 63 69 69 67 69 73 65 66 52 57
14 13 14 14 12 16 17 22 26 40 45 43 48 48 49 45 47 50 50 49 52 58 65 73 76 80 78 69 71 62 63 56 59 61 69 69 69 74 72 73 68 72 63 77 75 72 57 52 56
16 13 12 14 13 13 18 17 28 37 38 41 42 42 47 45 46 50 51 50 51 58 67 71 78 80 79 76 71 71 68 68 66 65 63 65 70 72 76 75 70 74 70 62 74 70 68 52 60
17 13 13 14 16 17 16 19 28 24 42 43 42 44 43 43 45 46 49 51 50 56 60 69 75 79 76 80 74 81 65 61 57 60 59 61 69 68 70 74 74 76 65 72 72 68 64 63 55
16 14 14 14 15 16 15 20 18 34 34 40 41 40 41 40 42 45 47 49 48 50 55 63 75 80 79 81 78 73 73 59 56 58 72 77 71 70 67 74 75 76 68 74 76 75 74 58 50
15 16 16 17 15 22 17 17 17 20 28 31 35 38 41 40 41 44 45 47 48 47 50 58 75 82 80 80 80 82 79 72 62 67 62 58 57 59 72 71 76 77 73 76 73 76 75 68 61
15 15 20 20 20 19 14 18 19 15 20 16 26 35 37 40 41 43 47 47 51 53 55 58 72 80 78 78 78 79 79 80 78 74 64 65 57 57 68 76 78 70 78 74 75 80 75 72 64
17 15 16 23 15 12 20 20 16 13 14 19 18 25 31 35 37 40 43 47 52 53 56 59 67 76 76 76 80 80 80 65 64 68 58 58 56 56 66 73 71 74 74 74 76 68 64 68 66
18 20 12 14 18 16 12 13 13 14 13 16 20 20 28 33 34 37 40 43 48 51 56 60 66 73 73 70 76 79 78 76 67 71 72 58 68 54 64 70 73 74 75 75 77 62 72 70 70
14 13 18 15 22 21 15 19 13 20 16 16 19 20 22 23 30 32 36 38 42 43 49 54 60 68 69 70 70 70 73 75 71 72 75 70 66 69 66 72 72 73 76 76 80 70 72 74 63
16 17 16 14 15 15 13 10 16 20 22 17 15 16 18 22 25 27 32 36 39 40 43 50 57 64 67 68 70 71 70 70 72 70 72 73 71 73 72 74 72 73 75 77 80 76 71 75 73
13 15 16 18 28 17 14 11 11 13 15 18 14 15 19 22 26 26 26 31 34 40 41 45 50 54 60 64 70 71 71 71 70 72 71 73 75 72 74 74 74 73 73 76 79 76 69 74 73

GFSSGP_sfc_rhum_030.txt.gz
RH
65 54 63 72 97 64 57 53 34 40 40 36 36 39 44 57 67 88 61 55 63 86 69 62 81 79 77 82 82 82 79 78 77 76 76 75 74 74 73 71 72 73 72 71 70 70 68 67 68
50 66 58 56 79 67 48 39 42 38 39 36 39 41 44 75 68 78 69 53 54 51 59 53 82 80 79 80 82 81 76 77 77 77 76 75 74 73 72 72 72 70 71 71 69 68 68 67 65
49 53 59 58 44 50 45 38 38 40 37 38 46 40 46 76 67 68 50 46 47 66 51 58 81 82 80 80 81 80 77 76 77 76 75 74 72 72 71 71 72 71 70 71 69 66 67 65 63
53 51 48 63 36 36 34 34 36 44 42 39 40 53 52 51 57 52 45 44 44 45 45 70 80 78 79 79 78 76 76 76 76 75 74 72 71 71 71 73 72 70 69 69 68 68 66 64 62
41 49 46 38 31 32 31 32 36 37 40 42 41 62 80 62 49 48 46 42 38 40 42 52 81 80 80 78 77 76 76 76 76 74 73 71 70 69 70 71 70 69 68 68 66 66 66 66 65
65 37 35 26 28 32 32 32 33 36 41 45 46 54 79 52 55 48 42 40 36 39 37 48 76 80 81 77 76 76 75 76 76 74 72 71 70 69 69 69 68 67 65 66 66 65 65 68 69
46 32 31 27 31 31 34 30 32 35 40 41 39 54 62 56 51 42 38 38 37 36 35 42 45 64 76 78 76 75 75 75 75 74 72 70 69 68 68 68 66 66 64 64 64 64 65 66 70
38 32 33 30 30 32 32 32 31 33 39 33 36 54 68 57 46 38 37 39 40 37 34 41 43 46 53 54 75 75 75 75 74 72 72 71 68 67 68 69 69 65 63 64 64 63 63 64 65
42 35 28 26 27 29 29 33 32 30 36 34 36 36 42 47 43 41 43 43 48 41 35 35 36 46 52 50 58 71 74 73 73 69 70 68 46 47 49 68 67 65 64 63 66 66 65 64 68
39 31 24 21 20 22 28 29 33 33 34 36 40 37 43 46 49 47 46 49 53 50 36 34 37 42 45 38 54 53 45 40 42 43 51 44 50 51 47 60 68 69 58 66 68 66 63 62 25
34 29 21 19 19 20 27 30 28 30 33 32 42 46 46 48 47 45 44 44 45 44 36 36 41 47 45 45 44 42 40 39 44 54 53 51 48 50 40 43 42 44 54 38 48 49 44 36 28
35 25 22 20 18 20 25 25 29 29 26 26 34 40 44 47 44 41 41 41 42 44 40 37 42 51 48 43 42 39 38 39 37 40 57 56 47 48 50 41 44 48 38 46 43 44 45 40 39
33 23 20 20 18 16 16 25 27 29 26 26 32 39 42 42 41 39 38 38 39 42 42 41 46 57 55 56 42 38 42 39 35 40 48 45 44 52 48 50 43 47 42 40 48 44 46 53 63
18 21 19 14 12 12 13 21 24 25 26 30 34 38 37 39 38 40 39 40 41 42 42 41 47 56 56 56 59 50 46 40 40 37 39 54 48 54 45 47 43 42 42 42 57 50 53 44 41
17 13 10 10 10 11 12 19 23 21 30 34 34 36 37 37 37 40 39 40 40 40 41 43 48 50 59 61 60 54 43 40 38 37 48 53 56 60 64 61 48 43 51 56 56 50 45 42 34
12 11 13 11 9 9 11 17 16 20 30 35 34 35 37 37 35 37 37 37 38 40 46 47 41 46 55 58 57 49 43 42 38 35 39 53 56 62 62 61 47 46 59 49 48 46 43 36 38
11 14 15 14 10 11 12 15 14 18 26 31 35 34 35 37 37 37 35 36 36 42 48 52 51 49 54 61 55 53 53 46 37 36 38 51 56 58 60 49 47 57 46 49 47 45 47 40 37
14 13 13 15 12 11 13 15 13 20 23 28 33 34 35 35 37 36 36 36 39 43 48 54 52 57 62 56 61 50 44 43 39 38 38 49 53 56 59 48 54 51 45 46 47 56 47 43 40
11 12 13 12 11 11 13 13 13 17 23 25 31 34 34 34 33 33 36 36 39 43 51 57 60 66 60 57 54 50 44 43 40 39 48 54 57 60 65 51 57 55 54 64 59 53 58 41 44
11 12 12 11 10 12 14 14 13 15 24 24 29 31 33 32 32 36 36 36 37 44 51 59 63 68 66 56 57 47 45 39 39 40 50 56 56 62 62 68 59 61 48 67 66 66 45 42 36
12 12 12 12 11 10 11 14 14 13 21 24 24 27 28 31 34 35 36 36 36 43 51 58 66 68 68 64 56 56 48 46 44 44 47 53 58 59 65 65 56 65 60 52 66 64 61 41 41
12 9 10 10 11 15 11 17 16 13 18 21 22 25 26 30 31 32 34 36 36 41 45 55 63 68 67 69 61 72 51 47 41 44 44 46 57 56 57 64 62 68 51 60 76 57 56 61 42
11 7 9 10 11 13 12 14 15 13 14 16 17 21 24 25 30 32 33 34 34 38 42 49 63 71 70 73 69 59 64 44 39 39 58 67 61 58 52 60 64 67 57 61 68 66 70 52 39
9 9 10 11 9 14 13 13 14 13 16 14 14 18 23 25 27 30 32 32 34 35 40 46 64 74 73 70 72 73 71 62 45 50 45 45 45 48 59 57 65 66 62 64 64 70 70 64 53
11 12 15 15 13 12 10 12 15 11 10 12 13 14 21 24 26 28 32 34 35 38 42 45 60 72 71 68 69 71 71 71 66 61 52 54 42 40 54 64 66 59 69 63 65 73 67 68 59
13 11 11 20 11 9 10 13 11 9 9 10 11 10 15 21 23 26 31 34 38 38 43 47 56 69 68 67 74 75 75 55 55 59 46 46 41 42 50 58 60 63 62 64 66 60 59 62 60
14 14 7 8 10 10 7 9 8 9 9 10 9 10 10 17 24 26 28 31 36 40 45 50 58 67 66 61 70 75 73 70 55 63 62 46 56 41 49 54 62 60 62 65 69 57 65 59 64
10 10 11 10 20 19 8 11 9 12 12 11 11 10 11 16 22 24 26 28 31 34 38 46 52 61 62 60 62 62 65 70 67 64 67 62 54 58 51 57 59 60 62 65 71 61 64 68 55
11 12 11 9 10 12 11 8 8 11 12 11 10 11 11 14 19 20 22 24 26 30 35 40 46 54 56 57 61 62 60 60 65 63 65 66 61 62 62 63 61 59 62 66 71 68 60 70 68
9 12 12 12 20 12 11 8 6 7 7 10 9 10 10 13 14 15 17 20 24 28 30 34 39 42 48 53 62 63 63 63 59 67 64 67 69 63 66 64 65 62 59 64 69 69 58 66 68

GFSSGP_sfc_rhum_033.txt.gz
RH
65 52 66 88 94 70 66 51 31 36 39 29 31 39 52 50 62 91 71 78 61 73 74 58 79 76 76 80 82 79 77 78 76 76 74 74 74 72 71 72 73 72 71 70 70 68 67 68 68
53 53 70 75 96 82 59 40 46 38 34 31 30 33 37 66 51 65 77 49 60 73 48 43 83 80 79 80 80 79 76 76 77 75 75 74 73 72 71 71 70 71 71 69 68 67 66 65 64
50 43 71 64 64 90 56 36 33 31 30 36 36 39 43 62 53 59 47 49 58 65 51 53 79 80 79 79 79 78 75 76 75 74 74 73 72 70 69 69 70 70 70 69 66 66 65 62 62
57 55 46 86 81 36 37 40 30 33 30 29 37 49 47 50 50 48 46 45 55 51 43 70 78 78 77 77 76 75 74 75 75 73 72 71 72 71 70 69 69 68 68 68 67 66 65 64 62
43 40 72 86 33 30 28 28 28 38 30 31 35 53 64 54 44 44 44 44 48 39 43 53 81 80 78 76 75 75 75 75 74 72 71 70 70 69 70 70 68 67 66 66 65 65 66 67 66
62 40 63 49 28 26 26 23 28 30 29 34 43 56 63 50 48 43 41 40 39 45 36 52 76 79 78 75 75 75 75 74 74 72 71 70 70 70 69 68 67 65 65 65 64 65 66 68 68
46 48 59 25 22 25 26 22 32 24 30 32 33 58 63 56 47 39 41 44 39 33 34 45 49 64 75 76 74 74 74 74 73 72 71 69 68 67 68 67 66 64 64 64 64 63 64 67 68
31 40 32 29 54 23 20 20 20 22 32 27 32 53 68 54 43 40 40 42 39 33 32 40 44 45 53 54 73 73 73 73 73 72 70 69 68 67 66 69 66 63 62 62 62 61 62 65 69
27 43 34 20 26 20 18 19 20 22 29 28 28 37 42 43 42 43 44 45 42 33 31 31 34 43 50 50 59 70 72 72 71 68 71 71 74 56 57 68 64 61 62 62 63 65 64 65 68
28 83 51 16 14 23 19 17 21 24 27 30 30 35 39 39 43 46 50 50 42 35 29 29 34 37 40 34 56 53 46 43 45 53 54 85 57 54 46 56 66 66 58 64 64 61 66 68 41
23 53 52 16 15 17 17 19 17 21 26 28 37 41 40 40 38 44 48 47 39 30 28 29 35 41 38 41 40 39 35 35 38 50 54 70 50 52 88 48 44 54 57 68 71 60 45 32 30
24 21 31 15 14 16 18 17 19 18 18 22 30 35 38 40 36 38 40 42 42 34 30 28 34 43 40 36 35 33 32 32 33 39 54 58 57 46 84 70 50 45 51 52 67 54 47 68 55
22 19 17 16 15 13 15 19 24 21 17 20 28 34 37 38 36 33 33 34 36 34 31 31 37 50 49 48 36 33 34 32 30 37 48 43 68 55 63 55 63 56 60 63 56 48 51 47 52
17 18 16 15 14 12 13 17 18 20 19 23 29 33 34 34 32 33 32 33 34 34 33 32 38 49 49 51 53 42 36 33 32 31 38 52 47 50 64 58 68 65 69 77 46 49 68 62 46
16 16 17 16 13 11 11 16 19 18 22 25 28 31 32 33 31 32 31 32 31 32 34 36 40 44 53 55 53 46 36 33 32 32 42 48 52 56 65 56 62 70 74 52 59 52 64 46 38
17 16 16 12 11 10 11 17 15 15 22 26 27 28 31 31 30 31 30 30 32 34 40 39 34 41 50 53 52 45 37 34 33 31 36 49 53 57 59 49 48 68 56 41 67 42 36 46 31
12 16 16 12 10 10 11 14 13 14 18 24 27 27 27 30 30 32 30 31 31 36 41 44 42 41 49 58 50 49 50 39 34 31 32 54 52 55 57 86 78 56 56 55 39 64 47 35 33
14 13 12 14 11 10 11 12 13 13 16 20 26 27 28 28 29 30 30 30 30 35 40 47 42 52 59 53 59 45 40 40 35 32 32 53 50 53 57 60 54 48 54 71 70 57 40 41 35
12 10 11 11 10 11 13 13 12 12 15 18 24 27 28 27 26 27 29 29 30 35 42 51 55 62 55 51 50 47 43 42 37 34 43 48 49 56 61 53 58 51 64 53 54 51 54 46 38
13 12 11 10 9 12 12 13 11 11 14 16 21 24 26 26 26 28 30 28 30 37 46 57 61 67 64 53 55 47 46 35 36 35 47 48 51 56 57 63 74 56 84 61 62 59 67 36 34
10 11 11 10 10 10 12 14 13 10 12 16 17 21 22 25 26 30 30 30 30 38 47 56 66 68 67 63 56 55 48 45 38 38 39 47 53 54 62 60 57 58 58 82 64 58 56 40 36
8 7 9 9 11 14 11 16 15 12 12 16 16 19 20 23 25 28 28 30 30 35 41 55 65 69 67 71 58 68 50 44 37 40 36 42 54 53 53 58 56 64 52 76 60 52 55 59 43
8 6 8 9 10 11 11 14 14 11 12 13 15 17 18 20 23 26 28 29 28 31 37 46 65 72 69 72 70 56 61 40 37 35 54 60 69 56 49 59 61 65 57 65 68 66 68 50 45
6 7 7 7 8 13 12 11 13 10 12 11 12 13 16 17 20 24 27 28 28 28 33 43 64 75 73 72 74 72 68 59 42 44 40 40 41 49 60 54 65 73 64 58 61 67 67 67 52
8 9 12 11 11 12 10 11 13 10 8 9 10 12 12 15 18 23 26 28 31 32 36 41 61 74 73 70 71 72 70 72 68 58 42 48 38 37 56 65 71 60 69 61 65 74 66 67 60
10 8 10 20 11 9 9 12 10 8 8 7 9 9 11 13 16 20 25 28 32 34 39 43 56 71 71 70 74 75 73 54 53 55 41 40 36 37 49 63 61 63 62 64 66 58 59 64 61
11 10 6 7 7 7 6 7 6 6 7 8 8 9 10 13 16 19 22 26 31 34 41 46 54 65 68 64 70 74 74 70 56 62 61 45 54 36 47 56 63 62 62 65 69 56 67 62 65
9 8 9 8 17 15 9 10 8 11 10 9 10 10 10 10 14 17 20 23 27 29 34 41 47 60 63 61 64 65 69 72 66 63 66 60 54 57 52 55 57 62 64 65 72 61 64 70 56
10 10 10 7 8 11 12 9 6 9 10 10 9 9 9 9 12 15 19 21 24 27 30 36 42 52 58 59 62 64 63 64 68 63 63 65 62 61 62 63 62 63 64 66 72 70 62 70 71
8 10 11 12 18 9 9 9 6 6 6 8 9 9 8 9 11 15 18 19 21 25 27 31 36 40 50 54 61 62 62 63 62 67 63 65 67 64 65 64 66 64 63 65 70 69 56 65 69

GFSSGP_sfc_rhum_036.txt.gz
RH
70 57 67 84 98 87 91 73 67 69 46 35 47 60 62 51 60 79 74 68 60 67 66 67 80 78 80 82 82 81 81 80 80 79 77 78 76 77 77 74 74 74 72 71 69 69 69 70 70
49 57 76 90 99 94 78 45 50 41 34 35 40 43 48 69 50 78 72 56 57 56 50 56 83 80 80 83 81 80 77 77 79 77 78 78 75 75 73 72 73 72 71 70 69 68 66 66 68
46 53 91 91 92 84 56 40 38 33 31 35 39 39 45 72 58 60 49 48 53 48 42 68 82 81 80 81 81 80 79 77 76 76 76 74 74 72 71 72 71 72 71 68 68 67 65 63 65
52 62 61 92 86 47 46 65 29 35 34 34 38 58 52 48 53 39 37 43 47 46 45 74 79 78 80 81 80 78 78 75 76 74 72 73 72 71 70 71 70 70 69 69 68 68 67 65 64
58 70 94 86 71 40 34 31 28 31 33 39 40 62 66 52 40 38 40 39 43 50 64 62 82 81 81 80 78 78 75 74 74 73 72 71 70 71 71 69 69 68 68 68 68 68 68 67 67
86 94 93 87 64 30 25 23 28 34 35 43 53 64 72 49 45 44 41 46 47 48 50 62 79 81 80 77 77 77 75 73 73 72 71 71 71 71 71 69 68 67 66 66 66 67 69 69 69
73 97 84 58 33 30 27 25 34 26 31 46 44 64 69 57 47 43 49 42 50 37 48 59 64 72 76 78 76 75 74 73 73 72 71 70 69 69 69 70 68 66 66 65 64 64 66 68 70
45 96 88 74 26 26 21 22 24 28 33 32 42 64 73 57 46 44 41 49 37 36 45 56 60 60 65 65 74 73 73 72 72 71 69 67 66 64 67 75 72 66 65 62 61 61 62 68 72
30 67 68 49 27 23 16 21 23 24 29 29 36 48 51 46 45 46 48 47 39 39 41 44 46 58 66 66 66 72 72 72 72 73 70 75 81 69 65 71 70 63 62 61 61 60 63 72 73
32 88 64 41 36 33 18 20 22 25 27 38 44 45 46 46 48 55 58 50 44 40 37 38 44 50 55 44 72 71 61 60 65 75 86 89 85 82 56 64 72 66 61 60 71 75 75 70 54
30 46 32 28 24 20 18 17 18 22 29 38 50 50 46 46 46 52 49 42 44 36 33 36 47 56 50 60 61 57 54 54 65 90 94 93 92 74 74 65 62 68 68 76 66 78 66 62 58
28 44 34 27 22 19 27 34 16 20 25 31 39 41 43 46 48 46 47 41 42 35 34 34 44 57 54 55 49 49 45 54 49 72 88 94 87 95 85 74 70 80 70 89 83 90 75 61 61
22 46 31 27 20 25 33 40 29 20 22 27 35 38 42 44 46 45 42 39 39 34 32 37 49 62 65 67 50 50 57 44 49 59 65 96 88 90 83 81 82 78 80 88 84 77 67 70 60
18 22 24 24 16 12 16 31 31 18 20 28 35 38 38 37 43 44 43 44 42 37 34 41 50 60 62 65 68 66 58 53 52 50 60 66 76 80 77 79 71 76 74 86 75 75 77 67 65
16 20 18 18 14 13 11 16 21 23 21 28 33 36 37 34 35 39 40 42 43 38 37 44 51 52 64 67 66 65 57 43 48 56 67 61 68 75 75 75 79 78 84 75 73 69 79 69 51
17 19 22 16 15 13 11 16 16 23 23 28 30 32 36 35 30 32 32 34 39 37 44 47 35 48 59 65 67 64 54 53 54 52 59 63 63 68 74 80 82 77 75 77 66 76 74 75 64
18 23 22 19 14 12 12 14 14 20 22 28 29 30 32 35 32 32 28 31 32 39 48 51 48 53 61 69 64 63 63 60 56 54 56 70 67 67 77 84 89 81 75 78 69 69 66 68 59
22 18 18 19 13 12 12 12 14 15 21 26 28 28 30 31 31 31 29 29 32 41 50 53 50 63 69 65 71 61 57 59 58 58 56 71 68 67 76 84 77 81 74 75 74 74 68 66 64
16 13 14 13 12 12 13 12 16 16 27 23 26 29 29 29 29 31 31 30 33 41 52 57 62 70 67 65 66 64 60 62 61 60 60 72 69 71 77 85 89 76 76 78 72 70 71 72 62
18 16 12 10 10 13 13 12 12 14 21 21 23 26 27 27 27 32 32 31 32 43 54 62 64 71 69 65 69 64 66 57 57 60 65 64 66 72 74 81 80 76 86 82 74 74 83 69 61
18 18 14 11 9 11 14 16 14 12 14 16 20 22 24 27 27 31 34 33 34 45 54 62 68 72 72 70 69 72 69 69 62 59 60 62 65 69 76 76 82 81 82 90 83 76 76 76 63
15 13 12 11 11 14 14 19 19 13 12 15 16 20 22 26 27 30 33 34 34 42 49 62 68 72 72 74 69 76 65 62 59 60 60 61 66 68 72 76 78 81 83 83 86 76 78 76 70
9 7 10 10 11 11 11 14 15 13 14 14 16 18 21 22 24 29 30 34 32 37 47 57 70 74 75 74 78 68 70 59 56 59 68 74 75 72 64 74 78 80 78 86 83 81 81 79 78
6 7 7 8 9 16 13 13 16 13 16 13 13 15 20 20 23 28 30 33 33 35 45 54 72 78 77 77 76 81 75 70 59 61 62 63 66 66 73 72 77 81 80 83 85 84 83 85 82
7 8 12 13 13 14 11 12 14 10 11 11 11 15 18 19 22 27 33 33 36 38 45 52 72 79 77 76 76 77 78 75 78 74 58 62 57 62 72 77 82 78 81 82 81 85 85 84 83
9 8 11 22 14 11 10 13 12 9 8 8 9 12 14 16 16 24 31 33 37 37 44 51 67 77 77 74 79 77 80 68 63 70 56 56 55 55 70 72 74 77 78 78 81 80 79 82 82
10 11 6 8 8 9 8 9 7 8 8 8 8 10 13 14 16 22 28 32 36 37 44 51 64 73 75 73 77 80 78 77 69 71 70 62 66 52 66 71 73 74 75 78 82 74 82 81 82
8 8 10 10 20 19 10 13 11 12 11 10 10 9 11 12 15 19 25 29 34 34 38 44 55 68 72 72 72 73 75 76 73 71 74 68 67 66 68 72 72 74 75 78 82 78 79 83 78
9 10 10 8 10 14 14 9 9 14 12 11 10 10 10 12 15 17 24 26 31 32 35 40 47 62 68 70 73 72 72 72 73 71 72 73 69 75 70 76 75 75 75 76 81 80 77 81 82
8 10 11 13 21 11 12 10 7 9 9 10 9 10 10 13 16 17 20 24 28 33 34 38 42 47 59 67 72 72 72 72 73 73 70 73 76 70 74 73 74 75 74 75 78 79 69 77 81

GFSSGP_sfc_rhum_039.txt.gz
RH
76 69 75 88 100 98 91 84 72 73 77 46 62 56 72 58 61 84 83 73 72 80 86 77 82 81 80 83 83 81 80 79 80 82 80 78 76 77 75 75 74 74 72 71 71 72 71 72 70
67 65 86 95 99 97 92 69 79 61 51 57 54 52 58 70 74 90 80 70 73 74 78 81 85 84 82 82 83 81 77 75 79 82 80 78 78 77 74 74 73 73 72 71 70 69 68 70 71
58 61 95 97 95 94 87 55 52 48 50 47 51 49 57 83 78 73 65 66 68 69 72 79 84 84 81 82 82 82 80 77 80 80 78 77 77 74 72 72 73 72 72 70 69 68 67 66 67
65 85 89 97 91 72 73 68 37 38 44 50 55 67 59 59 64 61 57 58 60 62 78 81 81 78 80 80 80 78 76 77 78 78 77 76 76 72 71 71 71 71 71 71 70 69 67 66 66
66 83 95 90 83 68 58 55 41 42 44 51 53 74 74 54 55 53 59 54 57 78 82 79 83 82 82 79 78 79 76 75 78 78 75 74 73 72 71 70 70 70 70 70 70 70 69 68 66
92 93 91 91 75 64 58 49 38 50 54 58 67 72 73 48 47 48 52 52 57 75 75 78 82 82 82 76 76 80 76 75 78 77 73 73 73 75 72 70 70 69 68 68 69 71 70 69 67
80 93 90 90 80 62 40 41 45 51 54 61 56 78 61 51 45 46 45 51 59 63 74 82 80 75 76 80 76 77 75 76 76 76 74 73 71 71 72 72 73 68 67 66 67 69 71 70 68
77 89 86 83 73 62 32 35 45 45 53 47 53 80 74 59 49 48 53 60 56 66 72 80 83 83 87 84 76 75 75 75 74 73 72 70 67 66 68 76 76 68 66 65 66 70 73 73 70
54 94 92 78 51 43 36 36 37 36 49 48 46 60 56 51 52 58 57 62 61 63 70 73 76 82 85 84 75 76 74 75 74 76 79 85 94 85 73 76 74 64 65 64 70 74 72 74 73
75 90 75 75 42 40 32 32 34 49 55 60 63 58 52 50 58 61 61 66 59 64 65 66 68 73 75 64 85 88 79 83 84 86 93 94 94 93 76 73 73 67 64 68 72 69 66 70 78
52 65 45 46 34 30 31 29 27 52 66 63 71 64 55 55 54 57 56 56 56 55 55 57 62 67 68 73 87 89 84 83 94 86 91 86 95 98 95 83 86 83 73 79 73 80 74 74 76
39 40 35 31 27 31 36 38 26 46 54 54 56 56 54 55 56 59 59 51 48 49 49 51 59 62 69 73 76 74 73 76 84 95 87 96 95 97 93 91 82 89 86 85 87 92 82 74 67
31 39 30 31 30 30 42 36 36 47 47 50 51 53 56 54 58 52 54 47 44 44 44 48 56 64 67 67 68 70 67 64 74 95 93 96 97 96 90 86 94 86 90 88 87 88 80 70 64
26 26 33 39 30 27 30 29 31 46 45 51 52 55 53 51 54 52 50 45 44 41 42 50 55 68 60 61 72 65 66 58 64 76 82 93 96 87 94 92 87 81 92 90 90 91 82 75 73
26 27 31 29 28 27 24 36 29 43 43 49 52 52 51 52 50 52 48 49 48 48 42 51 53 68 64 70 69 63 69 51 59 62 76 79 82 88 77 92 87 78 90 79 85 73 76 76 68
28 26 32 28 25 20 28 45 41 38 44 50 48 50 52 54 52 49 46 47 47 49 52 53 44 64 74 73 72 73 69 68 58 65 74 69 72 79 94 93 88 86 83 87 80 75 66 82 69
32 35 30 27 19 18 18 26 45 44 39 47 48 46 47 52 50 50 45 45 44 48 54 54 52 62 76 76 79 73 73 74 68 64 73 71 70 75 93 86 88 85 86 82 76 82 74 70 71
39 35 29 27 20 20 22 18 41 39 48 63 54 45 45 47 50 47 45 43 42 48 52 51 58 60 68 80 84 77 77 78 72 70 74 77 79 76 85 90 82 90 81 81 77 75 72 68 57
27 29 25 20 18 21 22 18 36 49 60 62 54 52 45 43 37 39 41 40 43 50 54 53 66 69 66 79 75 89 74 80 74 68 77 80 81 80 87 92 89 88 85 83 78 79 74 74 63
22 28 27 16 14 19 19 18 17 45 45 41 46 56 51 41 38 38 36 36 44 53 57 58 70 73 68 69 66 81 82 79 73 69 82 78 79 82 84 92 92 91 88 85 83 81 86 82 69
21 26 26 23 15 12 16 18 18 38 40 55 67 77 60 38 38 39 36 38 46 56 59 64 65 74 70 71 74 82 84 79 79 74 74 82 77 82 83 86 91 92 89 94 88 84 86 72 75
26 19 20 21 21 22 18 36 27 25 38 52 61 67 52 37 34 39 37 39 42 56 58 60 68 78 71 75 72 70 66 73 83 70 73 76 78 79 83 83 82 88 93 89 91 84 85 74 66
21 15 18 20 23 23 19 26 23 21 28 38 45 46 36 35 34 38 38 37 37 50 58 63 66 73 72 71 67 74 78 82 74 75 71 83 80 79 81 83 86 86 93 90 89 90 83 86 84
16 18 15 18 20 24 18 24 27 23 20 23 28 30 30 30 30 34 36 35 38 49 56 65 69 70 72 73 83 72 81 77 82 75 72 90 75 81 84 81 87 86 91 90 91 91 87 89 90
17 17 21 22 23 23 17 22 21 20 16 18 18 25 28 29 30 34 38 38 39 49 54 65 70 72 74 74 69 87 78 78 75 78 69 82 85 77 80 87 90 89 91 92 88 92 93 92 92
16 14 22 29 23 18 15 15 16 14 14 14 15 20 24 28 29 32 36 37 38 42 54 63 71 73 74 78 74 67 87 76 66 87 74 77 73 71 70 85 77 86 87 90 93 92 95 93 92
14 14 12 18 22 22 19 14 11 9 10 10 12 14 25 26 28 33 34 36 37 41 53 59 72 71 73 75 78 74 74 87 68 62 87 66 74 68 74 74 84 82 83 90 92 88 92 93 94
12 11 15 14 25 24 16 15 14 10 10 11 11 12 21 23 26 32 34 35 37 36 46 54 67 73 74 74 76 77 72 69 79 71 69 82 66 70 80 74 79 80 81 85 90 95 94 94 93
12 14 12 17 20 27 32 20 10 10 10 10 11 14 18 22 25 31 35 34 36 35 43 51 60 73 76 76 72 75 76 72 75 77 71 87 75 79 84 82 79 79 81 85 85 90 91 95 95
12 11 15 15 22 18 18 17 16 17 9 9 10 13 18 19 21 30 34 34 37 36 40 48 53 67 71 72 74 74 76 78 72 75 88 66 89 72 88 83 80 82 79 78 91 88 80 90 96

GFSSGP_sfc_rhum_042.txt.gz
RH
76 72 78 91 98 100 92 80 71 78 75 53 44 54 63 75 79 86 88 76 80 90 85 79 83 81 79 80 82 81 78 78 80 78 79 79 76 76 76 76 74 72 72 73 73 73 72 68 71
73 73 89 95 99 98 89 68 82 82 66 55 56 55 65 90 80 92 89 76 81 88 86 80 85 82 80 81 81 80 77 80 79 78 80 78 76 77 74 74 73 73 72 72 71 70 71 70 67
69 64 96 98 96 94 89 66 69 60 61 56 56 57 65 90 80 78 74 76 79 86 88 80 85 83 81 79 80 78 78 76 77 76 76 78 76 74 74 73 72 72 72 71 69 69 68 69 68
70 91 93 95 90 82 84 65 56 56 50 53 58 75 67 67 70 71 73 72 78 84 83 83 82 78 78 78 79 76 77 76 77 76 77 76 74 72 72 72 72 72 71 70 69 67 67 67 68
72 87 93 87 89 75 70 75 61 57 62 58 58 83 85 69 63 69 70 67 80 87 86 81 83 83 79 78 76 76 75 75 77 77 75 75 73 72 72 72 71 71 71 71 70 69 68 67 68
88 94 92 93 79 75 70 60 62 59 60 64 68 74 77 64 66 65 62 68 79 86 85 81 82 83 79 75 78 76 75 76 76 75 75 76 74 73 72 71 70 70 69 70 70 71 71 69 69
85 93 87 84 81 77 75 67 69 65 61 65 58 74 76 67 59 59 60 77 79 81 85 86 82 76 76 77 78 76 76 76 75 75 75 74 73 72 71 72 70 69 68 68 68 70 74 74 71
84 83 83 80 84 77 55 64 63 56 63 52 50 76 80 60 55 57 54 76 76 82 87 92 90 89 91 83 76 75 76 75 75 74 72 72 71 69 70 77 75 69 67 66 66 68 70 70 71
60 87 87 75 69 54 51 60 50 52 59 51 52 55 51 48 49 52 66 79 83 84 90 90 90 96 95 90 78 76 76 75 75 77 81 82 92 91 80 74 71 67 65 66 68 71 73 71 69
79 97 76 56 53 55 55 58 53 58 60 64 60 49 51 52 52 63 72 82 86 89 89 88 89 93 92 74 88 91 83 88 90 84 84 93 90 90 84 76 70 66 62 65 66 66 70 69 80
79 86 60 46 48 37 34 52 50 61 76 68 71 65 58 57 62 66 67 74 80 79 81 83 83 87 87 81 95 97 93 92 97 87 88 90 90 93 95 90 90 84 72 81 74 81 80 76 79
67 61 49 42 41 42 34 36 54 54 62 58 59 59 59 63 66 64 65 66 73 75 75 75 76 79 84 88 90 92 88 88 93 93 84 95 94 95 95 94 86 90 88 87 86 90 83 83 73
47 44 42 35 32 36 33 33 50 55 58 55 56 56 61 63 62 58 57 59 64 68 68 69 70 76 79 84 88 88 86 84 87 95 89 94 94 95 92 89 94 88 89 87 93 87 79 80 70
38 38 33 29 31 35 37 40 53 60 58 60 60 60 59 59 58 60 58 58 59 58 61 63 69 72 73 74 82 82 77 78 85 94 85 92 93 95 93 94 90 87 92 92 92 90 86 81 75
30 38 34 32 28 36 33 39 63 60 58 64 63 61 59 57 58 59 58 52 51 52 54 60 66 69 70 70 75 75 73 63 75 83 87 92 89 92 92 97 93 85 93 88 84 79 85 74 72
33 37 45 34 31 31 31 47 60 59 62 67 64 60 59 60 58 54 52 50 46 46 52 56 54 66 66 78 75 77 72 70 75 76 86 85 86 88 94 95 94 91 94 94 94 90 75 80 75
37 43 41 37 31 30 32 49 58 58 62 66 63 60 59 59 57 53 49 50 48 50 51 57 55 68 66 80 74 75 75 78 76 79 79 82 84 87 90 90 92 91 91 92 79 81 82 80 68
41 48 39 35 26 30 33 49 60 57 61 66 64 60 58 58 57 52 50 45 49 54 52 53 53 70 69 82 79 78 78 80 81 77 80 79 84 84 91 92 83 90 87 87 84 78 72 68 74
29 35 36 29 23 24 29 50 59 55 58 64 64 64 61 60 53 50 49 45 46 59 56 54 56 70 73 83 89 84 79 80 83 79 75 82 84 84 92 95 89 91 92 86 78 81 73 74 73
23 26 33 30 25 23 28 52 52 51 56 56 60 62 61 55 55 51 50 47 47 61 57 56 57 66 69 67 70 86 84 85 80 77 82 82 83 86 88 92 91 90 91 89 87 84 89 83 73
23 25 25 34 27 21 28 43 50 47 49 50 52 54 52 48 55 53 51 49 47 61 59 60 61 64 64 70 79 93 91 86 84 82 89 85 84 85 88 90 92 92 92 94 90 86 83 73 79
25 18 19 23 32 40 21 37 55 55 61 55 54 55 53 49 44 51 48 50 47 52 55 60 65 66 66 75 71 71 69 77 81 80 80 87 84 85 87 86 88 92 94 91 93 87 89 70 69
20 18 19 22 31 40 28 34 42 58 65 54 50 46 46 47 43 43 43 44 45 45 56 57 70 69 69 76 69 68 69 76 87 79 77 88 84 83 81 87 87 90 96 92 91 93 91 82 73
19 22 24 25 31 40 28 28 31 60 57 52 52 45 45 42 41 38 38 41 48 49 55 59 74 74 73 75 73 71 72 85 82 86 75 85 81 82 89 85 88 91 95 94 92 92 90 93 85
24 33 42 39 37 35 25 27 22 32 44 44 49 53 51 44 41 38 40 39 50 56 57 61 69 78 75 74 76 75 74 78 80 80 79 89 88 93 90 92 91 92 94 91 89 94 94 92 94
28 28 44 48 40 29 21 26 21 15 22 33 38 48 44 40 38 36 39 37 42 56 58 59 66 69 76 73 74 73 78 74 70 76 78 73 76 77 78 84 85 87 89 93 93 94 97 95 95
28 31 22 24 39 26 23 18 15 11 11 18 28 40 40 39 36 35 38 38 40 52 60 62 64 63 70 72 72 79 81 71 72 76 76 78 85 78 78 81 83 84 88 91 95 96 95 96 95
18 18 27 27 33 37 23 20 21 13 11 12 18 31 33 34 35 33 36 38 38 44 53 59 62 62 65 70 69 68 73 83 74 70 85 91 77 80 78 80 84 83 82 87 95 97 95 96 98
27 18 20 19 26 28 29 19 12 14 14 12 13 24 30 31 33 32 35 37 37 40 49 58 64 63 67 68 72 71 69 68 85 79 73 74 84 75 78 79 82 83 83 84 94 95 96 93 95
21 21 17 17 25 28 27 16 15 13 10 10 8 13 28 30 31 31 34 36 38 40 47 54 64 65 67 69 72 76 76 74 72 86 79 74 74 81 72 87 82 84 84 84 86 89 86 95 96

GFSSGP_sfc_rhum_045.txt.gz
RH
75 72 79 94 100 98 92 82 70 83 77 56 48 53 67 77 77 91 88 84 89 94 89 81 81 78 78 80 80 78 80 79 79 79 77 78 76 76 76 73 74 74 74 73 73 70 70 71 70
74 76 91 96 99 98 88 75 80 70 58 59 52 61 72 91 76 95 93 86 90 91 90 85 83 81 78 79 78 78 75 76 78 78 77 76 75 75 75 73 73 73 73 74 74 71 68 70 71
74 69 96 97 96 93 89 79 70 69 63 57 62 64 74 87 80 82 80 86 90 94 92 83 83 82 77 77 78 80 77 76 78 78 77 77 76 74 73 73 73 73 72 73 72 73 68 66 70
78 92 96 99 91 77 84 87 64 60 61 58 64 81 74 66 74 79 80 85 93 92 88 80 78 78 76 76 78 78 75 75 76 78 76 75 73 73 73 73 73 72 71 70 69 71 70 71 67
76 91 94 94 84 74 72 75 77 69 59 62 63 88 93 71 74 78 82 83 93 96 90 81 81 79 78 76 76 76 75 76 78 78 74 74 73 72 73 73 73 72 72 72 72 72 69 70 68
90 94 94 94 78 67 75 82 72 65 71 71 74 79 89 77 81 79 77 84 86 93 91 82 80 77 78 75 75 75 76 77 76 76 76 74 74 73 73 72 71 70 70 72 73 71 70 71 69
86 95 87 80 81 70 70 78 81 71 69 68 61 83 89 86 74 72 75 85 88 88 91 90 86 76 75 77 75 75 76 76 76 76 76 75 74 72 73 72 70 69 68 68 70 68 68 68 70
78 84 89 79 83 78 55 67 74 66 68 59 57 86 96 80 68 71 82 89 92 92 94 97 94 88 91 86 75 75 76 76 75 74 74 72 72 71 74 78 75 68 67 67 68 69 70 70 70
59 85 87 76 73 64 61 68 72 64 63 53 51 62 63 66 64 78 91 91 94 94 98 97 96 97 95 92 79 77 75 75 74 76 80 85 93 89 84 75 71 66 66 67 71 71 71 71 71
87 97 76 55 57 62 59 62 69 64 61 63 61 59 59 65 66 86 90 92 96 88 97 98 97 97 96 79 89 93 86 90 94 93 89 94 90 92 84 79 69 66 65 69 63 69 68 71 79
80 83 68 50 48 68 57 57 53 64 79 65 69 66 61 66 65 80 89 86 90 88 92 97 97 97 96 90 98 98 96 97 98 86 89 92 91 94 93 92 91 86 74 82 80 84 82 78 82
86 69 64 43 39 46 46 53 58 62 65 55 55 56 56 64 62 74 86 88 91 92 90 93 94 97 96 96 98 98 96 97 98 96 86 94 97 95 94 95 90 92 90 88 87 93 85 78 77
66 62 53 55 52 43 38 51 59 62 59 50 53 52 55 57 60 68 74 79 84 88 86 88 88 94 93 96 98 97 95 94 93 94 88 94 95 95 91 93 93 91 93 90 94 95 83 80 73
43 44 44 42 44 39 37 42 59 64 58 58 61 57 54 55 65 66 69 78 81 80 82 82 83 87 89 95 95 95 92 89 91 94 85 91 94 93 93 94 90 90 93 92 93 94 90 80 76
33 43 37 36 39 38 38 58 65 66 62 67 66 64 59 62 64 65 65 72 74 73 74 78 78 81 87 90 87 88 86 80 89 88 86 86 89 91 94 94 92 90 93 89 88 83 88 76 71
38 42 54 38 35 32 36 58 73 66 67 71 67 65 62 64 63 60 59 64 66 66 70 71 63 74 82 85 82 80 80 81 80 89 90 86 87 92 94 94 94 92 93 95 94 93 82 84 76
34 51 52 42 34 33 36 70 72 66 70 73 68 65 64 64 61 61 58 57 59 60 64 68 69 75 79 83 81 83 77 82 84 90 92 89 87 88 93 93 94 93 94 96 90 87 87 69 77
39 49 45 41 36 36 43 51 73 69 71 74 72 66 65 64 62 59 56 54 52 54 57 61 66 75 77 82 84 86 85 87 86 89 90 87 92 88 91 93 89 92 95 94 90 81 81 80 73
34 40 41 36 30 32 40 47 75 70 71 75 74 72 68 65 60 55 55 52 51 54 55 60 64 72 76 89 86 87 84 86 88 87 82 85 89 89 92 94 92 94 94 87 80 85 76 74 77
24 29 35 30 28 30 33 41 63 70 70 69 72 71 68 62 60 57 56 52 55 57 53 60 61 68 75 68 70 81 82 85 83 82 84 84 84 89 90 93 94 92 94 91 90 86 90 80 78
25 27 28 30 31 31 38 49 57 68 64 63 64 64 62 60 60 57 56 54 51 62 59 59 59 62 69 67 85 96 89 87 88 87 89 88 85 88 90 91 93 94 95 95 92 90 82 70 82
34 22 21 24 31 43 30 52 77 69 71 65 65 64 62 59 56 56 54 55 52 59 61 60 58 60 67 73 72 82 70 70 78 87 86 90 87 87 89 89 90 92 97 94 94 89 91 73 76
26 21 23 24 33 52 31 43 66 63 70 68 62 61 59 58 55 56 54 51 51 51 61 61 61 62 64 75 64 70 73 75 96 90 83 94 94 88 87 90 91 94 97 93 93 93 92 73 73
22 24 29 34 38 40 28 39 42 64 58 60 56 53 52 53 52 51 51 49 51 49 58 62 66 66 64 72 70 69 70 91 94 94 89 92 96 89 91 89 93 92 95 95 93 93 92 91 85
26 35 46 50 49 40 32 38 30 46 45 45 54 49 45 49 50 48 54 52 52 51 60 62 68 69 67 73 71 72 71 81 82 89 88 92 95 97 92 95 96 96 94 95 95 94 95 94 90
33 33 54 60 58 41 32 39 32 30 36 39 38 41 40 46 48 47 47 50 50 51 57 60 68 68 69 74 72 72 71 73 73 77 85 80 77 78 78 88 90 91 93 94 95 97 97 93 96
38 37 31 39 35 33 32 24 17 22 32 42 42 39 41 42 43 43 43 44 46 50 52 61 66 66 69 71 71 72 72 73 73 79 76 77 83 80 84 82 89 94 94 94 95 97 96 97 96
30 28 42 36 46 39 31 23 24 19 19 31 45 42 39 39 44 42 41 41 44 49 52 57 60 64 67 68 68 71 72 73 71 78 83 83 80 82 82 86 84 93 95 94 96 96 95 96 98
30 32 34 35 35 37 34 24 19 17 16 17 34 35 37 41 42 39 38 38 39 48 54 57 59 61 65 68 68 70 73 73 71 78 83 84 82 84 90 90 88 91 92 93 94 95 96 96 96
39 29 25 33 41 33 32 24 14 13 13 15 14 25 30 36 40 36 36 37 39 40 53 57 58 59 60 66 68 70 73 77 79 79 80 80 87 86 81 92 89 88 88 89 89 89 87 96 96

GFSSGP_sfc_rhum_048.txt.gz
RH
73 72 84 95 100 98 93 83 71 85 77 60 51 58 69 81 76 91 90 90 90 93 90 80 81 78 79 77 80 78 78 78 78 77 76 76 76 76 75 74 73 74 74 71 69 71 70 66 69
76 77 91 97 98 99 90 75 86 75 63 54 58 64 75 94 79 96 97 90 89 94 94 83 83 81 77 78 80 77 77 78 78 77 76 75 76 74 72 73 73 71 72 71 68 68 68 68 69
76 71 98 97 97 94 90 77 78 71 60 53 69 68 76 89 83 88 86 89 91 96 96 82 81 81 76 78 78 76 78 77 76 75 75 74 76 75 73 72 72 74 72 69 70 68 68 67 67
80 93 98 98 92 78 84 82 74 73 70 55 68 87 79 66 76 84 86 88 95 95 93 79 79 75 76 79 79 75 77 77 77 75 76 74 73 72 72 72 73 72 71 70 70 69 68 68 70
77 92 97 96 83 75 84 79 71 66 67 73 65 90 90 76 79 83 85 88 94 97 91 79 81 78 75 79 76 74 75 76 76 77 75 73 71 70 73 73 72 71 71 71 69 69 67 67 67
94 93 96 93 80 68 76 79 78 64 78 77 83 85 88 85 86 83 86 91 88 94 92 85 78 79 76 76 76 75 77 75 76 77 75 74 74 73 72 71 72 71 70 69 68 67 67 68 67
89 96 87 78 80 74 74 72 73 73 79 73 69 89 93 90 82 84 89 91 92 92 92 93 84 81 74 74 74 75 76 76 77 78 76 75 74 73 72 71 70 70 70 66 64 66 67 69 68
81 88 86 84 84 78 80 72 64 71 70 57 61 92 97 86 82 84 90 98 98 97 96 98 91 88 89 82 73 72 75 75 75 75 75 74 73 72 72 75 73 69 68 66 63 66 70 69 69
59 88 85 78 82 75 71 70 68 65 71 55 57 72 72 78 78 91 93 94 95 97 98 98 95 95 94 90 79 76 74 74 74 76 80 86 91 87 81 74 69 68 68 67 68 68 72 72 69
86 97 77 61 57 72 66 61 74 74 70 65 72 73 76 75 86 84 84 85 84 92 96 98 97 97 95 81 90 91 84 89 92 93 90 94 90 90 81 78 67 65 70 66 68 70 68 70 80
84 93 68 52 50 54 55 60 63 69 77 66 81 85 78 78 86 78 78 78 80 75 86 98 98 97 96 92 95 95 95 94 96 88 90 91 91 92 91 86 92 89 76 78 80 82 76 76 76
92 75 71 54 45 51 54 59 62 64 66 56 67 74 75 79 86 76 77 80 90 78 82 97 97 98 97 96 96 95 95 95 95 91 85 93 95 93 94 93 88 90 86 86 86 88 82 73 78
78 66 60 56 57 58 50 56 64 64 57 55 62 69 74 75 82 76 76 83 90 84 92 97 96 97 97 96 97 96 95 94 92 94 85 91 92 92 88 90 93 89 91 92 93 90 80 77 69
51 53 53 49 50 52 54 53 62 67 56 60 64 69 71 71 75 84 87 89 92 90 93 94 93 95 96 96 97 95 93 91 92 90 83 88 92 92 92 94 93 91 89 89 92 90 84 80 71
44 44 37 38 46 46 41 68 66 62 57 62 63 64 68 66 68 79 83 85 85 84 88 92 91 92 95 95 94 93 90 84 89 89 86 84 89 91 91 93 90 88 91 86 88 80 80 76 69
38 44 56 42 40 39 44 64 76 63 65 67 61 59 62 62 68 70 73 78 81 82 88 87 74 84 93 94 91 88 88 87 87 88 90 84 88 91 92 92 91 88 88 94 95 90 80 78 72
36 63 55 48 37 39 44 76 77 68 71 73 65 59 57 59 65 67 67 73 76 78 84 86 81 85 89 92 89 86 84 86 86 88 89 88 86 87 92 91 90 91 93 94 93 88 82 78 76
45 48 50 47 38 43 49 64 82 73 75 76 72 66 62 63 68 64 63 66 70 73 77 80 80 88 91 92 90 88 87 86 87 89 89 89 88 88 90 93 91 89 90 90 83 86 81 80 76
38 45 43 39 32 49 50 65 84 78 76 79 76 73 70 65 64 63 62 61 65 69 74 77 81 90 88 95 91 91 89 88 89 89 89 89 89 90 92 93 91 92 93 86 81 81 77 75 76
32 34 40 34 33 40 46 50 76 79 79 75 76 73 71 66 63 64 63 61 61 66 69 76 78 87 83 81 87 86 87 86 85 87 88 87 88 91 91 93 92 92 92 92 86 83 86 76 77
33 36 32 40 30 31 38 46 74 76 73 70 70 70 66 65 65 64 65 62 59 64 67 72 76 80 82 84 89 93 88 88 87 87 88 87 86 89 92 91 92 94 96 96 90 86 82 74 80
45 27 27 26 36 44 36 57 71 85 82 76 73 72 69 66 62 63 61 62 60 62 62 68 73 77 79 83 84 87 83 80 86 86 86 88 87 87 89 90 89 92 97 95 92 85 85 79 79
25 26 26 26 35 41 31 38 46 78 94 81 72 68 66 63 61 61 60 58 56 60 63 63 72 75 78 82 80 78 80 82 88 87 86 90 92 89 86 90 90 90 94 93 93 91 90 76 78
26 30 31 37 39 45 33 31 43 78 74 77 68 65 62 60 59 57 56 56 57 55 63 66 74 76 78 81 80 82 81 87 91 91 86 88 91 90 90 89 91 91 92 92 92 91 90 87 80
29 33 52 52 52 44 38 32 38 33 58 59 65 62 59 58 57 57 59 57 58 59 66 68 74 76 76 79 80 79 78 85 85 87 86 90 90 93 92 93 93 90 91 91 91 92 92 90 84
32 36 54 62 62 41 42 47 37 22 37 46 47 53 53 55 56 55 56 57 57 58 61 68 72 74 76 77 81 80 78 75 76 83 86 82 84 86 88 89 90 90 90 90 92 88 88 90 88
38 40 34 49 54 50 36 37 22 29 27 46 45 45 52 50 52 55 53 53 56 57 60 68 71 72 74 72 76 79 78 78 78 85 85 84 88 79 85 87 89 89 89 90 93 89 90 92 90
36 30 45 52 61 53 44 31 37 30 32 38 49 46 45 47 45 48 50 50 53 51 54 62 65 70 70 72 72 71 75 78 77 84 86 87 85 84 86 87 88 89 90 90 93 92 90 92 92
34 39 47 38 45 54 48 36 26 28 25 23 30 47 44 44 44 46 48 46 50 50 52 59 62 68 68 71 73 73 74 76 77 82 83 84 84 86 87 88 87 87 89 91 92 92 90 91 92
51 51 43 43 52 45 47 39 20 19 20 21 18 31 44 42 43 43 42 44 45 49 50 53 61 62 64 70 74 73 75 77 77 82 84 84 85 85 86 88 88 87 87 89 91 90 87 90 90

GFSSGP_sfc_rhum_051.txt.gz
RH
66 71 68 84 91 82 80 74 74 70 63 47 43 46 54 64 62 70 59 57 54 61 58 66 80 78 79 80 80 78 78 78 77 77 76 75 76 75 73 71 72 74 70 69 72 68 65 71 73
59 74 87 94 93 83 80 71 84 60 53 45 51 52 59 74 69 79 69 58 54 55 50 59 84 80 77 79 80 79 76 77 77 76 76 75 74 74 73 72 69 70 72 69 68 68 68 68 68
66 65 98 98 90 81 85 74 86 65 47 48 61 58 65 81 71 65 57 57 53 59 54 63 82 79 78 78 78 78 77 76 75 75 74 74 74 72 73 71 68 70 68 69 69 68 67 67 68
65 85 92 91 86 76 85 77 65 66 51 44 56 70 67 62 64 60 60 56 51 58 50 71 79 75 78 77 77 77 76 74 75 74 76 75 74 72 72 71 71 71 70 68 67 67 70 67 66
67 89 86 86 82 73 77 82 67 64 58 59 55 78 89 73 63 62 61 53 53 52 55 59 80 78 79 76 75 77 76 74 75 76 74 73 72 70 72 72 71 70 70 68 68 68 68 67 67
88 87 79 82 77 69 63 65 77 59 80 68 68 73 84 68 70 65 55 54 51 51 51 58 75 77 78 76 74 76 76 74 75 75 76 76 73 73 72 72 71 69 66 66 65 66 67 67 69
78 76 81 69 74 69 64 72 74 69 74 70 58 72 85 74 68 64 55 55 53 50 56 57 60 67 75 76 74 77 76 76 74 78 78 75 74 72 72 70 70 68 66 64 64 67 68 68 68
64 68 72 65 72 69 66 60 61 66 73 53 52 71 91 73 73 63 58 56 58 53 57 61 67 55 59 59 74 75 75 76 76 76 75 74 72 71 71 75 72 68 63 63 65 67 68 69 72
55 71 66 63 66 66 66 62 57 57 61 50 50 55 56 66 71 66 62 60 64 58 60 55 60 62 68 64 67 68 74 75 74 73 81 77 61 58 56 69 68 67 68 65 64 66 69 70 70
70 78 60 54 56 65 54 56 58 67 58 58 61 56 62 67 69 68 62 61 61 60 61 55 61 62 62 55 66 67 61 57 61 64 71 65 66 65 57 65 68 68 68 68 70 66 68 58 46
65 68 53 46 46 51 63 55 54 59 62 55 67 71 72 69 64 64 56 62 57 57 61 62 65 71 64 66 62 62 61 63 68 72 70 71 66 65 56 56 58 58 65 48 54 55 45 50 45
72 61 54 52 42 45 49 46 56 54 50 46 55 62 66 65 59 57 54 63 58 62 64 65 64 72 68 65 62 62 61 61 59 64 72 72 62 65 68 54 59 63 55 63 59 52 58 56 55
62 60 52 54 46 43 42 44 47 52 49 47 55 61 61 58 55 53 53 57 57 60 63 67 68 74 75 77 66 64 66 60 58 62 63 64 62 66 61 62 60 62 60 59 61 60 55 59 56
45 54 52 45 41 40 43 38 46 54 48 55 60 61 58 56 53 56 57 61 62 60 66 66 70 72 73 72 78 71 66 62 62 60 56 67 61 69 65 66 63 64 59 58 60 62 54 52 48
38 48 40 34 33 37 34 46 52 52 51 59 60 60 57 54 52 56 56 60 61 60 64 67 69 68 75 75 74 67 63 58 58 56 64 63 66 72 73 64 63 60 66 68 62 61 56 48 48
28 31 41 34 31 32 34 42 54 50 52 59 59 59 59 54 52 54 54 56 58 59 69 68 58 62 68 69 69 61 58 58 59 60 63 67 68 72 74 68 60 63 63 61 58 53 49 48 52
28 23 37 40 31 31 34 40 58 50 51 57 59 58 57 56 54 56 54 57 58 62 67 70 67 64 66 72 65 62 64 60 58 59 59 70 69 68 68 74 68 69 64 63 58 56 52 48 47
24 24 35 42 31 31 36 38 60 54 52 55 56 55 56 53 52 53 54 55 57 62 65 67 65 69 73 68 72 60 56 58 59 59 59 68 66 67 70 80 70 67 69 67 56 66 70 53 50
29 30 28 32 29 34 35 36 58 59 56 57 53 53 53 51 46 48 51 52 58 63 67 70 72 75 70 68 63 60 57 58 59 61 67 70 67 70 75 64 68 66 82 75 65 59 65 55 56
24 30 30 27 27 29 35 34 44 59 59 57 55 51 49 46 45 49 52 51 54 62 68 73 73 76 74 64 67 59 62 58 58 62 67 67 67 71 71 73 68 78 72 74 69 67 52 53 53
22 24 29 28 24 24 27 32 40 54 56 56 52 52 46 46 46 50 52 52 52 59 67 71 75 76 74 71 67 71 68 66 62 64 62 64 67 69 74 74 69 80 83 61 70 65 63 47 55
19 17 25 27 26 34 27 40 34 42 61 60 55 54 50 49 46 48 50 51 51 55 60 67 73 75 72 77 70 77 60 59 55 59 58 62 68 68 70 74 73 76 71 80 68 64 62 60 52
17 15 16 22 29 28 27 34 30 39 51 56 55 52 50 49 48 48 50 51 49 51 56 61 72 78 74 78 75 67 69 56 58 56 69 72 73 70 65 72 74 74 67 84 77 79 76 58 50
15 19 18 16 19 38 31 30 30 37 42 45 49 49 50 49 48 48 48 49 51 50 53 57 74 80 77 77 77 80 76 70 63 64 58 57 57 61 70 68 74 74 70 76 72 76 76 70 59
20 19 28 32 26 29 26 31 30 24 30 31 41 49 48 48 49 49 52 52 53 54 57 58 70 77 76 74 74 76 76 77 76 71 58 60 55 58 67 74 76 68 75 72 74 79 74 73 65
24 21 21 36 22 16 24 34 27 20 19 25 29 36 42 46 45 47 49 51 55 55 58 61 67 74 74 73 77 77 77 59 59 66 54 54 51 53 63 70 69 71 72 71 75 67 66 70 66
24 29 16 18 27 23 15 24 21 20 19 18 24 32 40 44 44 46 46 48 53 54 57 63 67 71 70 65 73 77 75 73 63 69 69 56 66 51 63 66 69 69 70 72 75 65 73 72 73
22 20 30 26 32 33 20 21 22 26 21 21 24 26 35 40 43 43 44 46 49 48 52 57 61 68 67 66 67 67 70 73 70 70 73 69 62 66 60 67 67 68 70 72 77 68 71 76 65
27 28 26 23 25 26 25 20 17 22 24 20 22 24 26 36 40 41 44 43 47 45 48 51 57 64 64 65 66 67 66 66 68 68 70 71 67 70 69 70 68 69 70 71 76 75 70 76 75
38 31 23 35 39 29 26 18 15 18 17 17 16 18 23 31 37 39 39 43 43 46 46 48 51 52 58 62 68 68 68 68 66 70 68 71 73 68 69 69 70 69 67 69 74 72 63 72 74

GFSSGP_sfc_rhum_054.txt.gz
RH
58 50 41 57 89 55 56 62 52 54 45 35 34 39 41 40 48 76 44 52 41 38 47 58 81 78 78 79 79 77 75 75 75 74 75 75 76 74 70 71 73 70 70 72 67 65 70 71 69
54 68 82 81 86 73 61 52 56 44 39 33 36 37 39 57 48 51 48 42 37 33 38 44 83 81 78 78 78 78 77 76 76 76 75 75 74 72 71 68 69 72 69 69 69 68 67 69 70
45 50 77 91 76 60 66 55 57 43 37 38 51 36 45 59 50 46 38 38 33 33 36 56 80 80 77 78 77 77 76 76 76 76 74 74 73 70 69 68 70 69 70 70 68 68 69 68 69
43 64 93 84 72 54 70 59 55 42 40 43 40 52 53 50 44 39 36 33 31 32 34 70 77 78 77 77 77 77 76 75 74 74 73 73 71 70 70 70 70 69 68 68 68 69 67 65 68
47 70 79 70 69 66 58 57 60 47 44 45 40 57 84 52 44 38 35 31 31 30 38 50 79 78 76 77 76 75 74 74 75 74 74 73 71 72 72 71 70 69 68 67 67 67 66 65 65
71 64 63 58 67 52 66 64 69 53 57 51 49 55 72 55 47 39 32 30 28 31 35 47 75 78 77 76 77 76 73 74 75 74 71 73 74 72 71 69 68 66 66 66 66 66 67 67 71
60 55 56 52 64 51 46 48 59 49 64 57 41 51 66 59 46 36 32 30 29 30 34 41 48 68 74 75 77 76 74 73 73 74 75 75 72 72 70 68 65 64 64 63 66 67 67 69 73
60 46 51 45 64 53 57 59 56 51 58 42 40 54 75 59 48 34 32 31 31 32 33 40 43 47 49 52 76 76 75 72 71 73 74 72 71 67 64 72 68 62 63 63 64 67 68 68 73
45 48 42 42 53 53 48 55 49 49 57 46 42 39 43 52 49 36 36 35 34 35 35 37 35 44 51 51 64 72 75 75 74 72 76 71 40 43 48 67 66 64 62 63 64 65 68 70 71
45 56 39 39 40 52 50 43 42 48 45 44 44 40 49 54 55 39 38 38 36 37 34 35 38 42 45 39 59 54 52 45 44 46 54 42 46 47 44 58 67 67 67 67 64 66 66 66 37
50 51 35 43 43 38 41 39 38 42 44 41 47 50 59 52 49 38 36 36 34 35 34 36 42 48 44 48 46 45 41 44 48 58 54 51 45 44 39 45 45 45 60 40 49 51 40 38 38
41 37 36 37 34 32 37 39 38 39 38 34 40 45 52 47 41 36 35 35 34 37 38 37 43 51 47 45 41 40 40 42 42 46 59 56 44 46 47 39 44 46 39 48 43 38 44 43 43
36 34 39 41 36 31 32 35 35 37 36 35 40 45 46 42 39 35 33 32 34 37 39 39 47 56 55 56 43 41 42 39 38 47 52 44 41 48 44 49 42 43 41 41 44 43 43 49 42
26 27 36 39 37 34 33 31 31 33 36 39 44 46 41 40 37 37 35 37 37 37 40 40 47 56 55 55 59 51 45 43 42 40 44 57 44 52 46 53 45 42 39 39 40 44 39 36 35
22 33 33 37 34 34 28 31 33 36 37 43 44 45 40 38 36 38 36 38 38 37 40 44 47 49 58 58 59 51 45 40 41 42 55 54 56 61 56 48 61 44 50 53 48 46 42 32 32
15 22 34 28 33 30 31 31 33 36 38 44 43 44 42 40 36 37 36 35 37 38 45 46 38 43 53 55 56 45 42 40 40 40 44 53 58 62 65 53 44 47 44 38 38 35 34 33 32
11 15 23 25 25 30 29 29 36 33 34 41 44 43 42 42 38 38 36 36 37 41 47 49 46 45 50 57 52 48 52 45 42 42 43 59 57 62 53 46 50 57 40 38 35 34 34 35 31
13 13 14 22 26 25 27 26 35 34 34 40 44 42 43 41 39 38 36 35 36 42 47 50 46 51 56 51 56 45 44 45 43 43 43 58 53 60 53 48 57 51 40 40 36 45 40 34 32
14 13 14 23 27 26 26 26 35 36 35 41 42 43 42 40 37 36 37 36 37 42 48 53 54 58 55 50 48 47 45 45 44 42 52 56 54 60 60 51 56 49 47 49 54 48 58 38 40
14 21 19 18 26 25 25 25 24 36 36 36 40 41 40 38 36 38 39 37 37 44 49 56 58 62 61 47 49 44 45 41 42 43 53 54 54 58 56 62 57 54 44 56 57 56 40 38 39
14 14 17 19 22 23 25 29 26 30 34 35 35 37 35 36 36 38 40 38 37 44 51 55 62 63 63 55 48 52 50 50 51 49 47 52 54 56 60 63 64 57 50 46 56 59 52 39 42
12 8 11 17 23 28 23 32 28 25 37 37 35 35 33 33 34 36 37 39 37 41 47 54 61 65 62 63 55 68 52 47 40 43 40 45 55 55 56 61 63 60 49 61 52 50 49 52 41
13 9 9 12 20 23 23 29 29 22 30 35 34 33 32 32 31 33 35 39 36 38 41 50 62 69 65 68 64 54 60 40 38 39 54 60 62 57 52 60 61 66 59 60 60 65 63 45 39
12 12 12 12 10 23 24 24 24 22 23 26 29 30 32 32 32 32 32 35 38 37 40 46 63 72 70 66 66 68 66 55 42 50 46 43 42 49 59 56 62 64 56 60 59 61 64 59 51
15 14 19 18 13 12 15 22 23 17 18 19 22 28 29 31 33 34 35 37 39 41 42 45 59 71 68 64 63 64 65 66 61 58 48 50 39 39 52 63 65 56 65 60 72 68 64 65 54
18 16 16 26 14 10 9 17 19 16 15 15 18 20 26 28 28 32 36 37 41 42 44 46 56 68 66 64 70 70 69 48 48 55 43 42 38 38 47 57 58 61 59 59 62 55 53 58 56
18 21 13 13 12 13 8 8 9 13 15 16 16 18 24 26 29 32 34 36 39 42 47 51 58 64 62 58 67 70 68 64 52 60 55 43 52 38 45 50 58 56 58 60 63 52 60 59 63
20 15 20 18 28 26 15 14 10 18 18 16 16 16 19 22 27 28 32 35 37 37 40 46 50 59 59 55 58 57 59 62 61 56 61 57 48 54 48 53 54 54 56 60 66 55 59 63 53
20 22 20 17 18 22 21 13 10 13 14 18 15 15 15 20 25 26 30 32 34 34 37 41 46 53 54 54 56 57 54 54 58 56 58 61 57 56 61 57 55 53 57 59 64 63 55 63 64
22 22 19 25 31 20 20 14 8 10 9 12 14 14 14 16 21 25 26 29 32 36 36 37 41 43 48 51 59 58 57 57 54 60 57 60 64 59 61 59 59 56 54 58 63 62 52 59 62

GFSSGP_sfc_rhum_057.txt.gz
RH
59 44 41 38 88 53 75 58 46 47 42 36 30 33 53 48 53 70 46 46 42 36 46 59 80 76 75 75 76 76 76 75 74 74 74 75 75 71 72 72 70 70 73 66 67 71 68 70 70
34 51 44 82 93 77 72 42 53 44 32 29 28 33 38 47 39 49 48 44 32 31 33 44 84 79 77 78 77 75 74 74 74 75 75 75 72 71 69 69 72 70 70 70 68 67 70 71 72
36 44 78 70 58 71 82 47 46 37 29 36 36 36 43 51 42 40 36 31 27 28 33 61 80 79 77 78 77 78 76 76 76 75 74 73 72 70 69 69 69 71 70 69 69 67 68 69 70
36 51 84 88 64 47 60 52 39 36 34 36 34 46 44 36 38 38 31 26 25 26 35 70 78 76 77 77 76 76 75 75 75 74 73 72 71 69 69 70 69 67 69 68 68 66 66 67 68
39 65 84 68 59 57 44 52 62 41 44 40 40 53 54 43 35 32 30 24 25 27 39 50 79 77 77 77 75 75 75 74 74 73 73 72 72 71 70 70 69 68 67 69 67 66 65 65 68
79 56 64 68 48 54 46 60 65 43 43 41 46 54 58 41 38 31 26 24 23 27 32 50 75 76 77 75 75 74 74 74 74 73 72 72 72 71 69 67 66 66 66 69 67 66 68 71 71
57 78 60 49 45 66 57 60 70 47 46 46 36 55 55 44 36 28 25 23 25 25 34 45 51 65 76 76 74 74 74 74 73 74 73 73 71 69 67 66 65 64 64 65 65 66 68 70 72
55 68 51 49 47 69 46 48 55 47 57 33 34 54 65 46 36 27 25 24 25 27 30 39 45 45 51 56 75 74 73 72 72 73 73 71 66 63 63 73 67 63 62 64 66 67 68 72 73
43 62 60 68 51 47 40 51 48 49 44 39 35 38 42 38 34 30 29 26 28 28 28 29 32 40 48 56 67 72 72 72 74 70 70 70 40 48 48 68 64 62 63 63 64 67 68 72 72
53 45 78 34 39 38 34 42 49 49 39 36 36 37 39 36 36 35 29 28 28 29 26 25 30 35 38 35 58 56 53 47 44 43 55 76 57 54 43 57 66 64 64 64 64 66 66 68 43
34 36 32 32 32 38 42 71 46 41 37 34 39 47 46 36 34 31 28 27 27 27 25 26 34 39 35 46 41 39 51 60 43 48 52 44 41 42 43 46 48 50 63 42 49 52 57 66 47
30 26 34 37 30 36 42 39 36 37 59 31 34 44 43 37 32 28 28 27 28 29 27 27 34 41 40 38 44 56 71 40 36 42 48 49 62 60 62 74 49 67 53 44 71 86 62 52 80
25 26 31 30 31 32 31 30 76 42 29 29 35 44 42 36 31 28 27 26 28 29 28 30 38 47 46 66 66 44 36 31 33 44 46 42 66 64 62 48 81 68 62 33 66 48 50 39 39
17 19 38 38 27 28 30 30 25 29 28 34 38 42 37 35 30 30 29 29 30 31 31 32 39 47 46 61 60 54 41 45 32 34 42 47 67 66 69 44 70 60 67 60 57 57 48 46 38
15 21 24 36 32 29 24 30 25 32 29 36 37 39 36 33 30 31 29 30 29 30 32 37 41 43 50 56 48 52 64 33 56 33 50 47 54 52 74 47 74 70 52 48 44 38 33 30 39
16 17 28 24 33 26 25 34 22 27 30 36 37 37 36 33 30 30 28 28 30 30 37 39 33 41 47 49 52 47 58 43 61 37 43 50 53 57 58 58 63 40 46 54 72 41 49 31 43
10 16 21 28 30 25 27 46 48 25 28 34 37 35 35 34 33 32 28 29 30 32 38 41 40 43 48 53 48 44 49 58 58 58 59 54 53 55 51 50 54 59 43 61 43 54 48 33 38
11 11 13 24 27 25 26 36 76 24 26 32 36 34 35 33 33 32 29 29 29 33 38 43 40 50 57 52 53 41 43 51 63 60 68 56 62 52 55 68 49 50 53 37 64 43 58 48 54
7 9 12 13 22 27 32 38 80 25 24 33 35 35 35 33 31 31 30 29 29 34 40 46 50 61 52 49 48 44 43 46 56 47 49 54 53 55 58 74 53 52 61 88 48 40 47 33 37
9 11 12 11 18 29 39 33 28 25 26 30 34 34 34 32 32 33 32 30 29 36 42 52 55 64 59 48 53 45 44 36 36 36 50 49 49 57 54 77 52 55 50 54 51 52 66 38 42
10 10 14 15 19 22 28 35 25 29 24 27 29 30 29 32 32 34 34 32 31 37 43 53 61 64 63 58 51 50 46 43 39 49 43 48 49 51 53 56 69 57 63 47 57 54 64 62 35
12 8 8 12 17 23 21 38 36 57 28 28 28 30 27 29 30 32 33 33 32 35 40 52 59 65 62 64 54 66 48 44 38 41 39 45 51 50 51 57 56 62 72 69 57 56 67 68 42
13 9 7 8 12 18 20 27 24 22 34 27 27 28 26 27 28 31 32 34 31 33 38 43 62 68 65 67 63 52 59 40 37 34 59 58 63 52 46 57 57 60 52 60 71 60 63 45 59
10 10 10 9 7 15 19 23 24 30 26 24 23 24 26 25 26 28 30 32 33 31 35 42 63 72 70 68 68 67 65 57 38 43 44 42 43 47 54 51 67 61 57 60 57 61 61 71 52
12 13 18 17 13 12 9 18 20 19 20 24 21 23 24 24 25 27 30 31 35 36 37 42 60 72 71 66 65 65 65 67 63 57 42 47 35 35 59 62 63 56 63 58 59 67 67 61 54
15 13 17 27 14 10 8 13 16 13 19 26 37 20 20 22 22 25 28 30 36 37 40 42 56 70 69 66 70 70 68 46 44 50 39 37 32 33 58 58 54 58 57 58 65 55 54 61 56
15 17 10 13 11 11 7 7 6 11 13 20 20 17 22 22 22 25 27 28 32 36 42 46 53 64 66 60 67 71 68 63 46 55 57 41 49 34 40 50 56 54 54 58 64 50 63 61 60
13 12 16 14 26 25 12 11 8 9 12 13 14 15 23 27 21 22 25 27 29 31 34 40 46 58 61 58 61 61 64 66 59 57 62 57 50 54 46 50 50 55 57 58 67 56 58 63 52
14 16 17 15 14 20 19 12 9 9 8 12 12 14 14 18 20 20 23 26 28 29 32 36 41 50 56 56 59 59 58 58 61 58 60 61 57 58 60 57 56 56 56 59 68 67 56 62 64
11 12 12 22 28 16 16 13 7 7 6 8 12 12 12 14 16 19 19 23 26 30 31 33 36 40 47 52 59 58 59 57 55 60 59 62 65 60 61 62 61 58 54 59 65 62 52 58 60

GFSSGP_sfc_rhum_060.txt.gz
RH
66 50 47 61 81 72 77 87 75 47 40 31 35 45 57 46 70 83 59 47 45 48 62 68 80 78 76 76 78 78 79 78 78 77 76 76 72 74 73 72 72 72 70 69 71 69 72 72 71
38 40 55 79 97 85 79 82 68 42 32 31 35 54 44 53 46 52 52 40 37 45 52 60 83 80 76 77 77 77 76 75 76 77 76 75 72 71 71 71 71 74 72 70 70 71 70 71 73
43 40 86 80 72 84 94 64 57 34 30 37 44 40 42 52 47 47 38 33 31 37 44 68 82 81 78 78 78 77 76 75 76 75 75 74 73 73 71 71 72 70 71 70 68 70 69 72 72
36 51 76 94 75 62 71 64 38 39 36 35 39 49 42 39 41 38 34 28 27 38 50 75 81 78 78 77 77 77 78 76 76 75 74 72 72 70 70 69 69 70 70 69 67 67 68 68 69
44 66 86 74 61 54 46 72 46 49 40 72 43 54 52 45 36 32 28 25 29 44 54 62 81 80 79 78 78 77 76 76 75 75 74 73 72 70 72 71 68 70 69 67 67 67 67 68 69
72 62 75 69 65 50 51 58 58 69 64 88 47 53 54 42 37 30 26 29 34 40 46 60 77 78 79 76 77 76 76 75 76 75 75 74 74 73 70 68 68 68 68 67 67 69 69 69 69
48 78 66 66 64 66 57 52 54 41 55 70 41 58 50 44 36 27 25 30 31 35 47 56 60 72 76 78 77 76 76 76 78 77 77 76 73 70 69 70 68 67 68 66 67 68 71 72 70
56 74 63 57 73 85 54 54 70 63 46 40 39 59 60 44 35 27 26 27 31 36 40 52 56 58 64 65 74 74 75 77 74 75 76 75 71 66 68 74 71 66 66 67 68 70 72 72 70
38 77 78 68 49 80 48 51 71 85 48 39 37 48 41 35 29 29 29 31 35 34 37 39 43 57 70 69 69 73 73 74 75 72 73 74 58 59 59 70 71 65 65 66 66 67 73 71 68
46 77 86 61 44 49 40 38 46 52 40 38 40 38 37 34 31 32 30 36 38 32 31 32 42 48 56 47 72 72 65 62 60 59 76 71 73 62 53 65 71 67 66 66 66 67 68 69 69
32 48 64 45 38 35 41 53 58 44 42 40 49 46 40 35 33 31 29 37 32 28 28 34 46 53 48 62 61 59 61 61 61 69 75 77 66 68 82 69 62 69 69 59 65 66 79 79 78
34 32 35 38 30 28 40 71 67 87 62 33 40 39 39 38 34 29 27 33 33 30 31 33 41 57 55 53 57 77 77 60 51 58 75 71 68 77 94 86 81 88 72 81 77 86 79 87 85
23 25 29 32 32 29 37 72 85 78 72 52 38 39 39 37 34 29 26 27 30 28 33 37 46 69 72 74 70 64 64 59 53 57 62 78 74 90 88 91 86 80 74 74 79 74 70 81 59
17 17 21 29 35 34 39 44 39 68 55 39 42 41 37 36 33 30 29 30 32 31 36 42 46 59 68 72 77 76 57 54 50 52 61 90 86 86 76 81 84 96 80 75 70 66 66 60 60
13 18 19 28 34 48 38 64 52 64 62 42 42 41 36 33 29 30 30 32 32 32 38 44 48 48 62 68 65 68 53 45 48 57 66 59 77 83 86 88 78 72 70 74 68 62 61 64 56
14 16 22 21 32 25 31 48 48 65 48 42 42 39 38 34 28 29 29 29 32 34 47 46 34 45 56 68 65 66 60 60 61 59 63 60 65 77 87 87 92 74 76 60 67 71 58 64 61
13 18 20 21 31 26 26 54 51 61 40 37 38 38 37 38 32 31 28 30 32 40 51 50 50 51 58 73 64 70 69 67 59 60 59 67 66 66 90 90 91 78 83 72 66 68 67 55 62
14 14 14 19 26 25 26 40 52 66 49 36 35 36 37 36 32 32 29 29 32 41 48 52 52 63 67 67 71 72 62 68 69 67 71 68 67 65 77 80 71 74 75 74 67 66 63 66 60
10 9 10 10 18 26 29 58 48 44 42 46 34 35 35 35 32 31 29 29 33 41 49 57 62 72 66 66 64 74 60 72 72 72 82 73 72 67 79 83 71 76 79 78 76 65 64 62 61
13 12 9 9 15 23 41 62 47 33 39 46 30 33 34 32 33 34 32 30 31 43 52 61 65 74 68 66 71 65 70 70 80 67 75 66 71 71 72 77 72 81 87 80 80 86 78 68 66
10 10 10 11 12 18 23 59 61 50 67 67 26 30 30 32 34 36 35 33 33 45 54 60 68 73 69 71 68 73 72 70 65 68 64 64 65 71 75 77 74 78 84 79 75 80 80 78 69
12 8 8 9 13 19 22 48 51 71 74 89 36 28 29 31 32 36 35 35 33 44 50 60 67 74 69 73 68 76 68 71 62 73 66 65 67 67 71 72 72 78 88 80 76 73 78 72 77
12 9 9 8 10 13 17 23 30 56 68 77 54 32 26 29 30 34 35 35 33 42 47 55 67 75 71 73 74 67 72 60 66 58 67 75 78 70 62 73 74 82 85 86 80 76 79 85 74
9 10 11 10 8 12 13 18 19 48 53 68 58 61 26 27 29 34 35 36 35 37 44 53 69 75 75 74 75 77 74 73 64 67 61 66 65 67 72 72 78 79 80 79 80 79 77 82 86
10 12 19 19 16 14 8 10 19 18 35 47 61 76 29 27 29 32 37 37 38 40 46 52 68 75 74 74 71 76 73 75 78 74 65 64 62 60 72 78 82 77 81 79 82 84 80 79 80
12 12 18 28 19 14 11 11 9 10 15 34 40 40 36 25 25 28 34 37 41 40 44 50 67 74 73 74 74 76 76 62 62 68 58 66 56 59 70 72 75 77 78 79 81 79 77 80 79
15 16 10 14 12 15 11 9 7 6 10 17 31 33 54 60 46 28 32 34 40 41 45 51 64 71 72 68 75 74 75 72 61 71 70 60 68 58 68 70 73 73 75 77 85 79 85 81 82
10 10 16 16 27 28 16 16 10 11 10 14 32 38 52 54 62 54 28 32 36 37 40 45 55 68 70 70 70 69 68 72 70 66 74 68 67 66 75 73 72 72 74 75 81 77 79 84 81
12 14 14 14 16 22 22 16 12 15 11 13 22 36 50 45 66 88 68 28 32 35 38 41 47 63 68 68 70 70 69 65 67 67 66 72 67 74 71 71 72 73 73 75 80 80 76 78 82
11 14 12 18 27 21 18 14 9 10 9 8 9 13 33 42 60 75 80 51 30 34 36 40 42 46 59 66 69 69 69 68 65 65 67 69 71 69 75 74 75 73 72 74 77 77 66 76 77

GFSSGP_sfc_rhum_063.txt.gz
RH
76 68 60 70 95 92 90 95 68 72 45 38 36 47 59 54 60 87 69 63 61 72 79 77 82 78 78 81 80 80 79 77 79 78 78 74 76 75 74 74 71 71 73 71 71 73 72 72 73
63 55 64 90 98 97 91 86 84 48 45 48 45 45 52 68 57 72 69 57 64 74 77 77 85 81 78 80 81 81 77 77 78 79 79 76 74 73 72 72 74 72 74 72 71 72 71 72 76
49 45 87 95 95 94 92 91 83 43 41 45 59 44 51 68 62 65 53 54 62 70 73 77 84 82 78 78 79 80 78 76 78 77 76 74 74 72 73 71 70 72 70 71 70 70 72 72 73
65 62 86 96 87 88 85 87 85 45 48 49 54 60 52 48 53 48 45 51 60 74 80 82 82 79 78 79 79 77 78 78 77 77 75 74 73 71 70 71 71 70 69 68 68 70 69 71 71
63 78 95 94 86 82 77 80 88 65 70 56 52 64 63 50 43 41 38 49 68 80 81 80 83 81 79 78 78 78 77 76 76 78 74 73 72 74 71 69 71 69 68 68 67 68 68 68 68
84 82 90 91 70 77 66 62 63 69 74 66 58 61 60 45 45 40 38 59 66 73 79 77 80 80 79 77 77 78 76 76 77 76 74 74 74 72 70 69 69 69 68 68 69 68 68 68 68
73 85 82 76 72 74 81 57 70 62 66 54 48 67 59 47 42 36 50 54 58 67 76 82 80 77 77 79 77 77 77 76 76 75 75 74 71 70 69 70 69 68 67 67 68 69 69 70 67
68 81 83 72 76 74 70 66 62 58 70 60 45 67 64 46 42 38 43 48 61 68 71 76 83 84 84 81 76 76 77 77 76 76 73 72 70 68 68 77 73 67 67 67 68 69 71 68 67
44 87 87 77 67 65 59 67 65 74 77 51 53 51 46 41 37 36 44 51 59 59 62 70 75 82 87 84 76 78 76 75 76 77 72 76 78 76 72 74 71 67 67 67 68 70 71 70 70
60 85 72 57 65 60 49 53 58 64 62 71 60 45 43 42 39 40 48 53 54 61 62 60 70 75 76 65 86 88 79 86 90 85 83 88 84 79 72 74 72 66 67 67 68 70 75 75 86
39 59 64 62 54 58 82 71 60 69 55 72 65 52 46 45 38 43 43 46 48 52 52 55 63 69 67 75 86 88 87 87 82 85 81 85 81 85 90 87 79 82 73 73 72 77 91 88 93
40 36 56 52 44 58 76 67 67 79 85 74 51 46 44 43 37 41 42 39 38 43 50 54 60 62 66 74 78 87 83 84 80 80 84 94 89 82 92 92 90 91 87 85 90 90 92 83 87
30 32 40 38 37 57 59 62 68 73 73 69 49 44 44 40 37 41 37 38 38 41 49 52 65 70 70 76 79 77 80 78 74 76 83 94 95 94 94 95 93 88 88 88 86 88 84 92 76
22 20 26 37 43 54 62 69 64 66 82 76 47 45 42 40 38 37 41 41 34 43 47 65 65 71 76 75 78 78 72 69 67 77 69 81 95 96 95 89 90 95 92 81 88 85 79 79 69
16 19 16 38 44 52 55 77 61 73 70 69 49 44 42 40 38 34 39 36 37 44 46 64 65 57 80 70 75 78 66 57 73 72 81 85 90 87 91 94 95 91 90 79 78 70 72 72 67
18 20 29 22 38 42 51 78 72 71 78 76 46 43 42 42 38 34 34 36 41 49 54 51 48 68 72 69 80 74 69 72 66 72 75 77 82 86 92 90 90 83 83 66 63 68 66 71 74
25 28 24 23 37 37 52 75 82 68 81 67 49 44 42 42 38 36 33 38 44 49 54 56 56 67 66 74 75 73 65 74 71 74 75 73 75 85 90 88 89 88 87 77 65 73 63 69 74
32 24 20 21 34 35 47 76 77 79 92 72 51 45 42 40 35 38 32 36 50 50 52 63 57 70 71 77 75 74 64 79 81 80 76 80 76 79 89 91 85 89 79 70 81 64 67 67 60
20 21 18 14 19 36 54 81 83 74 73 92 80 47 42 40 33 36 32 37 50 52 54 67 71 71 78 86 85 84 84 77 86 79 82 80 77 79 86 89 83 86 75 83 82 78 76 62 62
18 20 20 15 10 36 56 69 72 75 76 81 80 46 43 38 36 35 37 38 48 55 53 70 69 74 78 80 82 78 80 78 83 83 82 84 76 78 80 82 86 78 84 81 78 80 76 80 66
18 22 18 16 11 37 59 73 65 60 58 71 87 60 49 39 40 37 38 40 47 54 61 67 73 74 75 76 81 89 82 81 82 90 82 87 80 77 84 81 88 85 90 91 83 72 83 84 78
23 14 11 10 14 22 36 82 69 64 76 75 78 76 62 39 38 38 39 39 48 52 55 70 74 74 77 78 80 80 74 79 74 75 80 81 79 79 78 80 82 91 90 88 81 81 82 79 79
16 13 14 15 16 18 13 24 60 57 78 77 76 86 56 46 37 39 37 37 45 51 53 66 77 73 66 76 76 80 82 72 80 67 70 86 89 80 77 79 82 87 88 88 86 80 82 89 91
12 14 16 18 22 26 16 18 47 70 62 77 61 54 49 44 37 38 36 37 41 50 52 61 79 74 71 76 88 80 80 79 67 66 85 76 91 83 88 79 85 86 90 87 86 87 80 85 89
15 34 34 39 31 30 18 18 15 58 54 51 55 54 57 42 36 40 40 39 41 53 55 60 72 81 72 74 75 91 80 79 82 85 67 69 77 86 87 83 89 88 86 88 89 87 89 88 87
21 21 33 40 38 30 19 29 18 35 48 47 49 53 51 61 47 39 40 38 40 50 56 60 66 72 74 71 73 82 90 71 84 81 78 66 68 64 79 81 84 86 88 85 90 88 90 86 92
21 29 17 25 21 29 24 20 12 11 44 51 46 51 52 65 75 56 40 39 39 46 52 59 67 66 73 73 67 76 90 76 79 75 79 73 70 68 78 82 80 85 87 88 87 89 92 90 91
13 16 27 27 34 39 28 25 26 20 13 41 55 59 66 76 79 82 75 50 46 39 48 52 65 68 70 70 70 65 72 85 82 76 80 75 67 71 79 80 76 83 86 84 89 86 89 89 86
19 22 24 24 31 34 33 27 17 17 22 44 46 52 59 64 78 82 84 72 68 54 42 50 63 67 69 68 72 67 64 74 81 82 70 81 73 82 79 82 87 84 82 88 91 86 87 88 88
14 18 23 33 33 35 39 31 16 16 15 28 34 38 53 58 59 77 75 73 74 70 41 44 53 66 67 69 66 72 68 65 71 78 84 67 78 81 79 77 78 83 84 87 88 87 77 84 89

GFSSGP_sfc_rhum_066.txt.gz
RH
77 72 70 76 94 94 93 91 91 87 60 43 43 46 58 65 71 83 82 79 82 83 80 79 82 78 80 80 81 79 77 75 79 78 76 77 75 75 75 70 72 73 70 72 72 73 73 73 75
76 69 73 93 98 98 89 78 82 72 56 44 46 48 57 73 68 80 84 75 73 83 83 81 84 82 79 79 80 80 76 76 79 76 77 76 74 74 75 74 74 73 72 74 73 71 73 74 73
65 56 89 96 97 94 91 85 90 58 45 48 58 51 59 80 72 77 69 75 77 84 82 80 83 82 78 81 80 80 77 77 77 76 75 74 74 73 70 72 72 72 73 71 72 72 72 74 73
63 70 85 99 91 87 85 90 92 76 61 58 56 69 58 58 69 63 72 73 81 82 83 81 80 77 76 78 77 77 77 78 78 76 75 75 72 73 71 70 70 69 70 73 70 70 72 71 72
76 85 96 97 85 86 79 78 86 70 69 65 54 70 72 59 56 65 67 72 85 88 84 82 84 82 79 77 78 78 77 77 77 75 73 73 72 70 72 71 69 68 68 68 68 69 70 72 75
86 87 96 93 82 82 77 80 70 70 67 62 62 65 72 53 61 63 71 81 80 88 87 81 81 80 80 78 78 78 77 76 77 76 73 74 75 72 71 70 69 68 68 68 68 68 69 71 71
84 91 88 79 81 90 87 79 72 68 66 60 52 66 64 56 51 67 75 77 82 84 87 88 82 78 78 80 77 77 77 77 76 75 76 72 71 70 70 70 69 67 67 67 68 68 68 70 69
76 85 79 77 78 77 74 68 60 57 61 47 46 65 71 55 62 67 69 78 82 86 86 94 93 90 91 82 77 76 76 76 76 74 72 72 71 69 70 76 73 68 67 67 69 71 71 70 69
53 89 86 70 73 75 67 66 71 72 70 52 56 50 48 52 60 65 76 79 82 84 89 93 92 94 94 88 78 79 76 76 76 75 71 78 84 80 76 74 72 68 68 68 69 70 72 74 69
70 88 68 57 65 65 67 63 67 75 74 57 60 44 44 54 57 70 78 83 82 85 88 87 91 93 90 72 90 93 82 92 94 90 88 92 90 88 79 73 70 68 68 68 70 72 73 81 88
58 66 53 53 56 60 63 67 60 63 81 85 83 52 48 52 56 62 69 71 74 74 77 80 83 86 85 86 96 96 94 95 91 88 90 89 88 90 91 89 87 85 75 78 77 74 88 82 91
59 41 39 51 51 63 64 72 71 76 88 81 68 46 48 46 56 56 61 64 69 70 69 75 78 81 86 88 91 96 93 93 89 89 90 95 92 92 97 95 95 93 91 87 90 92 86 86 87
43 38 36 41 53 59 66 71 68 74 83 71 60 45 48 48 49 50 51 54 63 65 63 71 75 76 84 89 91 91 93 90 83 86 91 92 96 95 96 96 94 90 90 91 83 91 87 90 76
32 29 24 49 59 64 67 64 64 64 72 69 58 48 46 45 47 47 46 50 57 57 60 67 71 75 85 91 91 88 84 81 80 86 82 90 96 96 95 91 90 94 93 94 89 90 88 88 82
27 25 18 51 63 63 58 75 64 76 70 68 66 47 46 44 43 45 41 45 50 54 64 68 73 77 82 86 83 76 77 73 79 80 72 89 94 92 94 93 94 92 93 86 87 86 86 82 72
26 28 31 44 53 62 56 80 83 71 78 76 55 47 46 48 43 42 40 45 50 57 68 62 56 72 74 77 81 75 74 75 80 84 83 90 89 90 94 94 94 92 90 88 79 80 79 78 78
34 37 27 27 46 61 59 85 75 75 75 76 55 47 45 48 48 40 40 46 49 59 64 66 70 73 74 84 77 72 76 78 76 82 83 88 89 90 93 93 94 92 93 81 68 77 70 79 79
40 37 27 24 39 61 65 78 83 76 76 70 60 48 47 46 45 40 40 46 49 56 57 64 69 74 73 82 82 79 82 80 80 80 81 85 86 80 92 88 87 86 81 81 85 69 75 75 75
28 28 27 22 18 64 65 92 85 87 75 80 80 57 48 45 39 38 40 47 51 53 60 64 73 77 82 85 90 88 84 90 91 85 84 87 85 87 89 92 87 90 85 87 76 78 73 66 70
28 29 27 20 26 47 75 90 84 87 76 75 72 61 55 43 42 38 45 48 50 54 63 65 67 76 81 81 86 82 84 85 91 84 88 83 81 85 86 90 89 79 82 87 80 78 79 84 72
32 33 26 24 46 65 80 95 88 85 67 74 70 66 61 47 48 38 47 51 49 53 68 66 71 72 83 80 87 94 90 84 88 92 88 90 80 83 85 87 90 90 91 90 83 79 84 81 80
38 20 18 16 18 48 60 92 90 88 80 85 81 78 78 53 39 41 43 55 52 52 60 68 72 74 80 80 85 88 87 85 81 88 86 87 85 83 84 83 86 90 92 90 85 84 87 78 79
26 17 18 21 24 22 37 52 55 78 92 91 87 73 70 66 44 39 42 50 52 51 57 73 74 74 72 75 73 80 87 81 81 85 84 91 93 85 80 85 87 90 87 90 87 85 92 90 91
14 20 20 26 27 33 25 20 49 75 64 83 85 70 65 55 48 38 40 45 50 54 56 74 75 74 75 81 84 79 83 86 88 84 89 94 95 89 88 84 90 90 91 89 90 89 87 91 93
18 26 35 36 34 33 29 23 19 62 51 65 72 69 52 45 49 41 41 49 51 55 59 73 76 76 72 78 92 82 79 84 84 82 76 80 89 93 92 89 93 92 90 90 92 92 92 89 91
29 24 33 40 38 37 26 28 17 23 45 46 56 55 51 53 46 41 39 44 52 53 55 68 76 74 71 73 77 94 82 81 82 85 73 70 72 74 86 83 89 90 89 91 93 91 92 91 94
18 30 24 31 54 33 30 24 20 20 41 49 48 55 55 53 54 40 39 41 54 54 55 59 75 71 70 69 69 75 90 91 85 85 83 74 70 73 86 83 85 88 91 89 93 94 93 94 93
20 18 23 34 44 46 35 32 29 29 39 56 52 61 58 59 73 47 46 44 48 53 53 56 63 69 72 68 65 65 71 87 84 83 83 85 79 80 85 89 84 88 90 91 94 92 92 95 94
22 23 25 29 36 41 41 32 30 45 41 43 56 53 53 68 70 65 65 67 55 51 54 57 59 64 73 72 67 64 64 72 95 81 75 79 80 77 80 83 83 84 90 90 96 92 89 93 91
20 26 30 39 35 43 42 37 33 37 38 39 51 49 48 61 62 62 62 65 67 52 52 57 60 61 62 69 70 68 64 67 76 91 77 75 82 85 84 84 83 81 84 92 93 93 84 94 92

GFSSGP_sfc_rhum_069.txt.gz
RH
80 76 75 80 94 98 95 85 86 79 66 52 46 52 64 71 73 85 88 88 78 82 85 81 81 77 78 80 79 77 74 78 77 76 76 74 76 73 74 72 71 74 74 72 73 74 74 74 74
80 73 80 94 95 98 93 72 91 79 65 47 47 55 65 80 74 91 95 82 76 85 90 85 84 82 79 79 78 76 74 79 76 77 77 75 75 74 72 73 73 70 72 73 72 72 73 73 72
74 62 94 97 96 97 96 82 80 66 50 50 66 58 69 86 82 82 84 78 79 87 90 82 82 81 79 78 77 76 75 78 75 77 74 74 73 73 73 72 73 71 72 72 72 73 73 72 73
67 76 89 99 93 86 82 84 82 78 62 69 67 81 70 66 70 78 76 77 89 88 88 79 78 77 79 78 78 76 75 76 75 75 74 74 72 70 72 70 70 73 70 72 71 71 71 71 71
80 89 96 96 86 84 76 73 83 83 72 69 63 86 87 72 75 77 80 82 90 92 87 80 80 78 78 78 77 76 76 77 77 74 73 71 72 72 71 70 68 68 69 69 69 71 74 71 69
88 89 98 93 81 79 86 74 82 82 73 69 72 74 84 77 81 80 79 84 83 91 92 87 80 77 76 75 77 77 76 76 76 74 74 74 70 73 72 70 69 68 67 67 70 70 75 73 71
91 96 91 82 90 95 90 92 81 73 65 64 60 79 87 83 75 79 83 84 87 88 94 93 88 79 77 78 78 76 76 76 75 74 76 76 73 71 70 70 68 66 67 67 68 70 72 71 71
85 89 86 79 83 84 80 78 66 64 63 47 49 83 95 80 79 82 83 90 95 94 93 96 94 93 91 85 76 75 77 76 74 75 71 72 69 70 71 75 72 67 67 68 70 71 71 69 71
60 92 90 70 76 86 75 75 83 69 58 45 60 62 65 76 79 86 89 85 91 93 98 97 97 97 95 90 79 74 75 73 72 74 73 80 92 84 79 75 70 68 68 68 69 69 69 69 68
78 94 75 60 64 79 69 72 79 73 64 63 56 55 71 76 82 88 92 90 91 94 99 98 97 97 95 78 94 93 85 94 94 91 90 93 92 90 80 74 69 68 69 69 71 68 70 77 87
80 80 59 58 56 60 64 68 76 73 88 76 64 69 74 76 79 81 84 88 93 95 92 97 97 96 94 94 98 99 97 97 96 92 94 93 91 95 93 93 89 89 77 90 78 81 91 88 92
69 49 56 48 54 61 66 70 75 70 81 72 68 63 68 72 76 76 78 80 88 91 87 91 94 96 95 98 99 98 98 97 94 92 92 98 97 96 96 97 94 93 92 88 93 94 90 90 87
57 47 40 39 50 60 66 70 75 85 87 77 62 58 63 66 69 68 68 70 76 85 85 87 91 94 96 97 98 98 97 96 90 93 92 95 95 96 96 96 96 92 93 91 77 90 85 88 77
40 39 36 34 61 65 65 70 60 76 81 78 76 56 56 59 61 61 65 72 74 73 80 85 87 89 95 97 96 98 96 93 88 89 92 92 95 96 97 95 94 95 94 94 90 89 85 89 86
38 43 28 67 71 70 62 73 67 68 72 86 64 50 49 55 52 57 61 69 69 68 70 82 85 86 93 94 93 91 91 83 86 86 86 91 92 91 94 95 94 93 94 89 90 88 88 86 78
30 31 34 74 66 62 64 80 72 80 76 74 61 49 51 52 50 51 52 62 63 64 72 76 66 81 84 93 90 86 84 84 85 84 82 92 91 91 94 94 95 93 94 91 93 86 91 85 80
37 43 35 73 67 64 73 87 75 76 73 74 65 51 51 49 48 48 46 53 57 64 72 75 74 83 83 85 85 78 79 82 83 87 91 92 89 90 94 94 94 92 94 91 79 87 83 85 82
45 42 37 32 64 67 79 81 81 82 78 75 67 54 49 49 48 46 45 48 55 65 68 68 72 77 80 95 85 80 82 89 86 86 95 92 90 88 92 93 92 92 88 84 84 79 81 81 81
32 34 33 26 28 71 74 90 87 85 82 79 70 58 51 50 44 43 44 52 57 64 66 67 73 81 82 91 88 89 89 91 88 86 90 95 90 87 90 91 89 92 90 90 81 78 78 78 78
33 39 36 27 34 45 67 94 84 89 79 76 70 57 53 49 49 46 48 51 60 64 65 70 72 79 82 82 90 86 88 92 92 87 92 94 87 88 88 92 95 82 86 85 82 78 89 84 80
39 43 38 33 43 75 82 94 88 85 77 76 74 72 58 48 48 48 52 54 57 62 66 70 72 76 83 82 90 96 89 88 94 93 91 91 89 90 86 88 92 92 91 89 79 81 82 78 84
52 31 28 24 24 27 74 95 91 83 86 82 79 78 72 55 45 45 52 55 56 58 62 67 71 75 84 83 87 89 88 87 88 92 92 90 87 87 88 87 87 91 94 91 89 88 87 79 76
35 28 24 21 25 62 57 59 61 88 89 84 82 79 70 64 48 46 50 52 52 54 61 63 72 73 77 81 75 87 90 83 82 89 88 93 94 88 86 87 87 91 92 92 89 90 91 92 88
21 23 25 30 31 33 32 29 41 89 75 72 73 80 66 56 52 44 47 49 52 52 60 65 74 75 79 80 85 85 86 88 87 90 92 95 97 95 90 88 91 89 92 92 91 90 91 93 94
22 28 36 37 36 33 33 25 22 42 58 55 66 75 66 55 57 50 48 53 52 54 60 70 72 74 76 79 82 82 80 86 87 85 90 94 97 97 94 93 95 94 91 91 94 94 92 90 93
28 27 35 38 41 35 33 30 21 19 34 51 57 59 65 59 56 50 44 51 53 54 59 69 73 70 74 76 82 84 80 78 85 88 85 83 81 85 87 92 91 93 91 92 94 96 96 94 94
25 32 30 38 44 33 32 26 22 34 41 58 59 63 70 61 56 49 43 46 52 55 57 66 72 68 71 72 75 87 81 81 82 90 88 83 81 80 88 90 90 91 93 93 94 97 94 95 94
20 21 32 36 42 43 36 35 34 46 44 62 61 66 66 66 64 56 45 47 48 50 54 59 66 68 68 68 68 75 84 86 86 86 91 88 86 84 89 92 92 90 92 93 94 96 94 95 97
27 30 33 35 40 44 43 38 39 47 46 48 60 58 65 56 60 67 55 44 48 48 50 56 63 66 68 66 66 65 72 89 96 87 84 88 88 87 86 92 92 91 91 94 96 95 93 95 95
26 32 35 37 39 46 46 54 30 34 41 64 80 78 66 55 62 71 70 64 62 61 56 60 57 64 66 66 66 66 66 75 89 90 86 84 84 87 85 87 94 90 87 92 95 95 90 93 94

GFSSGP_sfc_rhum_072.txt.gz
RH
80 78 76 82 92 96 94 87 89 76 72 56 49 56 64 73 77 88 94 86 76 84 88 82 80 77 78 77 77 74 79 77 77 76 75 74 74 78 74 71 75 74 73 73 74 75 72 72 71
83 76 84 96 97 99 92 75 88 79 66 48 50 63 72 89 82 88 93 76 70 87 92 89 83 80 79 78 77 74 77 76 76 77 75 76 73 71 74 72 71 73 72 71 69 72 72 73 74
78 67 94 98 97 96 93 83 86 76 52 49 69 68 77 90 81 87 86 70 81 93 92 86 80 81 78 77 76 75 77 75 76 76 75 74 74 74 73 71 72 71 72 72 72 72 73 71 72
72 83 92 99 93 82 84 84 86 77 64 68 69 85 77 71 74 83 77 77 91 94 90 81 79 78 77 77 76 75 77 74 76 73 73 72 71 73 70 73 72 70 74 72 72 72 73 72 71
84 91 96 98 86 92 73 72 81 83 76 82 68 87 91 86 82 81 81 81 94 96 89 80 81 78 78 78 76 74 76 75 76 74 73 73 70 70 70 68 71 74 70 70 72 72 71 70 71
91 92 95 94 88 90 82 73 79 83 85 85 79 85 96 86 85 84 82 88 85 91 90 84 78 78 78 77 76 76 76 76 75 74 72 70 73 72 70 68 67 66 67 69 71 71 72 71 71
92 95 94 87 88 89 90 88 87 79 76 78 70 84 95 89 86 84 89 88 88 91 95 93 87 79 75 75 78 76 76 75 74 74 75 73 73 72 69 71 67 65 65 68 71 72 72 72 73
90 90 86 76 84 85 83 79 76 68 66 55 63 90 97 86 87 87 91 97 98 98 96 96 93 90 90 85 76 75 75 75 74 75 72 71 70 69 72 74 71 66 66 68 70 71 70 72 73
65 93 91 69 79 86 73 83 92 84 56 53 59 68 77 85 85 90 91 91 87 95 98 97 96 96 94 89 81 77 76 72 74 73 72 90 91 84 80 71 68 67 67 69 70 69 69 70 69
82 97 81 58 70 80 80 76 74 67 58 73 80 81 85 84 82 80 80 79 79 88 98 98 97 96 93 82 89 89 83 92 93 90 90 93 91 86 78 72 69 67 66 66 66 67 71 77 78
75 90 68 59 61 65 74 75 69 73 82 74 91 91 86 84 80 81 83 80 80 79 89 98 98 96 94 96 97 95 94 94 92 91 92 91 89 91 89 88 85 87 83 90 78 84 85 80 85
77 63 58 56 63 70 73 78 76 70 80 70 75 82 86 88 90 89 91 88 91 81 88 97 96 97 96 98 97 96 95 93 92 91 91 95 93 93 95 91 92 92 88 87 89 88 86 85 81
66 58 50 44 60 62 65 67 87 86 75 62 70 74 82 84 81 77 80 86 96 86 96 97 97 97 97 98 98 96 95 92 88 92 90 94 95 95 94 92 93 88 90 85 82 88 80 84 78
46 47 43 43 66 70 71 75 66 84 79 76 72 74 73 74 75 74 75 84 89 91 94 95 96 96 97 98 97 96 94 91 89 93 90 90 93 94 94 92 90 92 90 91 85 87 82 84 78
40 43 37 76 80 74 65 78 73 79 84 85 79 74 69 66 67 73 68 77 79 84 88 94 95 92 96 96 95 94 92 86 88 87 89 91 90 90 93 92 92 90 90 86 85 87 82 79 74
32 34 35 79 75 71 70 76 75 79 77 86 74 69 65 64 63 64 65 67 74 79 87 91 77 88 94 94 93 92 90 88 88 86 86 88 90 89 92 93 92 87 86 87 85 82 82 80 76
40 46 34 70 68 72 83 83 81 79 76 87 72 63 59 62 59 59 60 67 70 75 81 87 85 89 91 92 91 90 87 88 87 86 87 89 89 89 95 92 91 90 91 87 80 83 82 79 76
49 42 39 36 74 76 85 89 90 85 82 75 65 59 58 60 56 56 58 64 66 72 77 81 81 89 91 94 91 88 88 89 89 87 92 92 89 86 94 90 90 90 85 82 79 82 80 78 78
35 35 38 30 41 76 83 88 90 88 81 79 66 60 58 55 50 52 52 59 63 73 80 82 84 91 89 92 90 91 91 91 89 88 89 92 91 88 89 91 88 88 86 86 80 78 78 77 78
36 39 38 31 29 50 70 98 91 86 82 78 76 65 59 53 52 53 52 54 61 72 76 83 83 90 85 84 89 87 89 90 90 91 90 92 92 91 88 90 92 84 85 85 84 82 83 79 77
47 47 39 33 32 84 85 84 95 86 80 76 78 70 60 54 54 53 54 55 61 71 75 78 82 87 86 88 91 94 91 91 90 92 92 90 90 90 91 90 94 88 91 85 81 80 82 78 80
64 35 31 30 29 36 79 90 91 92 95 84 83 80 77 54 52 53 53 60 63 68 69 74 80 84 84 89 90 88 88 90 89 88 92 88 89 89 89 90 92 92 90 88 83 83 84 81 78
37 32 32 31 31 69 62 58 68 93 94 88 82 74 75 69 51 53 54 58 60 63 67 70 79 83 83 84 86 84 89 86 87 90 91 91 93 88 88 88 89 91 89 91 88 86 89 87 81
26 24 27 30 32 33 46 37 33 90 80 72 68 69 64 66 60 50 51 56 59 60 63 68 80 83 85 84 88 88 87 87 87 90 89 89 94 91 90 88 91 89 90 90 88 87 86 90 93
25 32 41 39 37 34 36 30 28 26 26 44 53 60 62 61 61 56 53 57 60 63 64 68 78 82 84 85 86 86 85 88 87 87 88 91 92 93 91 90 92 96 90 89 91 91 88 87 86
29 31 37 39 44 36 37 33 38 34 39 51 53 62 62 63 59 55 52 55 60 61 64 67 74 77 81 84 86 88 88 83 86 85 86 87 87 86 88 89 89 90 90 88 91 87 87 88 85
28 36 37 40 54 35 35 33 27 33 42 50 62 71 74 72 62 59 52 54 58 59 64 69 73 72 76 78 83 88 86 87 86 89 87 85 88 80 86 89 89 89 90 90 92 88 90 93 90
23 26 33 38 42 43 39 52 54 44 45 68 86 87 76 77 73 63 57 52 55 54 57 64 68 70 72 73 77 79 82 84 84 87 89 89 87 86 89 89 90 90 92 90 92 91 90 91 89
30 33 35 39 44 43 46 57 43 50 66 86 84 87 88 75 74 67 63 50 52 53 55 59 65 70 70 72 75 78 83 86 86 82 85 87 88 89 88 90 88 90 91 92 95 92 90 90 91
31 39 39 38 36 49 53 47 70 85 83 78 83 81 87 86 75 75 78 74 70 71 61 68 63 66 66 72 75 77 82 86 88 84 84 86 87 89 88 88 90 89 88 90 90 90 85 89 88

GFSSGP_sfc_rhum_075.txt.gz
RH
66 63 59 68 75 75 76 80 84 80 64 47 42 46 49 46 59 64 59 55 52 58 58 64 81 77 77 76 75 79 76 78 76 74 72 74 78 72 72 75 74 73 74 72 74 72 72 72 74
65 63 64 82 76 87 90 67 77 70 50 43 44 44 59 69 68 73 62 52 52 54 52 60 84 82 77 76 74 78 75 77 76 76 76 72 71 73 71 72 74 73 72 70 74 72 73 74 73
60 63 84 86 82 94 89 86 85 62 44 46 59 53 66 79 71 58 51 50 52 58 56 63 80 80 78 77 75 78 75 76 76 75 75 74 76 75 71 72 72 73 72 74 72 71 71 73 72
60 65 70 86 84 88 84 88 73 56 55 59 56 72 66 63 58 57 50 49 51 56 53 71 78 77 77 77 76 77 75 76 74 75 75 73 74 71 73 72 71 72 73 73 72 71 72 69 74
59 68 80 87 82 92 75 73 72 57 73 68 58 76 80 66 65 52 51 49 51 53 55 58 81 78 76 76 75 76 74 76 75 76 74 71 72 70 71 72 72 71 70 71 71 70 71 72 75
71 73 80 77 82 87 76 70 68 82 83 75 66 69 84 70 61 54 49 50 49 53 53 58 77 78 78 76 75 76 76 75 76 73 72 74 73 73 68 67 68 67 68 70 70 70 71 73 76
66 80 76 77 79 88 84 69 84 80 80 84 59 74 86 75 58 54 51 54 53 54 56 58 58 71 77 76 76 76 76 75 75 77 74 73 73 70 70 68 65 66 70 70 72 73 74 74 76
65 81 84 72 76 73 78 80 81 68 76 62 53 73 87 75 59 55 55 56 58 58 56 59 60 60 62 63 75 75 75 73 77 73 74 72 70 69 70 73 71 67 68 70 71 71 73 74 75
58 86 80 63 66 80 71 84 90 81 60 50 53 59 61 64 62 59 69 67 65 61 60 60 58 65 73 67 67 72 74 74 72 70 82 73 61 58 55 69 68 67 70 70 72 70 71 70 73
66 77 65 54 59 70 78 88 77 65 60 73 69 63 69 71 62 67 73 74 68 71 62 60 63 66 64 58 68 70 60 65 69 66 71 63 65 61 56 64 68 66 68 68 67 70 74 58 48
71 68 54 50 55 58 79 83 70 60 68 68 84 80 74 73 63 68 65 64 62 69 63 62 68 70 63 68 60 59 60 62 66 73 70 69 63 62 57 59 56 59 67 52 54 54 50 58 54
73 54 51 49 54 59 69 63 73 66 73 59 69 70 74 76 62 60 59 58 61 70 69 64 66 71 69 65 58 62 62 61 58 65 74 71 61 66 71 59 62 63 56 62 62 53 61 61 61
58 50 41 39 50 54 59 62 70 84 71 64 68 73 74 71 62 60 58 54 61 72 69 66 71 76 76 76 65 63 63 57 59 63 68 65 62 68 64 65 60 61 59 54 58 59 57 63 56
39 37 31 33 38 54 55 64 63 80 64 74 69 68 68 64 60 61 62 62 64 66 68 64 68 74 75 72 78 69 64 61 59 62 64 73 63 68 61 63 62 61 59 57 58 62 58 58 53
34 30 38 55 50 58 52 75 61 67 65 70 64 62 60 57 56 58 56 59 61 64 65 68 69 69 76 77 71 66 60 56 59 59 68 70 69 70 73 63 63 60 65 68 64 63 60 52 52
24 22 23 59 53 59 61 70 64 77 72 75 69 61 60 58 56 54 51 52 56 59 69 68 59 66 70 71 69 63 60 60 60 60 62 70 70 72 73 63 59 59 61 59 57 55 54 52 50
25 29 24 60 56 59 66 60 74 72 76 81 74 62 56 56 59 56 52 51 53 59 66 69 67 67 70 73 64 66 68 62 60 60 60 71 69 71 71 64 60 67 60 57 53 56 57 53 50
34 26 24 41 57 57 62 60 75 71 71 74 68 60 57 54 54 51 49 50 50 55 64 67 66 71 74 69 70 63 63 63 64 62 60 68 65 70 72 63 66 64 58 57 53 65 58 54 52
24 24 24 22 45 45 48 54 66 68 76 70 64 60 54 54 52 49 47 47 48 54 63 69 72 76 72 68 64 65 62 63 62 62 69 69 71 70 74 66 66 65 62 63 64 60 64 54 57
25 26 25 23 28 31 39 62 65 68 73 64 62 56 53 49 53 53 49 47 49 54 62 70 73 77 74 64 68 63 64 61 59 65 68 69 71 75 69 71 66 67 59 70 69 65 54 53 54
28 28 26 24 23 60 58 72 74 71 68 68 59 50 47 47 48 56 50 49 49 54 62 68 74 76 74 70 69 72 71 70 65 64 62 63 70 72 75 71 70 70 64 58 67 62 66 52 58
32 24 23 25 24 21 56 44 68 70 69 68 68 57 49 46 44 50 47 48 48 53 57 64 70 75 73 77 71 76 62 59 55 60 61 61 69 70 72 73 72 73 61 68 62 60 61 62 54
29 25 24 24 23 30 47 32 48 68 71 69 67 64 52 44 43 44 47 45 44 49 54 59 70 75 74 78 76 68 69 55 56 58 70 71 78 70 68 74 75 74 63 71 71 72 71 57 51
23 20 20 20 17 22 35 24 29 38 42 40 55 65 58 47 42 43 42 43 44 46 51 57 70 78 76 77 76 78 73 67 60 63 62 60 60 64 72 71 74 74 69 70 66 72 72 70 66
21 21 24 24 22 23 22 23 38 39 44 52 60 47 54 51 46 43 45 44 48 50 53 56 68 75 73 74 74 75 72 72 73 71 60 64 61 60 69 75 82 86 75 71 71 75 73 70 65
23 20 21 32 25 21 24 25 35 33 46 62 61 53 40 46 44 44 44 45 50 52 56 57 65 74 71 71 77 77 75 60 58 65 56 58 56 57 66 71 69 74 75 71 73 64 61 69 64
21 23 17 20 24 19 20 23 24 41 57 68 69 71 67 50 42 45 44 44 48 51 56 59 65 69 68 65 72 76 75 73 63 68 68 56 65 54 66 67 70 69 73 74 74 62 81 81 73
18 18 20 21 32 28 30 37 33 71 79 78 80 83 79 68 58 46 44 44 45 46 49 54 57 66 67 64 65 64 68 70 69 69 72 67 63 68 64 68 68 71 72 74 77 68 70 74 65
17 18 23 20 24 23 29 34 60 84 84 86 84 84 86 68 58 53 47 42 45 46 46 49 53 61 61 61 64 64 63 64 68 67 68 70 68 71 71 72 69 69 70 73 78 76 70 74 74
21 24 21 21 33 30 24 36 58 65 71 77 79 81 80 80 76 67 61 48 47 50 48 48 52 53 56 62 66 71 66 64 63 68 66 67 71 69 70 72 73 70 69 72 75 73 65 74 71

GFSSGP_sfc_rhum_078.txt.gz
RH
59 41 43 48 53 51 74 82 71 65 47 38 32 35 36 35 44 56 34 32 39 40 45 58 79 76 74 76 78 76 78 74 72 72 75 76 71 74 76 74 73 74 73 73 70 72 75 74 74
38 42 50 59 56 76 80 60 75 57 38 34 32 33 37 58 44 42 38 36 38 35 36 46 84 79 74 76 78 75 76 75 76 76 72 72 73 70 73 73 72 72 72 73 73 73 71 73 74
40 48 64 76 69 87 72 74 66 47 34 34 36 37 43 59 43 35 33 35 34 36 36 55 82 79 75 74 78 75 77 75 74 73 73 72 72 70 71 71 72 72 72 73 71 72 70 71 73
43 49 52 76 70 95 76 71 52 41 42 41 39 53 52 49 36 34 33 33 33 35 34 69 79 77 76 75 77 74 76 74 74 73 74 73 73 73 72 72 72 73 73 72 71 69 68 71 73
41 45 72 67 89 89 59 58 44 47 47 43 36 54 63 45 39 34 34 31 33 32 38 48 80 77 76 75 76 74 75 74 74 74 72 73 71 72 71 70 71 71 72 71 70 69 69 74 74
62 47 66 73 85 74 56 58 54 52 52 51 46 53 64 47 39 35 32 32 31 34 35 48 76 76 76 76 76 76 76 76 74 74 74 72 70 68 67 69 68 69 70 71 70 70 72 76 75
58 66 64 62 79 83 70 56 68 57 56 53 43 61 59 43 37 34 33 33 33 33 36 43 46 68 75 76 76 76 75 75 73 73 73 72 71 70 69 64 69 70 71 70 70 73 74 76 75
50 59 63 55 56 86 69 76 68 57 66 56 42 53 58 43 38 34 34 34 36 36 36 41 42 49 48 51 76 74 75 74 72 73 71 70 69 68 67 74 71 69 71 71 72 74 75 75 74
44 64 62 58 59 67 72 76 82 78 68 54 43 39 39 39 37 37 39 38 40 39 38 36 35 44 54 54 62 71 73 72 75 72 74 66 40 42 50 69 69 70 71 69 71 73 70 74 75
56 66 57 45 48 59 73 76 75 75 67 50 48 38 40 40 40 40 41 42 41 40 36 35 41 46 47 38 54 56 50 58 47 51 52 41 45 48 45 60 69 70 69 68 70 69 64 55 36
50 52 39 36 44 52 64 70 54 56 55 54 58 50 43 43 41 44 41 40 37 37 36 38 51 50 44 54 42 40 40 45 50 57 49 48 43 42 37 44 44 47 60 41 48 46 37 45 38
57 39 34 34 38 53 64 55 61 47 56 41 49 42 43 42 39 42 38 39 38 41 41 39 47 51 46 42 39 39 40 40 40 48 56 53 42 45 46 41 46 46 39 48 44 41 50 49 47
47 36 29 28 51 47 48 55 59 77 56 48 50 43 42 38 38 38 35 36 37 42 41 42 49 57 54 53 44 41 43 36 41 43 51 44 42 51 46 50 43 44 42 41 45 45 47 48 43
33 32 25 22 32 36 44 49 51 62 54 59 55 44 41 38 36 39 37 37 41 42 44 44 49 55 53 54 58 51 42 44 40 41 48 55 42 50 47 48 45 44 41 42 44 49 44 41 40
30 27 25 30 24 35 37 57 52 56 51 62 49 46 42 39 36 39 37 38 39 41 44 48 49 49 56 59 57 48 44 39 41 44 56 56 51 58 56 46 45 44 51 53 49 46 43 37 37
29 22 22 33 31 37 41 57 53 58 57 57 43 44 43 38 33 36 35 34 38 40 49 50 40 44 52 55 55 45 43 42 42 43 46 56 60 60 58 46 42 45 45 42 41 40 38 37 36
27 27 21 39 35 40 42 54 69 54 55 46 40 36 34 35 36 38 34 34 36 41 50 53 50 47 50 59 51 49 55 44 43 43 43 58 57 59 54 46 45 53 43 40 38 39 42 39 35
31 24 20 33 41 38 41 44 55 70 73 62 55 48 33 35 38 40 37 34 34 40 47 51 49 53 56 53 55 45 44 44 44 43 44 56 52 58 55 47 52 50 41 39 40 50 43 39 37
23 21 22 26 34 33 31 30 56 61 63 80 71 58 40 35 36 37 38 37 34 38 46 53 56 61 56 52 48 45 44 45 44 44 55 57 54 58 62 47 53 51 47 51 52 47 52 36 40
22 21 19 18 22 21 19 26 39 66 52 54 56 55 46 34 36 38 37 37 34 38 46 55 59 64 61 49 49 44 45 41 42 44 54 53 54 61 56 58 52 55 43 58 56 55 38 35 37
22 23 19 19 18 26 28 45 48 44 62 47 46 44 39 38 36 41 40 38 35 36 45 54 61 62 61 55 54 59 57 54 49 48 48 51 55 56 60 60 52 58 54 42 57 52 55 35 42
22 20 19 17 18 24 24 46 47 46 62 68 53 42 37 36 36 39 39 39 36 37 40 50 59 62 60 64 58 65 50 44 40 44 42 48 55 55 59 58 59 63 46 55 53 46 51 56 40
18 19 20 18 18 17 21 23 40 42 47 68 62 56 45 34 34 35 37 37 35 36 38 45 58 65 60 66 64 56 61 42 41 39 58 59 62 55 53 58 60 64 49 60 57 58 61 43 40
18 20 20 18 15 21 19 19 27 34 38 34 43 42 45 44 33 34 36 34 35 35 38 43 59 67 66 65 68 67 61 57 44 48 48 46 45 50 58 54 60 63 55 60 55 57 60 58 53
20 17 23 26 19 17 17 18 35 38 47 47 54 46 37 40 38 35 36 36 36 37 40 43 55 67 65 64 64 66 67 65 63 65 44 48 42 42 60 62 63 54 64 64 61 70 59 58 49
21 14 16 30 19 15 18 24 36 40 44 49 50 45 31 35 34 34 35 35 38 38 40 44 51 64 64 62 67 67 67 52 49 51 42 41 40 42 51 59 55 57 57 58 62 51 48 55 49
20 18 11 14 12 14 16 30 32 37 48 57 67 66 60 36 35 34 33 34 36 39 42 46 51 59 60 56 62 66 66 65 50 53 52 43 50 39 50 55 57 55 56 59 63 49 57 58 58
16 14 17 14 26 24 18 28 34 55 65 71 79 84 76 46 47 34 34 34 34 35 37 42 45 53 56 54 54 55 59 63 61 57 59 56 47 53 48 57 56 58 58 60 65 53 57 62 52
15 16 16 11 14 18 23 26 52 65 73 78 82 83 84 83 66 60 40 36 34 34 35 37 42 47 51 53 55 55 52 54 59 56 57 59 55 55 58 60 62 61 57 58 66 64 55 62 61
15 17 16 17 24 16 16 44 44 51 65 68 79 82 80 81 86 88 86 54 36 37 36 36 37 40 44 52 60 58 60 54 51 57 55 57 60 56 58 60 67 56 56 58 66 61 51 59 59

GFSSGP_sfc_rhum_081.txt.gz
RH
58 42 37 39 65 50 68 84 48 44 39 26 22 24 30 36 50 58 30 31 39 39 44 55 78 73 76 77 75 77 72 71 71 73 72 70 74 75 74 73 73 74 73 71 73 73 74 74 75
29 33 39 64 56 94 72 78 57 47 32 25 25 27 38 44 33 33 32 32 31 32 34 44 82 76 76 78 74 75 74 75 75 72 74 72 69 74 72 71 73 72 73 73 71 72 74 75 75
40 32 72 81 81 86 77 69 56 36 28 26 29 29 41 40 30 30 30 29 27 33 35 55 80 76 75 78 75 76 74 74 74 74 72 72 70 72 71 72 73 73 72 72 71 72 73 72 71
35 48 57 79 87 87 68 56 41 33 29 26 32 46 41 27 28 28 28 27 28 30 37 70 77 74 74 77 74 76 74 73 75 74 73 73 72 72 71 72 73 72 72 71 69 72 72 72 70
37 60 80 93 94 85 58 49 36 41 33 31 32 44 39 31 26 27 27 28 28 36 40 51 80 76 74 76 74 76 74 72 73 74 72 72 71 72 70 71 72 71 70 69 70 72 73 72 72
81 68 81 62 74 65 51 41 47 46 36 38 41 46 50 32 29 28 25 28 32 30 37 46 75 76 75 74 74 75 73 73 74 73 72 70 70 70 70 70 69 70 70 69 68 72 74 73 73
75 72 65 57 69 71 62 57 57 44 37 44 33 44 43 33 28 25 27 31 29 34 32 41 47 68 75 76 75 74 74 74 73 72 71 72 70 67 68 70 70 70 67 70 70 74 74 73 73
47 63 58 49 56 71 55 66 53 41 53 34 32 43 44 34 27 25 27 34 40 30 29 42 42 43 50 52 74 73 74 71 72 71 72 70 68 68 67 75 71 68 68 68 68 72 74 73 72
36 65 59 53 48 73 56 70 67 56 45 38 34 29 30 29 26 26 31 40 42 31 29 33 50 60 66 56 61 70 71 72 71 67 69 74 58 48 56 73 71 70 70 69 69 71 74 74 73
40 63 50 44 36 55 59 59 64 61 53 45 35 27 29 30 29 29 32 37 31 29 27 33 45 44 57 36 55 54 51 82 57 55 62 66 58 47 43 62 70 70 69 70 69 68 71 75 45
44 54 40 43 38 45 52 66 53 63 58 47 40 34 33 31 30 28 28 27 27 27 33 47 54 62 40 45 53 62 41 51 64 68 43 43 47 42 39 51 48 52 65 47 60 64 64 38 32
42 40 34 42 39 44 55 48 56 55 56 42 35 32 32 32 28 26 26 26 27 30 31 48 47 44 45 36 46 33 36 37 38 40 46 46 36 40 56 42 39 63 55 43 65 40 44 42 37
37 33 25 28 40 40 39 47 50 52 43 42 34 32 32 28 28 27 25 26 28 31 31 35 40 47 46 56 33 35 34 32 38 40 42 59 49 67 63 65 68 48 48 38 52 58 52 58 36
31 31 22 21 34 42 42 46 44 46 44 43 38 33 30 27 27 28 26 28 31 33 33 36 40 47 45 61 51 47 41 34 34 36 42 45 48 70 58 67 67 64 62 62 63 71 64 61 44
25 28 20 21 26 34 39 52 55 49 47 52 38 33 30 26 26 29 27 29 30 32 34 40 41 42 51 51 47 42 42 45 33 40 49 49 49 54 63 50 81 63 47 50 45 50 50 45 34
27 23 26 22 23 28 46 63 52 44 49 50 38 34 31 28 26 28 26 26 30 33 40 41 32 39 45 49 61 53 63 70 66 39 41 48 54 51 60 63 66 43 58 65 56 58 61 37 51
25 24 23 27 26 30 38 65 70 41 41 43 39 34 31 29 27 27 26 26 29 35 42 44 39 40 45 53 45 60 58 69 67 63 64 50 51 53 66 66 53 50 45 49 60 52 47 48 48
24 22 20 28 28 34 56 48 48 55 52 44 42 34 30 28 27 29 27 25 29 35 42 45 40 46 51 50 49 45 39 62 55 65 64 53 63 52 57 49 47 76 55 57 56 66 66 63 42
14 17 36 27 23 34 32 46 48 61 66 68 42 36 28 26 29 31 30 28 30 35 42 48 48 57 50 48 43 38 36 40 62 64 50 52 49 53 56 53 49 52 67 74 47 50 48 46 34
18 18 17 20 21 38 62 43 50 56 67 77 69 43 32 29 34 37 37 30 28 35 42 50 52 60 55 45 48 39 50 33 54 68 50 48 50 56 52 55 61 55 74 54 51 71 52 29 46
19 17 17 18 21 18 16 30 44 45 60 74 78 52 40 35 38 44 44 38 28 34 41 50 56 61 58 52 46 49 52 47 39 55 44 48 48 51 55 56 71 54 66 52 54 49 70 66 35
19 14 14 15 18 22 18 58 36 49 45 78 68 62 40 44 39 38 40 40 28 32 37 48 55 60 57 56 56 73 50 42 40 48 66 59 50 50 52 54 54 59 63 71 50 40 58 59 59
14 13 18 15 15 17 22 37 79 42 47 74 80 64 52 43 38 39 36 40 28 29 35 44 56 63 61 63 70 53 71 63 44 70 61 79 60 52 48 53 55 60 60 58 55 54 58 65 47
11 14 17 16 14 18 15 21 79 47 48 53 69 46 49 55 36 43 38 41 28 29 31 39 58 68 62 62 64 65 59 61 68 53 49 60 54 46 53 52 57 59 57 57 53 56 56 60 60
14 17 24 24 19 16 12 21 54 35 34 40 46 40 70 49 44 38 46 42 30 32 34 38 54 65 63 60 61 63 62 59 60 58 42 70 74 58 61 59 62 54 60 56 57 63 60 58 51
17 16 18 28 18 13 11 28 39 35 38 46 42 42 36 37 41 48 34 36 39 30 34 38 50 63 61 61 66 66 66 52 47 51 62 62 67 66 61 55 54 56 54 56 59 52 50 57 51
17 18 9 10 10 10 19 37 36 36 45 58 64 52 43 26 40 38 37 41 39 36 34 39 47 56 58 55 62 67 65 64 50 55 52 40 59 64 50 48 53 53 54 56 64 52 58 58 59
14 13 14 12 23 19 22 36 34 43 58 68 79 81 70 40 74 90 55 35 40 38 31 35 40 49 54 54 54 55 58 62 60 53 56 51 49 48 79 50 60 54 53 55 63 62 58 60 50
15 16 14 10 12 15 26 39 38 52 66 78 82 82 84 79 84 87 73 67 62 34 32 33 37 44 48 50 52 54 53 53 58 56 55 56 54 54 51 54 56 56 59 55 67 64 70 61 61
11 14 14 16 21 13 15 51 35 48 58 72 80 80 77 76 79 88 85 81 83 86 59 34 32 35 40 46 54 51 57 55 51 57 55 56 61 55 57 57 60 59 55 56 61 58 49 53 57

GFSSGP_sfc_rhum_084.txt.gz
RH
63 49 46 54 82 85 72 74 57 40 32 23 22 30 39 39 42 70 42 40 43 49 58 64 80 78 76 77 77 75 72 72 74 71 72 76 74 74 76 76 75 76 76 72 73 73 74 74 72
37 36 40 70 86 95 80 72 64 48 25 23 30 34 35 45 37 45 45 39 39 42 44 55 81 80 78 77 78 77 76 74 74 75 73 72 74 74 74 74 74 75 75 73 74 74 74 73 73
53 33 76 88 90 89 92 72 60 34 23 27 40 31 32 40 34 39 37 35 34 38 45 65 80 80 77 78 76 76 75 74 75 74 74 74 74 72 72 74 73 74 75 73 72 73 71 70 70
39 57 58 96 98 79 84 64 36 28 29 34 33 36 30 27 32 31 31 36 44 42 50 74 78 77 76 77 76 75 76 75 77 75 74 75 74 72 72 74 73 73 71 71 71 72 71 69 69
40 70 95 94 91 86 84 41 41 33 39 36 31 36 37 31 28 27 30 38 40 44 51 62 79 79 77 76 75 74 74 74 75 74 75 72 72 72 72 73 72 71 70 72 71 73 71 71 71
80 83 88 83 75 82 53 51 45 46 41 37 32 36 38 29 29 31 32 40 42 41 48 58 76 77 77 76 75 75 73 74 76 76 74 73 73 72 72 71 71 70 68 72 74 73 72 72 70
70 84 75 61 71 75 65 57 46 42 42 41 34 45 35 30 27 31 32 44 33 38 46 53 59 72 76 75 74 74 75 74 74 72 74 73 72 71 72 73 70 68 68 70 73 73 73 72 70
60 75 72 57 65 82 56 60 63 49 50 35 29 45 40 32 27 32 38 63 49 34 39 49 58 58 63 63 73 73 73 73 71 72 71 74 70 69 72 76 74 69 68 69 72 73 72 71 70
49 80 68 69 56 71 53 69 72 51 38 40 32 30 28 26 29 38 32 47 62 37 42 45 50 77 71 67 68 71 70 72 71 70 71 75 65 60 62 74 73 68 70 68 71 73 72 69 69
83 70 60 43 46 58 50 54 66 52 39 40 31 27 26 25 39 41 42 39 35 46 57 83 54 55 55 44 70 70 73 67 66 66 75 86 68 60 55 68 73 69 72 72 73 72 80 71 58
60 50 45 44 40 48 56 60 59 47 48 39 36 32 28 26 30 32 36 34 32 50 48 44 57 62 49 58 61 87 78 67 61 66 77 70 58 62 59 69 66 70 69 63 67 72 67 68 68
78 35 35 40 37 46 53 57 58 59 62 33 31 29 27 26 25 33 38 34 48 52 45 40 59 80 64 54 56 64 69 52 54 58 72 79 68 69 75 81 82 85 76 91 89 64 63 54 50
56 36 32 38 36 42 40 48 62 76 83 38 31 29 28 26 24 24 26 28 41 48 44 42 61 75 67 66 69 57 57 47 47 64 66 68 67 76 71 86 83 86 66 88 82 93 61 72 55
35 30 28 30 41 37 40 57 51 74 83 46 35 32 28 25 23 26 26 30 31 44 48 42 51 57 62 67 72 66 61 48 51 53 64 71 70 84 94 90 84 83 69 70 72 82 70 64 56
30 42 28 28 36 39 40 56 56 46 55 47 35 32 28 26 24 27 26 31 31 35 44 47 48 49 61 63 63 67 66 58 50 56 61 66 69 82 91 92 90 77 72 67 87 74 65 64 53
33 31 31 26 32 37 44 73 56 50 45 41 36 32 28 27 25 26 25 28 32 38 50 48 35 49 54 61 66 72 91 81 58 55 61 63 63 64 78 82 77 72 85 77 93 70 69 66 64
26 32 31 26 28 36 41 85 81 46 44 42 40 33 28 28 28 28 25 29 32 44 51 54 50 50 61 68 65 73 73 80 66 65 65 71 64 62 76 78 70 78 90 75 68 71 71 68 66
27 25 29 28 28 35 46 59 69 53 50 46 43 36 30 28 28 28 25 28 32 43 51 56 48 63 69 66 72 67 73 82 70 73 71 69 72 64 71 78 77 86 75 71 66 75 71 71 55
18 18 39 37 41 36 42 60 54 50 46 52 43 40 31 29 28 27 26 26 32 42 52 56 64 71 67 66 65 66 62 69 74 65 68 80 76 68 74 80 76 77 82 67 72 75 76 66 69
17 18 24 32 33 68 52 59 56 46 46 56 45 41 35 28 30 32 30 29 32 46 53 62 67 72 70 64 74 68 71 62 67 73 68 69 73 68 68 79 82 82 84 74 76 71 77 65 69
15 16 25 30 40 66 70 70 80 55 53 70 77 70 39 29 35 37 38 32 35 48 54 62 70 72 72 69 69 71 69 73 72 75 65 62 67 67 78 70 82 85 82 80 76 73 72 76 69
16 14 26 27 34 59 61 70 75 58 60 70 72 72 71 32 36 40 41 36 34 45 49 62 69 73 69 75 70 75 70 70 62 68 76 69 65 66 63 70 75 85 86 83 82 67 72 77 74
15 13 20 15 17 16 18 25 67 69 79 63 84 78 72 62 36 41 40 38 34 39 44 58 69 76 72 75 73 72 77 86 81 78 87 84 75 66 60 71 70 80 84 88 77 71 76 83 75
12 14 16 17 16 19 21 23 63 69 83 66 62 77 82 79 43 44 38 43 41 38 42 55 70 78 75 74 76 78 75 83 93 84 81 84 78 68 72 67 75 78 82 79 79 73 72 78 81
14 15 22 27 24 20 12 18 57 68 76 79 55 76 86 91 82 54 43 40 42 41 44 57 70 77 74 72 72 75 76 78 76 83 84 82 90 89 81 77 79 76 82 83 80 78 78 76 78
15 14 19 32 23 18 13 24 57 59 71 45 35 58 61 54 85 81 40 46 47 40 44 52 69 76 73 71 75 77 77 67 64 69 68 73 90 86 78 77 74 73 75 72 76 78 75 77 75
15 17 12 15 14 15 30 45 44 47 53 53 54 57 58 68 62 64 51 44 43 41 45 52 68 72 72 68 74 77 77 76 67 71 72 63 76 87 76 87 73 71 70 75 80 84 79 76 79
18 12 18 16 28 24 37 47 45 50 62 64 70 72 77 86 90 92 89 91 40 40 39 46 61 68 68 65 68 68 72 75 75 76 72 71 74 82 94 89 85 73 74 74 79 79 79 81 78
18 18 15 13 14 19 40 61 38 54 60 74 78 79 82 88 94 96 96 94 85 56 48 40 54 62 63 64 66 67 68 68 72 71 70 71 70 78 89 83 85 75 74 77 82 80 74 77 81
13 16 16 20 27 16 54 66 41 52 65 70 75 78 76 82 89 92 94 98 95 90 84 80 70 44 53 59 66 66 68 67 67 72 70 72 75 72 73 78 75 77 74 78 79 75 67 78 80

GFSSGP_sfc_rhum_087.txt.gz
RH
73 66 61 65 90 92 88 88 78 46 42 35 36 44 50 43 55 87 67 59 65 73 76 74 82 76 75 76 74 73 72 74 73 76 77 76 76 78 77 75 76 76 77 74 74 74 72 71 72
61 51 60 85 96 98 86 79 77 58 41 35 41 47 59 68 57 64 64 58 63 72 76 78 84 80 78 80 76 76 75 76 75 75 76 76 75 77 75 75 75 74 76 74 74 74 73 72 71
61 46 78 95 96 97 88 73 75 47 36 33 40 38 52 66 53 53 53 56 56 62 74 80 82 81 79 78 77 76 76 76 76 75 74 75 74 74 75 74 74 74 75 75 72 70 70 67 65
61 70 77 96 94 84 78 72 62 43 36 36 39 49 49 44 48 48 46 45 61 70 80 81 79 77 78 77 76 76 76 75 75 75 74 74 74 74 74 74 73 72 70 72 72 71 68 69 70
56 85 98 95 87 91 84 70 45 44 39 39 39 49 54 45 41 41 44 52 68 76 76 78 82 80 77 76 75 76 75 75 75 76 75 74 73 73 73 72 72 72 71 72 71 71 70 72 73
75 88 95 93 87 92 84 60 46 43 39 44 46 47 50 42 44 44 45 54 64 72 74 74 78 78 78 76 74 75 75 75 75 75 73 73 73 73 72 71 71 71 71 73 71 71 71 70 72
76 92 84 73 82 93 72 68 63 40 40 44 40 52 47 47 48 46 52 56 56 67 74 78 78 76 76 76 74 74 75 75 74 73 73 74 74 72 72 71 70 69 70 71 71 71 71 71 70
70 86 92 72 83 85 63 65 67 46 45 33 36 52 54 47 47 53 59 58 59 66 70 75 80 82 84 79 74 75 74 73 73 73 70 73 72 72 71 77 75 69 69 71 70 69 68 67 66
63 91 92 71 71 82 60 68 69 55 43 36 35 38 41 43 48 48 60 66 56 58 64 76 73 86 88 86 74 74 74 74 73 72 71 78 82 76 77 76 74 68 68 68 71 70 70 68 66
86 90 94 67 56 68 62 64 69 58 58 46 38 34 37 40 51 56 56 56 62 65 63 75 70 74 76 64 82 86 78 84 87 86 84 90 84 80 74 74 73 70 69 69 69 72 70 71 76
86 76 56 61 52 50 58 66 57 54 52 41 42 37 44 44 43 48 50 50 64 65 62 65 67 70 67 72 88 94 92 85 81 78 85 84 79 83 86 89 81 85 84 94 80 74 76 86 80
82 55 56 49 50 54 59 56 60 68 71 40 33 34 47 46 43 42 46 59 66 68 69 63 73 85 74 70 77 87 88 83 77 84 78 80 83 82 84 93 93 93 92 92 94 89 80 81 68
54 60 50 45 52 51 52 56 67 84 70 45 31 32 49 43 42 40 44 53 58 60 64 66 67 78 70 68 76 79 81 71 63 68 70 78 88 92 95 92 88 93 91 94 83 85 79 82 58
52 46 48 47 54 46 52 58 58 77 64 63 33 36 34 34 38 40 51 55 56 52 63 67 67 73 70 75 70 62 70 63 66 69 75 73 88 92 95 92 91 93 91 92 90 90 84 67 65
51 50 36 43 55 51 70 83 68 69 62 62 35 34 34 30 35 35 49 53 52 52 59 63 67 66 72 64 73 75 63 69 73 73 67 79 86 89 89 90 93 96 96 88 89 91 76 66 56
35 52 64 44 49 57 56 96 69 66 62 55 37 34 33 31 33 35 36 51 50 52 57 53 50 63 66 73 72 74 88 84 73 73 75 75 79 82 90 90 86 85 93 82 91 85 76 68 71
39 59 50 40 40 47 57 96 85 76 56 52 41 35 33 31 36 34 36 40 48 50 58 60 63 64 72 73 71 72 71 79 79 73 77 70 67 83 89 90 87 83 90 79 79 77 70 71 62
47 50 49 47 46 50 72 75 77 64 72 49 45 36 33 32 37 32 36 41 49 60 63 56 62 70 69 79 85 83 82 87 71 72 80 82 80 70 80 90 87 86 81 74 74 72 72 66 63
25 31 48 44 67 59 76 78 80 66 58 56 44 40 33 35 34 35 35 41 53 58 62 57 71 81 80 85 77 87 80 83 86 76 78 70 83 76 82 88 79 85 82 80 82 82 79 78 74
20 26 38 49 70 73 86 82 73 61 62 54 49 44 36 35 35 36 38 44 52 61 66 75 78 79 76 82 83 78 78 81 77 75 81 76 77 78 80 82 86 74 84 87 77 72 83 79 76
18 22 32 42 60 73 85 92 82 65 63 74 74 54 57 38 35 42 37 46 51 61 70 80 82 79 77 77 74 83 74 85 86 82 78 81 75 77 76 83 87 83 87 81 82 80 73 79 76
21 16 17 46 47 64 61 92 84 83 71 72 71 70 71 62 35 39 43 43 50 58 63 78 82 77 73 83 75 78 77 84 81 92 81 76 73 75 76 78 85 88 88 86 83 77 83 73 80
16 17 30 30 42 51 56 80 84 85 80 80 79 72 79 68 67 38 44 41 50 54 62 76 79 81 76 81 84 82 79 89 92 93 90 88 82 75 70 78 86 84 83 84 86 83 81 85 93
11 13 30 32 48 72 40 61 93 88 81 76 78 73 75 75 78 77 44 46 51 52 58 74 79 85 83 85 81 84 86 85 90 90 94 88 91 84 73 78 88 91 84 76 78 85 79 83 85
13 20 39 51 45 42 29 59 90 82 68 66 66 70 77 80 79 85 84 51 48 54 60 66 84 86 88 87 81 85 84 86 84 86 88 92 92 91 87 86 88 89 88 81 82 87 83 86 82
18 27 40 48 46 37 28 87 92 62 66 70 68 70 71 79 79 84 75 64 61 48 60 64 82 86 88 86 86 89 88 90 82 80 88 84 88 91 86 85 86 87 84 83 84 87 87 83 84
22 27 22 28 26 33 82 80 72 66 70 69 80 79 72 74 78 78 68 77 68 52 59 65 75 80 80 83 90 91 90 88 81 76 88 75 88 87 86 89 86 79 84 83 88 91 89 86 84
20 25 26 33 45 44 88 92 92 81 88 83 86 87 88 85 79 77 77 88 93 84 55 63 72 76 79 81 83 88 93 89 89 88 84 84 87 81 84 88 85 87 85 86 85 87 88 88 89
30 37 42 29 32 39 81 88 80 80 81 88 88 89 92 96 96 92 91 97 95 94 80 75 76 75 77 75 82 87 86 88 90 88 86 83 86 91 92 89 81 85 86 84 90 89 82 86 87
25 28 32 41 39 45 71 98 80 85 78 82 86 88 90 93 96 98 98 98 98 98 96 96 96 94 92 70 74 77 84 83 85 89 84 84 83 92 88 79 80 84 87 88 87 83 76 86 84

GFSSGP_sfc_rhum_090.txt.gz
RH
75 71 71 74 91 93 89 89 77 66 48 41 36 45 49 48 60 84 78 74 76 80 76 77 82 76 75 76 75 73 73 76 79 79 77 76 76 75 76 76 76 76 76 74 72 72 72 71 70
72 64 70 89 93 96 89 79 68 56 46 47 44 53 55 70 63 78 84 74 75 80 84 84 83 79 76 74 74 78 76 74 75 78 77 76 77 76 75 75 75 75 76 74 72 72 71 72 71
62 50 86 94 95 96 88 75 77 48 41 42 55 53 63 79 71 74 72 75 76 84 92 82 80 79 79 79 77 75 76 77 74 76 76 75 76 76 76 74 74 74 74 73 71 71 70 67 67
66 77 83 96 96 87 83 70 58 46 45 46 53 71 60 54 61 67 68 69 78 88 91 81 79 78 78 77 77 76 76 76 76 75 75 75 75 74 74 72 72 73 73 70 68 67 68 72 64
67 90 97 95 91 88 73 67 48 50 52 53 54 68 68 56 58 61 61 68 84 93 89 80 81 78 77 76 77 76 76 76 77 76 75 74 74 74 74 72 72 71 72 72 68 70 72 74 69
82 94 97 93 89 88 76 64 54 53 54 58 60 63 72 56 60 57 62 71 77 86 86 79 78 78 77 75 76 76 76 75 75 75 74 74 74 73 73 72 72 71 72 70 70 71 72 72 70
83 99 86 84 84 91 77 65 51 52 54 54 51 69 70 58 54 60 70 72 74 81 84 87 82 77 76 75 76 76 76 76 74 74 74 74 74 72 71 73 71 72 70 69 69 70 70 71 69
77 94 82 74 82 79 66 64 48 48 53 46 50 74 75 59 55 67 72 78 80 82 84 92 91 89 88 84 75 74 74 74 70 72 73 74 72 71 71 78 76 70 70 69 69 69 69 68 67
64 95 92 78 85 91 70 62 66 43 45 42 42 55 54 56 61 66 75 82 82 81 91 93 93 95 93 88 77 75 72 72 73 72 72 82 87 82 80 77 74 69 69 70 70 68 67 67 68
83 94 89 66 64 72 61 63 65 49 44 47 55 52 56 60 61 70 75 84 78 86 89 90 90 95 93 72 87 89 79 86 91 89 90 92 88 87 79 75 73 67 72 74 71 70 69 72 80
83 94 72 66 52 57 64 69 60 59 67 50 63 62 56 55 56 64 68 66 72 77 83 82 87 88 88 85 96 97 91 89 90 86 90 87 84 91 91 92 90 86 75 90 81 81 82 83 89
74 78 70 67 54 58 61 58 72 64 57 42 51 53 54 57 56 58 61 66 74 78 77 75 79 88 82 89 92 91 92 90 90 87 87 88 91 92 93 97 93 93 95 92 93 92 87 87 83
72 69 58 62 55 56 50 60 73 65 54 42 44 47 52 51 51 52 55 63 70 74 74 75 82 84 77 84 87 88 92 86 84 85 80 83 93 93 94 94 94 93 89 94 87 88 84 86 65
59 56 54 60 63 64 57 67 59 68 53 45 47 47 45 46 48 59 64 66 66 72 74 75 77 77 72 83 82 84 86 73 74 78 81 80 90 93 90 93 90 93 93 94 92 90 86 82 65
43 66 70 58 56 56 58 70 69 56 58 41 49 49 48 45 48 62 58 61 65 68 69 70 73 68 74 76 76 76 75 71 77 79 84 87 89 91 92 93 94 92 96 90 91 88 81 75 66
55 62 82 67 64 62 61 89 71 63 62 61 37 41 44 41 48 55 57 56 60 64 66 68 58 72 79 78 78 84 87 82 79 76 84 81 84 84 91 89 89 90 95 91 90 82 81 75 72
35 72 70 77 52 66 70 91 88 67 70 56 40 36 38 43 54 52 52 54 60 62 66 70 70 72 75 77 79 80 81 80 81 81 95 89 81 83 93 91 87 90 91 87 84 83 80 76 70
41 65 66 63 68 68 81 82 87 77 71 59 42 37 38 40 47 54 55 53 58 58 62 69 68 75 81 82 81 86 83 88 83 81 82 83 84 82 89 89 88 90 84 82 89 78 72 73 66
28 29 29 66 67 78 86 75 83 78 82 83 53 40 41 40 42 49 51 51 56 62 64 71 72 80 85 86 90 87 78 76 84 80 81 82 86 86 89 94 86 85 79 84 84 84 77 83 84
28 25 54 73 73 79 90 81 70 76 78 67 51 44 39 39 40 49 54 53 59 63 65 75 74 82 83 84 85 84 86 86 88 86 81 80 81 84 83 91 88 83 88 90 84 79 84 82 80
29 25 36 58 78 81 88 89 79 68 84 80 64 60 38 39 42 52 58 54 57 63 74 75 81 80 82 82 80 91 89 90 92 91 84 84 77 81 83 86 89 83 88 84 85 89 78 81 80
32 15 17 70 70 86 83 91 84 85 76 73 64 75 68 39 38 46 59 58 54 61 68 76 81 78 79 84 71 77 83 91 92 94 94 92 79 80 79 81 87 90 92 86 85 82 84 83 87
20 14 16 51 59 78 71 86 83 87 89 83 73 76 70 64 62 44 54 56 52 58 71 71 77 79 81 86 85 82 88 90 92 92 89 91 93 80 79 84 87 90 86 84 87 87 86 93 92
13 16 34 49 78 80 68 81 95 87 82 78 80 73 72 69 73 73 65 50 56 57 70 69 78 80 82 84 88 90 88 87 94 95 95 96 96 94 85 82 88 90 88 84 84 88 85 89 90
17 25 46 62 80 72 45 68 68 67 66 70 72 67 73 70 82 77 80 64 58 62 75 74 77 83 85 86 90 89 90 87 89 91 92 93 96 93 89 91 92 89 86 83 79 90 87 87 87
20 20 50 61 66 47 64 84 83 64 64 62 63 63 67 70 77 79 85 88 73 60 72 76 78 82 90 89 89 91 91 91 88 85 88 89 95 91 86 90 92 89 87 86 89 91 90 88 90
19 33 28 44 39 44 87 85 72 78 81 77 79 77 74 68 71 74 88 87 88 71 67 73 83 80 91 90 90 90 93 89 82 84 91 87 91 92 86 88 90 87 88 87 91 93 91 90 90
21 22 38 40 39 47 92 94 94 97 95 89 92 97 96 84 81 80 85 88 92 88 85 68 76 81 83 92 89 90 92 91 88 90 88 86 89 86 92 90 88 89 88 87 90 92 89 90 90
29 36 42 33 44 43 82 94 89 96 92 95 94 95 95 97 96 88 86 96 96 93 96 92 89 83 90 93 92 91 95 92 92 94 93 86 89 90 91 89 88 88 89 91 92 91 88 87 90
31 32 37 42 38 63 81 98 85 91 90 91 94 94 94 97 98 95 95 97 96 97 97 97 97 96 98 98 93 87 93 95 93 88 90 89 88 88 87 90 88 87 89 91 93 88 83 87 87

GFSSGP_sfc_rhum_093.txt.gz
RH
80 75 75 78 94 89 92 88 78 68 55 43 40 40 49 58 65 81 80 74 82 83 84 79 81 77 75 75 74 74 78 77 76 76 76 75 75 76 76 76 76 76 75 72 70 68 70 69 69
77 70 76 93 92 93 88 75 76 67 48 40 46 51 64 82 74 89 92 81 78 83 90 88 82 76 75 74 73 72 73 77 78 76 77 75 75 76 74 75 76 74 74 72 72 71 70 69 69
71 58 88 95 98 95 89 78 68 53 43 42 61 57 70 90 80 86 82 80 80 91 94 85 79 76 75 76 78 76 73 74 77 76 76 76 75 75 74 75 74 74 73 73 71 71 69 68 67
66 81 88 95 94 81 76 72 58 49 46 48 64 82 67 68 74 80 78 80 91 96 94 79 79 79 78 76 76 78 76 74 75 75 74 76 75 74 72 74 74 73 71 70 71 69 69 64 65
69 89 97 98 92 88 75 64 56 53 54 57 56 75 79 71 74 77 79 83 94 97 93 84 81 79 77 77 76 76 77 76 75 76 75 74 74 73 72 72 72 71 70 67 70 70 68 66 70
93 95 95 94 88 80 80 76 78 66 64 64 68 72 84 74 76 74 77 87 90 95 92 86 79 77 77 76 76 76 76 77 76 75 74 75 74 73 73 72 72 70 70 69 71 68 67 68 68
84 97 91 83 84 84 79 68 74 66 61 63 56 82 88 78 67 71 80 88 90 90 91 91 87 79 74 77 75 75 74 74 75 74 75 75 73 73 73 72 71 69 68 68 71 71 68 70 69
77 94 82 78 91 85 67 63 56 59 65 49 49 80 94 70 69 80 81 90 94 93 92 95 93 90 88 87 74 74 74 73 74 73 74 73 72 71 72 77 74 68 67 67 68 71 71 70 69
72 97 90 81 93 78 64 58 58 52 58 51 53 60 63 67 76 80 92 95 95 90 96 96 96 96 94 89 78 74 72 70 70 74 76 84 95 89 82 77 72 69 67 67 67 68 68 68 68
85 95 85 72 81 79 64 59 57 63 60 68 63 59 62 71 75 84 90 95 96 97 97 97 97 96 94 75 91 94 82 90 93 93 92 95 93 90 81 78 70 69 71 72 69 66 66 76 78
83 89 73 67 66 61 64 72 48 57 74 68 71 71 71 70 73 79 83 86 88 94 94 95 96 96 94 92 97 98 93 92 91 92 92 89 88 95 97 98 94 86 80 93 84 81 84 81 89
78 84 85 63 65 65 66 65 50 56 62 58 62 66 69 72 74 77 80 77 86 89 90 89 94 95 91 96 96 95 93 93 92 90 89 92 96 96 96 96 93 95 96 90 92 93 89 90 86
76 66 64 74 65 61 60 65 62 70 58 58 59 65 70 70 70 70 68 69 79 86 85 86 88 92 88 94 93 92 94 94 91 88 88 90 94 95 96 95 93 94 91 94 92 92 86 89 70
59 68 70 70 74 68 66 76 64 64 57 59 60 64 63 61 62 66 69 75 78 82 81 82 86 86 85 93 91 88 91 87 88 88 84 84 90 94 92 94 92 95 94 94 93 89 89 85 66
53 72 74 74 78 62 65 76 79 59 56 60 60 59 59 56 55 63 68 73 73 76 76 82 83 82 84 87 86 86 85 74 82 88 83 86 91 91 94 94 94 95 96 91 92 92 85 77 67
58 71 78 64 61 64 68 90 71 64 55 57 55 53 54 52 56 62 65 66 70 76 77 78 64 74 82 85 83 84 84 82 85 87 89 83 85 86 88 88 88 90 94 93 92 87 82 80 76
42 79 77 75 69 61 70 88 79 69 63 56 51 50 52 52 58 62 59 64 68 74 75 77 77 82 84 85 84 89 85 84 84 86 94 86 84 86 92 86 88 92 94 92 88 87 82 78 73
46 58 69 66 68 67 83 77 80 70 72 60 50 50 50 51 64 59 58 61 66 71 72 79 79 82 84 86 89 92 90 90 86 90 92 88 93 89 91 90 88 94 90 86 91 81 80 77 73
30 27 44 74 80 82 84 82 78 75 77 75 52 45 48 55 58 58 58 60 64 68 74 76 81 90 83 89 91 90 86 88 90 84 86 84 90 88 89 94 92 89 82 86 86 84 84 85 85
34 28 86 82 78 82 90 86 77 79 78 83 57 47 48 54 62 63 61 63 63 66 73 80 77 89 85 81 90 85 88 85 91 90 86 88 86 87 87 90 86 87 91 92 87 88 84 83 85
36 28 60 86 81 78 83 91 83 74 78 82 74 65 43 51 66 65 63 64 63 66 75 78 80 83 86 82 86 94 91 91 92 92 93 87 78 84 87 88 89 87 89 87 89 90 86 82 84
57 24 21 75 84 89 72 90 80 74 81 83 76 72 42 47 57 59 61 64 64 62 66 73 80 82 85 88 83 84 89 90 94 95 94 93 86 85 86 85 89 90 91 87 85 87 88 87 88
29 25 17 64 78 92 85 95 78 85 85 90 92 73 68 44 51 59 59 59 59 59 66 72 85 85 87 88 85 82 92 93 95 94 89 92 91 87 86 88 90 93 90 86 84 90 89 96 94
24 19 42 73 83 84 80 85 85 94 80 82 77 70 74 56 52 60 56 52 57 60 66 73 85 88 89 89 91 89 90 93 94 92 95 96 94 94 89 87 91 91 90 86 88 91 88 91 92
20 30 38 85 88 75 65 82 64 70 68 70 73 74 73 77 71 71 67 61 62 68 75 77 85 88 88 88 91 89 88 89 89 89 92 95 95 95 92 92 93 91 90 87 83 91 91 90 90
24 25 45 68 81 67 72 76 63 79 60 61 64 72 79 86 80 86 89 77 72 69 78 72 81 82 87 90 91 93 92 90 93 92 92 90 95 93 89 92 93 91 89 88 86 94 91 90 92
25 29 25 39 67 57 83 88 79 79 84 79 79 74 75 78 78 76 86 86 86 74 84 73 77 71 85 88 94 93 94 92 89 88 92 87 91 93 88 90 94 94 92 90 92 95 92 92 92
19 23 35 46 69 66 80 95 89 97 98 98 98 98 95 86 84 89 89 89 94 92 83 82 85 74 86 92 94 91 94 92 90 90 90 90 91 88 87 91 92 91 92 92 91 94 92 92 94
31 39 43 39 51 58 73 86 94 92 88 97 94 94 97 95 95 90 93 95 97 95 95 88 93 91 91 94 94 93 94 92 94 93 91 90 89 91 92 93 92 91 92 92 94 94 91 91 92
28 29 37 43 48 80 68 89 84 91 98 97 92 92 97 97 97 96 95 96 98 97 96 97 98 97 98 97 95 95 94 94 95 96 93 91 93 93 94 91 92 91 91 93 94 94 88 92 90

GFSSGP_sfc_rhum_096.txt.gz
RH
81 78 75 77 89 90 95 90 83 58 53 49 37 46 54 71 71 74 87 81 86 86 84 82 80 77 76 75 76 78 75 78 78 77 76 76 76 76 76 75 73 72 72 68 66 68 69 67 69
80 74 79 93 92 92 91 82 79 66 48 38 42 56 73 90 82 90 92 84 82 87 90 86 83 76 74 74 73 76 76 73 76 76 74 74 76 74 77 73 73 72 71 71 71 70 70 70 69
74 63 90 94 97 92 91 77 73 56 40 41 67 65 78 87 82 89 88 83 85 96 94 83 76 74 72 73 74 72 75 75 75 79 76 75 75 75 75 74 74 74 73 72 72 70 69 69 69
69 84 90 92 91 80 81 75 59 48 43 62 68 86 78 69 78 85 83 84 95 97 91 79 75 75 76 76 76 74 73 77 75 75 76 75 75 74 73 73 75 72 72 72 70 69 65 66 66
69 91 97 96 90 84 70 65 66 60 57 62 63 86 89 85 81 84 88 88 96 97 93 83 78 76 77 76 74 75 73 74 75 74 76 75 73 72 74 73 70 69 70 70 68 67 66 68 70
94 92 95 96 87 82 72 78 78 71 70 71 71 81 94 85 87 86 88 94 96 97 92 88 79 76 74 73 76 75 75 75 75 75 74 74 75 75 72 72 71 69 68 69 65 67 67 67 67
93 96 93 84 86 92 77 74 78 69 69 71 62 92 89 90 82 86 94 98 96 94 93 91 87 79 74 77 76 75 75 73 74 74 75 75 75 72 73 72 70 69 68 68 68 69 69 69 69
80 93 82 84 85 90 71 66 63 62 70 54 59 93 90 84 83 89 95 98 97 96 94 95 91 90 90 86 76 74 74 73 75 74 73 74 73 71 71 77 73 69 68 69 70 70 70 70 71
78 96 90 87 88 75 69 70 63 57 58 58 57 69 76 84 81 92 98 98 98 94 98 97 96 95 93 87 81 78 70 73 74 77 80 87 94 89 83 75 70 68 67 67 68 67 67 70 70
87 96 84 82 80 72 63 64 67 64 70 73 80 78 81 80 82 92 97 97 99 100 99 98 96 95 92 80 94 94 88 91 94 92 92 95 93 87 86 77 72 71 72 66 64 63 64 73 72
84 87 77 84 77 70 60 64 55 71 80 68 87 88 85 82 84 85 90 94 97 98 96 98 97 96 93 94 97 98 92 92 92 91 91 89 89 92 96 96 88 86 80 90 82 78 84 79 84
85 79 77 82 68 61 64 62 61 62 72 62 70 76 78 82 83 83 88 91 94 96 95 96 96 97 93 95 93 93 90 90 89 89 88 90 90 92 93 95 92 92 87 91 90 87 87 84 82
81 73 77 72 64 66 62 58 61 71 66 64 68 72 76 77 78 78 79 80 90 94 93 94 95 95 92 94 93 91 91 90 88 87 86 88 92 92 93 93 90 91 92 91 88 89 81 88 68
64 63 84 90 75 66 71 73 63 70 65 69 73 75 73 73 74 78 77 82 88 90 90 90 92 92 91 93 91 90 90 89 87 88 86 86 90 92 90 91 89 93 90 92 90 88 85 80 67
61 75 81 84 77 78 77 88 72 80 67 72 74 73 72 72 70 75 73 79 83 86 86 89 89 87 90 91 89 88 88 78 86 90 85 85 88 88 89 92 93 94 96 91 92 88 79 74 66
75 73 83 82 91 86 90 97 91 89 66 71 71 70 70 67 67 68 70 76 80 83 87 86 71 82 87 90 89 87 85 84 86 92 92 84 87 85 88 88 91 86 93 86 90 84 81 77 74
54 88 78 81 63 78 80 97 82 76 64 67 69 68 67 64 64 67 68 73 78 83 85 86 82 83 86 88 88 87 84 85 87 87 94 86 84 85 88 85 87 91 91 87 83 85 79 76 73
51 62 73 74 74 70 73 84 80 78 68 64 63 64 62 65 59 64 63 68 76 81 82 83 84 86 89 90 91 93 89 90 87 90 88 85 89 84 92 89 88 92 85 82 90 84 81 80 81
39 37 62 87 91 83 85 86 87 76 78 79 68 60 60 64 60 64 61 64 74 78 82 85 86 90 91 91 93 92 90 90 89 89 87 86 89 88 88 93 90 90 90 88 82 80 85 79 81
35 65 89 85 82 83 90 92 77 77 76 74 77 59 59 59 72 68 67 68 71 77 81 86 87 92 89 87 91 87 92 89 89 93 88 88 88 88 90 92 88 84 88 89 89 85 81 79 83
40 42 89 85 81 77 86 89 91 73 78 76 74 73 64 60 71 66 71 71 70 75 82 84 87 91 88 87 90 94 91 90 95 92 90 87 84 85 89 91 90 90 90 88 88 88 84 81 82
54 35 48 80 86 80 85 87 79 75 86 81 74 73 71 61 64 68 69 72 69 70 74 83 86 90 87 89 88 87 88 91 93 95 95 92 85 82 84 85 89 89 88 88 85 83 83 85 86
37 28 47 77 87 90 89 88 75 79 83 90 86 74 67 55 65 68 64 67 64 66 72 80 87 89 90 90 89 87 92 91 93 95 92 92 92 88 83 88 89 90 86 86 83 87 88 94 90
25 26 57 73 87 91 76 76 83 95 73 78 80 76 68 60 64 66 58 60 62 61 71 80 87 90 90 90 90 90 88 91 94 92 94 94 95 93 86 87 90 90 88 83 85 89 86 87 86
25 28 55 86 90 85 84 86 72 78 71 70 79 77 74 67 66 68 69 67 64 64 71 81 87 88 91 90 91 89 88 90 94 89 89 93 92 92 90 91 94 93 90 86 86 90 88 86 85
26 33 52 79 91 77 84 86 64 79 73 64 68 71 71 69 69 72 78 82 83 75 72 78 84 85 89 91 92 91 91 90 95 92 89 88 94 90 87 89 91 90 88 86 85 87 84 85 85
29 30 29 51 70 77 89 77 76 84 86 74 76 78 81 76 74 73 78 86 85 76 77 77 81 82 87 89 91 92 92 90 87 88 92 88 91 90 85 86 89 91 90 89 91 92 88 88 89
24 25 35 50 68 72 71 90 72 99 97 94 84 83 81 83 79 78 81 81 83 81 83 73 77 82 84 86 91 90 93 90 89 89 89 90 92 90 87 85 87 89 90 90 90 92 89 89 86
35 39 45 44 62 64 73 78 91 93 94 97 94 93 92 87 91 90 93 91 89 93 88 90 91 90 88 87 92 92 90 90 91 90 89 89 89 92 93 92 94 92 90 89 92 92 89 88 88
40 39 39 46 48 73 63 71 81 83 92 89 93 97 94 96 95 92 94 96 96 98 96 95 97 96 93 93 94 93 93 92 93 95 90 89 90 91 94 91 92 90 88 90 91 90 87 92 89

GFSSGP_sfc_rhum_099.txt.gz
RH
64 58 57 70 72 66 75 75 61 42 39 31 31 33 45 64 55 46 52 60 56 56 60 66 80 76 77 79 77 74 76 79 76 76 77 76 76 76 74 73 72 72 70 69 69 69 70 71 72
57 61 60 83 73 70 72 64 51 37 33 28 35 37 55 73 62 63 63 63 54 55 54 58 82 77 73 73 77 76 73 74 76 74 75 76 75 75 73 72 72 73 73 71 71 71 69 69 68
56 58 73 88 87 76 72 62 48 41 33 32 49 52 64 76 61 64 56 58 56 60 58 64 76 75 72 72 72 76 76 74 74 74 75 76 75 74 72 72 73 72 72 71 70 70 70 71 72
55 67 83 85 83 66 65 59 49 36 40 52 50 69 65 55 61 65 58 55 56 59 52 68 73 72 76 77 73 74 75 74 75 75 74 75 74 73 72 72 73 72 71 71 68 66 66 68 68
60 85 88 93 78 70 58 54 40 38 44 56 54 75 70 72 63 60 60 55 57 53 53 55 79 78 75 74 76 73 75 75 75 76 75 74 72 73 70 70 71 71 70 68 70 67 69 71 73
89 85 96 91 73 71 60 56 44 45 56 61 60 60 77 73 65 65 57 58 52 51 53 62 75 74 73 74 77 76 76 74 75 75 74 74 73 72 73 70 68 69 68 66 68 68 68 68 70
87 95 89 84 72 73 67 56 52 53 56 58 49 59 87 74 70 63 60 57 53 57 58 58 60 69 73 74 76 77 75 74 76 75 76 73 74 73 72 72 69 69 66 66 68 68 69 69 69
74 82 79 70 77 76 61 55 52 49 60 47 43 68 83 75 70 65 60 58 58 58 58 63 62 60 65 62 74 74 72 73 73 74 72 73 71 71 74 75 73 69 68 67 69 69 69 71 71
85 90 80 73 81 67 55 58 54 47 49 51 51 50 55 69 67 65 67 70 62 66 67 65 58 66 72 68 69 71 72 74 76 77 82 76 66 56 54 71 69 67 68 67 67 66 68 73 71
76 81 80 76 75 59 54 53 52 52 56 68 69 66 66 67 66 61 65 79 63 68 68 63 62 61 61 60 73 75 65 65 67 68 71 63 67 64 62 68 73 76 72 69 68 67 71 60 50
72 75 73 68 65 53 53 55 45 52 58 61 70 70 65 64 57 50 52 63 60 64 65 64 69 72 63 72 67 62 60 63 65 71 66 68 63 65 60 58 53 56 68 51 52 49 48 56 53
72 68 67 73 66 55 55 48 52 48 54 48 55 59 61 56 44 44 50 58 63 65 65 63 66 75 71 75 58 61 59 58 57 62 69 67 58 60 65 57 62 62 55 63 60 53 62 60 60
67 63 67 73 63 64 50 52 52 59 54 53 56 57 54 49 47 44 46 52 58 63 64 64 69 76 76 72 64 61 62 56 58 59 64 58 57 65 62 67 59 64 59 56 59 60 58 59 46
55 61 76 74 68 84 62 59 45 60 52 57 57 55 53 53 50 49 52 56 60 61 64 63 67 72 70 69 74 68 62 61 58 58 60 68 58 67 61 62 60 63 59 60 62 63 56 50 45
52 73 68 73 70 86 78 74 78 60 51 58 56 55 54 52 50 48 50 56 58 58 61 63 64 65 69 69 68 64 60 54 57 59 67 67 65 70 73 63 62 63 67 67 63 58 53 45 42
59 57 74 78 74 84 82 88 82 71 55 58 57 57 57 56 50 50 52 52 56 57 65 64 51 59 63 67 66 60 60 56 58 59 61 65 68 70 68 60 61 61 62 57 55 52 50 49 46
56 70 62 89 83 94 81 96 89 82 59 58 58 56 56 56 55 54 51 54 54 59 65 67 64 65 66 72 65 63 66 58 57 55 60 69 66 66 63 57 61 69 58 56 54 52 56 51 48
49 62 58 78 90 82 89 83 90 87 77 62 66 56 56 54 52 51 52 52 54 59 64 65 63 69 73 69 72 64 59 60 61 61 59 68 64 66 70 62 67 64 56 55 57 65 57 54 53
26 40 59 76 79 85 84 75 88 72 76 79 62 57 56 52 51 48 50 52 54 58 64 66 69 74 71 69 65 64 58 62 62 61 68 68 69 70 75 62 66 62 62 68 64 56 61 50 56
35 49 71 78 82 74 92 88 69 68 67 80 71 56 57 54 48 52 52 54 52 59 63 68 70 75 75 66 70 64 65 59 60 66 68 68 68 72 69 73 64 67 60 71 71 70 52 54 59
22 31 58 67 74 69 75 93 94 68 69 70 75 62 49 55 47 52 53 52 52 58 64 68 71 75 75 72 69 72 69 66 65 64 63 75 67 67 72 72 66 70 65 57 68 66 67 54 58
26 24 53 66 54 58 62 66 79 76 72 78 78 74 51 47 46 47 50 53 52 56 58 65 71 74 73 75 70 81 64 76 58 66 78 80 67 65 63 70 72 74 62 70 65 61 65 63 58
25 27 55 53 65 60 65 66 65 68 76 77 76 66 53 46 43 46 48 50 49 54 56 61 71 76 72 76 71 72 69 60 63 66 81 81 80 71 65 74 74 74 60 69 69 71 76 61 56
22 49 49 55 58 62 43 43 56 69 64 65 70 68 58 48 45 46 48 51 52 52 55 59 73 77 76 75 74 75 74 72 67 67 62 62 61 63 70 68 74 74 70 69 64 73 71 68 65
20 31 54 65 52 41 53 55 38 53 53 51 64 66 63 51 49 50 58 64 55 57 56 59 69 76 74 73 72 73 76 74 76 78 61 66 91 81 74 78 83 69 73 69 70 76 73 69 62
21 22 33 58 51 39 61 51 40 53 56 48 51 54 60 54 54 53 56 66 62 62 58 59 65 73 72 71 78 76 79 59 63 68 60 59 62 57 68 68 75 74 72 70 71 62 60 68 61
20 22 20 32 39 40 52 50 47 62 61 54 50 56 62 62 53 67 58 60 58 67 62 61 65 68 69 65 72 76 78 73 66 71 70 60 71 62 67 68 71 71 75 73 75 59 68 70 70
16 15 20 24 44 45 45 56 37 73 73 62 58 56 60 61 57 62 74 75 78 72 76 64 60 65 64 65 66 64 69 74 71 71 72 73 72 73 73 72 69 72 74 74 81 71 74 76 64
20 19 24 18 25 30 34 42 58 65 79 67 66 61 65 62 63 63 70 80 85 73 77 75 74 76 63 66 70 74 67 68 72 73 73 73 75 76 75 78 74 71 71 74 80 80 71 77 75
25 20 19 21 34 29 26 31 68 68 74 75 72 70 66 66 66 71 68 72 84 92 92 80 80 84 73 69 81 68 73 74 73 74 72 72 74 74 76 76 75 74 76 74 75 74 71 76 73

GFSSGP_sfc_rhum_102.txt.gz
RH
56 39 37 49 55 37 44 54 32 32 29 24 22 24 34 44 36 42 30 35 36 37 43 58 76 76 78 76 73 75 75 76 76 76 76 76 75 75 74 71 71 72 71 70 70 72 73 71 67
34 48 50 54 48 38 47 40 34 28 23 22 23 30 37 51 37 36 39 37 36 34 38 44 81 76 74 76 74 74 74 75 74 75 75 75 73 73 72 69 69 71 72 72 69 70 68 70 70
40 46 53 65 52 41 51 38 30 25 21 24 32 30 43 46 36 33 35 37 34 37 45 56 75 73 70 74 76 74 73 74 74 74 76 74 74 72 72 72 72 72 72 71 71 70 70 72 71
38 50 50 81 55 53 45 36 30 26 21 34 37 49 42 30 40 35 36 35 36 38 38 62 71 71 72 70 74 75 73 72 73 74 75 73 74 72 72 73 72 70 71 67 68 68 68 68 70
36 55 76 70 57 51 40 36 26 25 38 41 38 50 43 44 37 37 38 35 33 30 34 44 75 75 75 72 72 73 73 74 75 73 71 72 71 72 72 73 71 70 68 68 68 69 71 73 74
85 60 90 61 56 53 45 34 27 30 43 46 43 40 51 45 40 39 34 32 28 29 34 46 72 74 74 73 72 73 73 73 73 73 72 71 73 70 69 70 70 67 68 68 68 69 68 69 68
78 90 80 61 56 61 54 32 32 36 43 42 34 41 54 44 41 37 34 31 28 30 36 41 48 66 73 71 75 74 74 73 75 72 74 73 71 70 69 70 69 66 67 67 68 69 70 69 70
66 82 76 53 56 60 48 41 39 38 41 34 30 46 66 56 42 39 36 31 35 34 35 41 46 44 47 48 73 73 73 72 73 71 71 71 70 71 69 76 72 66 66 67 67 68 70 70 72
78 86 70 50 52 55 42 46 42 37 40 36 36 32 44 50 41 39 36 36 37 38 42 42 39 51 52 51 61 68 72 73 76 70 72 69 42 41 48 69 69 67 66 65 64 65 69 68 71
67 80 64 52 54 44 40 42 40 40 43 42 38 39 44 44 44 37 37 38 38 41 38 38 41 44 44 39 54 54 47 45 47 52 49 39 43 48 46 61 72 71 66 68 66 68 66 61 34
58 68 53 70 56 38 40 42 36 37 44 46 49 48 45 43 38 33 37 36 35 39 39 38 45 46 41 49 42 41 42 45 51 54 45 46 43 42 38 43 41 41 59 36 42 42 36 44 39
64 57 54 56 49 39 43 37 38 35 35 36 38 39 39 38 32 30 34 36 38 43 41 38 42 49 46 43 37 39 41 41 40 45 54 52 43 45 45 40 43 44 37 46 43 38 46 44 44
52 55 60 59 52 39 37 39 42 43 38 35 35 36 34 33 29 29 32 36 39 40 40 41 48 56 61 51 40 40 44 38 40 42 48 43 42 50 45 49 43 44 39 38 42 43 41 42 37
45 52 54 71 64 58 40 39 35 42 38 38 36 33 31 29 27 32 35 39 43 40 41 43 48 56 54 55 56 49 42 43 39 39 46 53 43 51 45 47 43 43 39 39 41 47 37 35 32
44 65 68 62 58 81 50 50 44 39 35 38 35 34 32 31 31 36 36 39 40 38 42 48 49 51 56 58 54 44 42 37 38 40 52 53 49 58 54 47 43 43 50 53 46 42 38 32 30
58 55 70 64 66 84 77 68 61 40 36 39 36 34 36 34 33 35 35 36 39 38 47 48 38 45 49 52 52 43 41 38 38 41 45 52 56 57 53 43 42 45 44 39 38 35 33 34 32
59 62 66 80 83 93 82 83 78 48 36 38 38 37 36 38 36 37 36 37 39 43 48 48 46 45 51 59 49 46 55 42 42 41 42 57 54 54 48 43 47 50 40 39 34 35 37 34 32
36 53 62 63 84 90 91 93 89 65 43 38 38 36 36 36 38 39 36 36 38 44 48 49 45 54 56 54 55 44 45 44 43 42 42 54 50 53 51 46 52 46 39 39 40 53 40 35 34
27 45 75 88 88 81 82 84 84 76 70 51 38 37 37 35 33 36 37 36 38 43 49 52 53 62 55 50 46 46 43 46 44 43 55 58 53 54 56 45 50 46 45 54 50 41 47 33 37
30 42 80 91 82 77 94 86 83 68 79 60 40 36 35 33 33 36 38 37 37 44 49 56 60 69 60 52 53 45 44 41 42 45 53 52 54 54 52 57 49 52 45 57 58 57 37 36 43
23 29 47 68 66 68 70 88 92 66 76 78 68 38 32 33 36 39 39 38 38 43 50 55 60 65 62 58 60 58 56 55 49 51 48 50 53 52 55 56 52 56 47 43 53 51 58 37 43
24 24 32 52 56 52 47 79 82 77 75 72 65 55 34 36 36 33 36 40 38 41 44 52 58 62 63 66 57 68 55 58 44 48 45 48 52 51 52 56 56 59 46 57 51 46 51 54 42
25 20 29 31 31 34 45 42 42 64 70 65 52 46 46 33 35 32 34 36 36 39 42 47 59 63 59 67 63 68 54 44 44 44 58 58 58 55 50 55 60 64 47 58 58 57 58 45 41
32 36 34 29 28 34 28 30 55 61 55 55 60 60 53 41 31 32 31 34 36 37 41 44 60 68 64 66 67 65 61 54 47 50 49 49 50 49 53 51 58 63 56 59 52 58 54 64 53
22 37 46 55 38 35 31 31 30 41 39 39 47 60 48 46 34 32 35 36 38 41 43 45 57 67 64 63 62 64 59 61 64 57 46 52 47 46 59 58 60 53 60 59 56 66 59 56 54
21 28 42 44 50 26 34 34 29 30 30 29 34 42 47 46 39 33 35 39 42 42 44 45 54 62 62 59 64 69 62 49 45 49 44 45 51 45 55 54 54 57 57 58 62 51 47 53 47
18 24 18 29 22 26 25 26 31 34 38 37 33 34 47 51 44 39 36 41 42 43 46 47 52 58 59 55 60 63 59 60 52 54 61 45 55 50 59 56 56 56 57 60 62 48 57 58 58
13 12 19 21 32 33 26 29 23 43 41 39 36 38 48 55 51 46 38 41 54 39 43 48 46 54 54 54 53 52 55 56 53 58 58 60 66 63 61 59 57 55 56 58 63 53 57 64 50
14 14 13 12 16 21 24 24 34 38 40 40 36 36 43 55 50 58 60 44 44 44 52 68 47 51 51 52 52 53 52 51 57 53 52 56 57 65 62 69 62 63 62 60 64 64 56 62 59
14 13 13 15 23 18 19 24 41 47 49 46 40 37 41 46 51 61 73 77 77 72 81 73 82 58 55 51 56 63 50 53 49 55 53 57 58 63 61 61 68 61 56 63 64 58 50 60 58

GFSSGP_sfc_rhum_105.txt.gz
RH
55 45 33 40 65 39 39 35 24 24 22 18 16 21 32 33 33 44 26 27 31 33 42 56 75 76 73 72 74 75 76 76 76 76 76 75 74 72 71 73 73 72 71 73 74 73 66 66 70
31 34 40 50 74 35 37 27 27 23 19 17 20 26 39 35 25 30 31 30 28 30 33 46 80 76 76 74 74 73 74 74 75 76 74 74 72 72 71 68 72 72 71 70 68 70 70 70 69
38 38 62 52 53 34 37 28 25 20 18 20 25 31 30 32 27 28 28 28 43 40 39 57 74 71 74 74 72 73 73 73 74 74 73 74 73 73 71 72 71 71 70 69 70 72 72 70 69
32 37 45 68 49 36 29 26 22 21 22 26 30 34 25 27 26 28 26 31 40 39 45 64 70 69 68 74 74 73 72 73 74 73 74 73 73 72 72 71 70 71 69 70 69 69 70 71 70
36 49 91 68 43 32 25 23 20 24 31 32 31 31 36 30 26 27 37 36 47 34 32 45 75 75 72 72 73 72 74 74 73 72 73 72 72 72 72 71 69 69 68 69 69 70 71 71 68
71 63 79 60 42 37 29 22 20 33 38 37 30 35 39 28 31 36 28 29 22 25 33 46 72 74 74 71 73 74 73 72 74 71 72 72 71 72 71 70 68 68 69 69 69 69 69 67 67
64 88 61 51 46 45 34 21 24 33 34 37 26 39 36 34 31 24 22 21 22 41 35 41 45 65 72 74 73 73 73 71 73 72 72 71 71 69 70 68 68 68 67 67 68 69 70 71 70
63 89 58 44 48 54 32 26 24 33 38 25 26 40 41 40 26 24 22 22 31 37 45 44 44 43 49 49 72 73 73 72 71 71 71 71 71 69 71 74 68 67 66 66 66 68 70 72 71
67 90 60 46 47 51 35 42 36 35 32 29 27 30 31 28 25 25 26 33 33 42 37 44 39 60 64 51 61 69 72 75 73 68 70 73 46 44 52 70 67 65 65 64 63 64 68 71 73
62 82 56 43 36 40 34 34 35 33 33 34 30 30 32 29 28 28 28 29 36 50 42 40 36 40 52 40 59 51 50 57 53 54 52 58 44 42 41 58 66 63 63 63 64 66 67 69 54
50 70 68 43 44 30 31 33 26 27 32 32 40 40 35 31 28 27 27 28 31 36 34 42 52 61 42 44 35 35 50 43 49 45 40 42 40 42 37 47 45 44 61 57 51 50 50 34 35
56 50 49 46 46 35 33 30 33 26 29 29 33 32 32 30 25 26 26 30 31 33 33 30 33 52 40 34 32 34 51 55 35 39 46 50 52 58 62 37 37 59 34 40 44 34 40 39 36
46 53 48 46 45 38 32 31 34 32 30 28 29 30 29 25 24 25 25 26 29 30 31 33 39 67 54 42 33 38 39 60 37 47 60 62 60 48 63 60 59 43 48 32 35 35 35 39 33
45 48 55 54 44 37 34 34 29 30 29 30 30 27 24 24 23 27 28 29 31 31 33 36 54 57 53 45 46 41 58 42 40 43 40 48 57 66 40 52 42 54 43 34 38 41 32 31 30
46 52 50 67 61 51 60 39 38 30 28 31 28 24 24 23 23 28 29 30 31 31 35 41 45 44 46 48 45 60 35 46 52 46 47 47 51 52 51 40 63 56 44 48 41 37 34 27 28
54 61 72 70 78 58 54 64 40 31 30 29 25 24 25 25 25 27 28 29 31 34 41 39 34 38 42 45 46 47 41 39 54 36 42 47 52 49 57 62 36 37 42 37 33 32 27 28 28
81 80 72 89 86 75 67 68 41 28 27 27 26 25 26 27 28 29 27 29 31 38 42 39 51 40 45 50 62 52 47 58 38 38 62 50 49 50 67 67 45 60 40 34 45 28 40 30 28
76 83 70 87 87 84 90 86 59 30 30 33 30 28 31 29 29 29 28 28 31 39 42 41 38 47 58 58 61 55 63 64 38 63 61 51 47 48 52 49 46 59 42 36 36 54 35 34 31
68 88 77 90 80 82 88 86 78 59 43 52 40 33 34 34 31 29 29 28 32 38 42 44 46 55 48 44 45 67 70 69 68 65 49 50 49 51 54 66 47 48 54 53 46 42 46 30 32
22 48 79 94 78 68 90 91 87 77 52 54 43 40 33 34 33 32 39 32 30 38 43 47 52 57 56 42 74 69 64 50 62 62 49 52 49 53 49 59 55 72 45 52 54 55 42 30 31
21 62 71 81 87 80 78 92 91 81 66 61 64 54 30 32 33 34 42 34 33 38 43 48 53 60 58 64 74 54 49 57 40 44 45 47 48 48 52 53 66 51 65 59 57 47 53 36 34
23 40 60 72 61 71 60 89 88 80 83 78 56 52 45 27 32 33 35 34 32 36 38 48 55 60 58 59 71 80 55 47 72 52 63 46 48 47 49 52 52 57 55 60 58 48 58 59 35
21 19 69 67 45 35 58 54 64 81 85 87 69 50 45 51 26 30 31 29 30 34 36 42 54 61 57 63 76 56 63 81 90 69 62 61 59 52 48 52 54 56 50 55 58 53 61 45 47
19 26 27 28 32 32 39 32 50 65 67 65 56 54 52 41 30 35 33 36 28 32 36 39 55 64 60 63 61 64 70 79 80 62 59 48 45 46 50 49 54 57 62 54 51 56 56 62 60
22 26 36 37 27 27 31 28 42 40 43 49 47 45 42 36 48 30 54 31 39 52 42 37 52 61 59 58 58 58 56 57 59 55 50 80 54 41 55 56 58 52 60 57 56 61 60 54 54
21 21 33 51 38 25 26 29 41 30 32 32 34 36 32 34 38 37 33 34 45 57 46 38 50 60 58 56 61 60 59 45 45 48 74 77 58 60 61 54 52 53 54 54 57 50 47 55 49
16 21 17 25 55 46 35 29 44 26 29 30 30 35 38 38 36 50 28 36 68 35 54 43 50 55 55 51 58 62 59 59 60 95 70 55 51 59 52 50 52 51 53 54 58 51 55 57 56
12 12 17 18 35 40 27 33 36 39 32 30 27 30 37 37 41 37 41 38 30 35 34 45 46 50 50 48 49 50 53 55 53 57 59 94 64 61 70 54 53 54 54 55 60 53 57 58 51
11 13 13 12 14 19 22 28 35 39 31 31 29 27 33 44 47 71 54 69 32 35 38 42 48 53 49 46 48 47 46 45 49 48 51 53 54 57 55 61 59 59 56 57 65 67 67 58 59
8 10 11 13 21 14 14 48 28 27 27 28 28 28 33 46 48 63 72 60 54 49 43 43 52 56 48 59 51 52 47 46 43 49 47 51 57 60 59 58 58 56 56 59 62 63 47 54 55

GFSSGP_sfc_rhum_108.txt.gz
RH
60 44 40 57 83 80 35 33 22 22 21 18 25 28 33 31 35 59 32 44 42 47 58 64 79 73 74 74 76 76 76 78 77 77 77 76 75 74 75 74 73 74 74 74 68 66 68 72 71
41 36 42 74 84 45 36 25 25 22 18 25 36 26 29 37 31 35 44 31 35 42 48 59 82 78 73 76 74 74 75 76 76 76 76 74 76 76 74 73 72 74 74 70 72 70 69 69 71
58 38 71 71 80 59 38 25 24 20 18 29 51 35 29 37 29 32 35 34 41 46 51 68 78 77 74 73 74 74 73 75 74 76 75 75 75 73 72 72 70 70 71 72 72 72 69 69 70
38 41 58 89 66 30 28 24 21 22 24 24 26 32 25 26 29 29 32 34 45 48 53 69 72 72 75 73 73 73 74 73 74 76 77 77 74 72 71 72 70 70 71 71 72 72 70 69 68
38 50 69 88 46 27 24 20 20 28 35 27 28 35 34 28 31 34 35 40 41 40 44 58 77 72 74 74 74 75 74 73 76 77 76 75 73 72 71 70 70 70 70 71 69 71 68 67 66
70 62 80 79 39 29 23 19 24 36 47 48 32 35 37 30 33 30 29 32 28 35 47 57 74 74 73 73 74 73 72 75 78 76 73 74 74 72 72 70 70 69 69 70 70 69 68 67 67
71 91 67 64 61 49 29 21 42 36 34 30 29 38 35 33 28 36 34 37 53 37 44 54 58 69 73 74 74 74 76 75 74 77 76 77 74 72 71 72 71 68 68 68 69 71 71 71 67
78 87 74 62 65 41 24 27 39 35 37 23 26 38 46 34 28 24 37 58 59 38 46 50 54 55 61 61 74 72 75 74 73 75 75 76 73 71 69 76 73 68 67 67 69 71 72 72 71
68 82 86 52 41 33 23 38 33 33 36 28 27 30 32 24 25 23 39 39 40 44 49 46 48 61 67 67 68 72 72 74 74 71 76 77 63 59 61 72 69 67 66 65 69 71 73 72 71
76 98 68 48 34 30 29 37 35 39 29 36 30 30 27 24 25 29 49 43 44 50 43 72 47 52 54 44 67 70 69 60 58 61 76 81 63 59 48 65 70 66 64 67 71 73 71 70 61
56 95 88 58 40 30 34 42 26 30 38 35 36 31 26 26 26 27 38 39 40 43 45 54 50 59 60 58 54 61 66 60 64 64 88 66 56 60 55 66 63 66 69 70 63 65 63 84 70
52 88 74 78 35 42 27 24 26 26 32 28 31 29 26 27 25 26 33 39 40 48 50 39 52 62 56 49 56 57 58 59 49 54 66 72 70 65 89 92 82 70 69 89 82 60 58 59 48
60 49 58 55 39 34 24 26 35 32 32 29 31 30 27 25 24 25 35 33 30 37 42 42 57 70 61 59 58 60 63 51 50 86 80 68 67 75 66 80 83 72 71 59 67 66 58 59 49
48 46 45 41 42 58 32 34 26 31 27 30 30 29 26 24 24 27 32 31 34 37 44 52 55 57 61 64 72 70 71 53 61 78 96 86 69 81 69 82 78 82 69 61 63 69 60 59 47
42 57 48 60 55 67 41 40 32 27 26 30 29 27 25 23 24 27 28 31 32 35 50 58 59 57 65 61 64 71 65 48 58 56 89 80 68 72 85 76 74 68 67 64 63 63 52 53 46
50 57 66 57 61 77 51 67 33 28 29 30 26 24 25 24 24 27 27 32 32 39 54 60 42 44 51 60 67 62 62 55 63 53 60 68 63 67 77 76 68 59 69 70 72 65 58 55 56
64 91 74 82 84 76 60 65 39 27 28 29 25 24 24 26 27 28 27 34 35 44 48 59 55 48 58 66 64 65 62 59 62 62 65 68 61 61 80 72 64 66 71 67 76 60 63 61 52
82 86 82 88 90 88 62 60 37 28 28 27 26 24 26 28 29 28 27 31 38 44 47 57 60 69 65 70 76 63 65 65 69 69 67 64 64 59 76 75 67 81 72 69 69 69 62 68 51
47 64 86 95 87 87 85 86 64 45 33 39 27 28 31 30 30 27 29 31 38 44 48 59 69 76 68 72 69 70 68 76 77 72 68 68 66 62 70 73 74 94 94 72 69 71 70 66 59
47 71 94 91 87 88 94 87 88 74 68 39 48 34 31 35 38 31 32 32 35 45 52 60 67 73 74 64 81 76 72 73 73 71 67 69 66 66 68 74 86 79 75 72 72 74 76 62 58
71 73 84 84 82 88 89 94 94 79 70 65 65 51 47 40 49 34 35 34 36 47 53 59 70 69 74 75 71 78 81 77 76 67 64 66 68 63 82 68 81 80 80 74 73 75 81 76 62
68 50 53 73 80 82 65 91 91 87 80 64 61 54 48 50 43 38 34 43 36 46 48 61 68 70 68 79 80 84 74 77 73 72 76 70 69 68 62 64 65 76 91 88 79 67 79 83 78
49 39 43 61 73 57 75 69 85 89 85 73 63 52 46 64 50 42 31 45 38 42 45 55 69 75 80 83 82 76 82 96 94 94 81 78 72 64 64 67 67 72 80 78 74 75 83 80 85
27 41 46 62 85 95 62 60 65 80 66 57 47 42 47 45 62 48 34 46 38 38 42 55 70 76 78 78 79 81 84 90 94 97 96 88 70 67 70 64 72 73 76 83 70 76 78 80 84
21 44 51 76 95 62 37 59 56 59 53 47 47 42 52 53 51 61 39 35 43 48 42 53 72 76 72 73 72 77 80 87 92 88 93 95 90 77 73 75 72 72 76 77 73 77 79 78 78
19 22 29 48 45 79 74 44 38 42 38 41 44 40 50 52 48 58 36 50 57 56 64 52 66 74 72 72 77 75 74 64 72 86 97 97 97 96 77 73 73 72 73 72 75 76 74 75 75
18 21 16 40 49 36 59 48 38 38 36 41 43 46 40 42 39 42 44 52 65 54 66 74 66 68 69 64 73 76 74 70 85 86 90 90 96 96 82 72 70 69 67 71 76 76 78 86 87
13 13 18 17 47 50 55 53 88 46 42 41 47 46 41 37 37 42 46 68 64 56 47 67 81 64 64 62 66 64 67 69 74 77 95 89 94 95 90 86 66 67 73 71 74 79 78 73 74
10 14 15 13 17 28 66 73 71 48 38 34 41 42 42 35 34 43 57 67 75 49 53 54 56 60 59 59 63 66 63 64 66 68 71 80 84 90 80 88 70 69 73 75 75 81 80 74 75
9 10 12 16 25 19 24 46 44 66 70 48 30 40 42 38 38 42 57 72 84 89 68 54 58 56 53 55 63 64 62 61 61 66 68 69 76 78 76 80 79 74 71 72 78 78 76 76 73

GFSSGP_sfc_rhum_111.txt.gz
RH
76 63 59 83 94 93 47 39 32 39 45 33 35 35 41 38 48 81 55 60 64 69 72 71 80 77 77 78 78 78 78 77 78 79 79 75 75 75 75 75 74 74 72 65 68 72 72 71 72
54 49 66 84 94 75 45 33 33 45 37 33 34 39 45 53 43 56 66 60 60 69 74 79 81 79 77 78 77 76 77 76 76 77 79 75 75 75 74 71 70 71 73 72 70 68 69 70 71
56 55 85 96 85 63 52 31 30 37 33 34 38 35 42 55 45 53 54 55 57 65 77 79 82 79 77 76 75 76 77 75 76 76 76 76 73 71 70 71 72 74 72 72 71 68 70 69 70
49 65 79 89 83 50 36 30 26 34 30 30 32 41 40 40 48 66 64 54 62 72 79 79 78 74 74 75 75 75 75 75 76 76 75 73 73 72 72 72 71 72 72 72 72 68 67 67 66
46 70 95 91 72 32 27 26 35 34 33 34 37 50 57 42 53 64 68 63 78 76 73 72 79 77 76 75 75 75 74 75 76 76 75 74 72 71 71 70 71 72 71 70 72 67 66 65 64
71 70 87 86 47 36 27 31 38 39 38 39 42 56 57 43 47 58 56 64 53 66 75 70 76 76 77 75 75 75 75 76 76 76 75 74 73 72 74 70 69 69 69 69 68 66 65 65 64
81 89 82 70 59 44 40 36 46 39 38 40 38 60 52 51 58 48 42 43 57 64 72 78 77 72 75 77 73 74 76 75 74 76 75 74 72 71 71 70 69 69 69 69 68 68 67 66 62
89 86 76 73 59 41 37 41 37 35 41 30 34 55 59 56 70 52 49 58 64 62 69 73 77 81 83 80 74 73 74 74 75 74 74 76 72 70 71 77 74 68 68 68 69 69 69 68 66
72 92 89 73 65 43 45 55 44 32 34 31 32 39 38 39 47 55 61 70 56 59 65 76 69 82 84 84 73 74 72 73 74 76 73 81 91 75 71 74 72 68 67 67 68 69 70 72 72
79 94 94 76 72 45 45 49 39 42 44 40 40 34 32 44 49 57 59 56 62 81 69 80 68 73 76 60 84 86 78 84 90 83 85 92 84 90 70 74 70 66 65 65 67 76 80 71 77
79 92 86 80 70 35 40 41 34 40 53 44 45 38 30 34 45 48 49 54 60 61 57 66 66 65 68 71 84 84 85 83 82 73 84 92 89 78 81 84 94 80 74 62 68 70 89 87 81
68 83 85 83 72 73 42 36 40 37 43 35 35 34 31 33 45 48 49 48 56 53 58 62 65 65 71 70 79 80 82 80 80 84 88 93 94 89 86 97 98 96 90 85 90 82 69 76 75
63 87 80 82 78 80 43 40 41 40 38 32 29 29 33 32 43 44 43 45 52 49 51 61 60 64 63 62 82 74 77 69 79 95 90 91 94 94 93 95 96 82 92 84 79 76 64 66 58
62 79 72 83 85 58 45 43 37 40 37 35 33 33 31 33 42 43 41 48 52 56 56 67 67 67 67 73 61 70 76 75 79 81 82 84 86 96 96 87 94 94 96 84 77 65 69 65 51
52 67 63 70 63 70 71 47 46 38 36 38 36 33 30 33 40 42 42 44 54 63 65 68 65 62 67 72 68 67 68 68 92 78 65 70 75 74 87 84 84 80 82 67 68 67 69 74 72
85 70 79 75 72 70 81 70 44 36 36 40 34 32 29 30 37 34 36 43 58 62 66 55 48 61 62 71 70 70 70 74 77 80 78 68 72 80 79 85 80 78 80 90 77 69 67 74 70
81 93 84 80 78 73 85 67 47 35 34 37 34 31 30 31 38 35 38 48 57 64 70 57 62 62 66 67 73 66 65 71 71 76 78 72 67 69 80 88 91 88 87 87 78 72 65 62 61
86 85 81 87 85 84 87 66 50 37 38 36 35 35 36 35 39 38 39 44 48 63 60 65 67 62 73 74 78 76 77 73 76 74 72 71 73 66 80 85 78 82 93 79 78 78 72 64 63
60 72 90 92 93 87 95 83 78 70 45 42 37 37 35 37 37 36 41 45 49 59 58 63 66 76 73 69 77 76 77 77 82 72 68 67 70 67 75 86 61 70 90 87 78 76 74 74 71
64 82 89 91 88 90 94 94 85 79 81 74 67 33 38 36 38 40 46 47 49 60 60 74 77 78 70 72 82 79 78 85 84 80 74 68 71 68 79 88 82 76 93 84 77 81 85 80 68
66 80 83 82 88 82 92 93 92 77 77 67 66 60 47 39 44 44 48 48 51 61 67 74 71 73 82 78 83 85 82 85 85 74 80 69 71 69 74 83 92 87 86 90 87 84 85 93 81
77 66 66 78 82 89 82 95 94 87 82 78 65 64 57 58 48 41 47 49 51 58 62 69 77 77 81 80 83 81 90 88 91 92 85 75 72 70 69 70 79 82 89 85 90 73 86 90 90
72 68 72 66 85 87 88 98 83 81 80 76 65 62 54 54 47 42 46 44 50 54 61 68 76 83 84 84 85 89 94 94 94 94 89 94 83 68 67 71 71 85 87 88 82 86 86 87 93
56 76 70 70 90 94 72 84 72 95 79 62 57 58 59 58 62 54 55 52 50 50 58 69 76 84 89 83 85 85 90 87 93 94 97 98 96 84 70 72 82 82 83 84 82 86 79 86 87
63 81 98 97 95 87 76 84 68 56 60 52 47 50 55 61 72 69 67 53 49 54 56 72 79 88 87 85 88 85 86 88 85 90 96 96 96 97 96 92 78 80 80 80 83 81 81 85 83
52 53 63 80 82 83 79 89 70 55 44 46 44 37 48 63 64 66 60 57 48 52 59 64 79 87 85 86 87 87 89 98 96 93 98 97 97 98 95 96 78 74 84 80 83 83 86 83 84
27 46 28 65 61 56 78 82 71 57 50 49 46 41 44 57 56 64 59 71 66 54 64 73 76 78 86 79 87 86 86 93 96 95 95 86 90 92 93 95 88 80 79 78 80 86 83 84 79
24 23 33 44 72 75 65 56 79 66 65 55 47 42 46 50 56 57 59 72 72 60 76 78 84 78 75 81 78 80 86 89 92 92 96 91 92 85 95 95 88 83 76 73 80 89 80 89 88
20 26 28 28 34 56 79 74 74 54 66 75 72 48 47 48 48 50 57 67 75 69 78 85 83 86 80 82 73 81 83 79 90 92 96 95 90 95 97 95 92 80 78 81 84 84 80 82 82
16 18 23 36 33 32 43 58 44 54 64 71 69 79 59 46 45 46 61 80 85 91 79 78 76 80 78 78 72 89 79 79 81 83 86 82 91 95 94 87 90 82 81 84 90 84 84 83 84

GFSSGP_sfc_rhum_114.txt.gz
RH
75 69 68 89 94 94 57 61 48 46 42 42 36 38 42 50 50 79 67 72 70 76 81 75 81 77 78 78 78 78 78 77 77 75 74 74 76 76 76 74 74 70 68 72 72 70 72 72 70
60 55 79 92 88 60 57 47 53 47 41 38 40 44 52 65 59 74 82 70 71 76 81 81 83 80 78 78 78 78 76 77 76 76 77 76 75 74 73 72 69 71 71 68 70 71 71 71 70
56 65 91 93 93 67 54 48 46 42 39 40 46 45 52 73 63 66 69 69 74 82 91 80 80 80 76 77 77 77 76 76 76 75 75 73 73 74 73 72 73 71 69 67 68 70 70 71 69
58 87 77 85 84 58 42 46 40 40 39 41 46 59 52 49 57 62 64 69 78 86 91 79 77 76 75 76 76 76 76 77 75 75 73 72 71 70 70 71 72 71 71 71 67 68 68 67 68
48 72 90 85 75 44 37 36 35 40 50 54 52 62 67 67 55 59 66 74 87 91 88 82 79 76 75 76 76 75 76 77 76 76 74 73 73 72 72 71 71 71 71 71 65 65 64 65 68
76 72 85 85 45 40 40 36 38 48 56 58 58 62 79 63 63 70 74 81 77 81 82 79 78 76 76 75 75 76 76 77 77 75 74 72 71 71 70 69 69 68 68 67 64 64 62 63 64
79 92 90 76 58 58 46 35 42 49 50 53 49 74 83 70 67 73 67 68 76 78 82 85 82 74 76 75 76 76 78 77 76 75 74 74 72 71 70 69 68 67 66 65 65 64 62 62 62
87 90 85 72 70 61 48 44 39 44 52 42 44 70 88 79 68 58 58 74 83 81 84 90 88 88 88 82 75 76 74 75 75 75 74 72 72 70 70 77 73 67 65 65 66 68 70 71 68
76 91 86 70 64 60 43 41 43 37 45 41 41 50 58 57 50 57 73 89 86 79 84 91 91 94 92 86 75 76 74 74 75 77 75 81 92 80 79 74 69 66 65 65 67 70 71 69 69
78 98 90 79 79 67 42 43 38 41 41 43 46 56 52 53 56 67 73 83 90 87 87 93 87 92 91 70 88 88 85 94 93 92 92 95 93 91 78 75 67 66 64 65 68 71 72 78 84
72 93 87 69 67 73 54 41 37 42 47 41 57 57 55 54 54 60 64 73 76 75 79 81 84 88 84 86 95 94 90 91 78 80 92 91 94 91 89 90 94 92 78 78 72 75 81 80 84
86 82 85 74 66 76 65 43 49 43 47 37 45 53 54 56 61 59 60 66 70 77 73 71 76 81 80 86 90 89 91 92 89 84 89 95 90 89 90 97 92 92 96 80 85 87 73 74 76
77 79 72 75 73 68 69 55 49 50 43 37 45 47 51 56 54 54 55 60 62 62 67 70 72 76 79 82 95 90 88 88 88 94 93 91 82 91 88 95 95 94 88 91 82 83 76 79 78
72 79 78 78 78 78 63 51 47 50 39 37 36 37 44 50 50 52 56 60 59 61 64 68 69 69 66 75 83 87 92 86 92 95 94 87 93 93 97 94 92 94 96 90 86 82 76 71 62
74 85 81 83 91 80 66 53 54 41 34 38 36 36 41 49 46 48 50 57 59 57 68 72 71 73 77 72 75 81 82 82 87 73 83 82 88 91 94 94 92 96 95 90 78 78 72 79 76
80 76 97 95 82 70 68 84 52 40 39 44 37 37 49 47 47 45 51 58 61 63 67 69 54 68 73 74 75 75 83 86 88 65 78 68 84 92 94 95 96 92 96 93 84 76 76 79 82
88 95 90 82 82 79 73 76 59 42 42 46 41 39 48 45 45 46 52 60 63 63 70 66 67 66 71 76 79 75 79 84 85 81 90 77 79 84 84 94 89 93 90 92 84 73 76 71 79
90 90 84 89 91 82 88 86 71 46 44 42 43 40 40 42 45 50 56 57 61 66 66 67 69 67 73 79 84 81 84 72 83 83 90 78 77 74 88 90 83 83 91 95 88 83 77 72 70
69 73 87 88 90 91 92 86 84 76 64 53 46 39 40 43 48 54 55 55 61 66 70 72 70 75 82 79 88 82 83 86 86 82 74 78 72 74 79 88 60 90 94 94 90 84 80 75 79
64 86 89 88 90 87 94 90 89 82 78 80 67 49 42 46 53 53 52 58 61 66 70 76 73 82 74 77 85 80 86 85 84 83 77 77 76 77 84 87 85 86 90 89 90 89 86 87 81
67 76 84 86 86 91 92 94 93 77 78 72 70 66 42 42 57 56 52 57 60 66 74 73 80 74 80 83 88 87 89 91 91 92 85 72 76 74 85 87 87 88 87 89 91 87 90 90 87
81 61 66 81 79 90 85 96 90 87 74 75 71 67 51 41 55 55 54 57 58 62 68 71 80 81 86 87 87 83 91 91 94 93 91 83 78 74 73 82 87 88 93 88 92 83 92 90 93
68 58 65 68 86 86 85 90 83 83 76 70 69 64 62 59 54 55 55 53 55 61 64 72 82 86 87 85 88 91 92 95 95 93 87 88 92 77 73 75 84 88 89 88 86 87 90 91 95
56 71 72 79 91 95 76 86 78 84 66 50 55 63 62 60 53 52 53 53 55 61 62 72 84 90 88 84 90 89 90 94 94 94 94 95 95 93 88 86 86 86 86 85 87 88 85 91 92
69 86 99 96 93 90 79 89 68 67 65 56 48 59 62 62 64 62 56 58 59 64 70 70 82 94 90 85 90 92 90 91 88 92 95 94 94 96 94 93 88 86 83 83 88 86 84 88 88
68 75 90 85 87 81 80 88 72 50 50 50 49 48 52 59 64 68 62 58 58 62 71 67 82 90 93 90 91 91 91 96 96 91 97 96 96 95 92 93 90 84 85 81 88 88 91 86 86
64 67 50 71 65 70 84 70 68 59 57 59 53 45 49 52 64 63 66 66 63 60 70 71 78 82 90 88 90 90 94 93 95 92 92 90 92 91 90 91 87 89 83 82 87 89 88 89 86
42 39 50 56 75 73 83 64 77 69 69 59 54 50 42 58 66 61 64 73 64 60 68 80 81 81 82 85 86 83 95 93 92 94 96 95 92 91 87 90 92 90 88 84 87 90 84 88 90
21 29 31 36 55 60 82 72 66 59 67 64 58 49 48 58 61 63 64 75 72 67 74 81 87 86 88 86 90 85 92 93 93 93 94 92 87 89 86 92 91 91 88 86 92 91 85 82 88
20 24 29 35 33 37 61 42 50 59 62 68 71 63 56 59 59 57 68 81 84 85 77 82 84 84 79 83 79 89 86 90 90 89 92 96 92 92 93 95 94 91 90 89 92 89 87 87 87

GFSSGP_sfc_rhum_117.txt.gz
RH
76 70 73 94 92 85 72 68 52 48 50 42 41 44 57 62 52 71 70 67 71 74 85 79 80 78 78 79 79 78 76 73 75 74 73 76 75 75 74 74 75 73 71 70 72 72 72 72 72
68 67 83 96 87 80 77 58 55 48 45 46 44 44 60 72 70 79 79 73 68 79 87 86 84 79 78 79 78 77 76 73 75 74 75 75 75 74 75 69 66 67 71 69 71 71 70 70 70
60 65 89 91 92 71 78 58 56 48 42 44 54 51 61 82 70 67 77 70 79 86 92 89 79 78 77 78 78 76 75 74 76 75 75 74 71 69 68 74 73 70 68 69 70 71 70 69 71
61 83 78 84 84 59 57 54 49 46 49 48 53 67 61 58 63 74 70 77 87 94 93 80 76 75 75 77 77 76 77 76 76 74 72 71 71 72 71 72 71 72 69 67 68 70 68 68 74
56 71 86 79 78 53 48 45 46 54 58 56 54 72 80 69 68 73 78 80 92 96 93 82 79 75 76 75 76 76 76 75 74 74 73 72 71 70 70 70 70 71 71 65 65 66 66 68 70
81 73 83 84 59 52 43 42 49 60 62 61 64 74 91 73 72 75 79 88 86 93 91 85 76 75 75 75 75 76 76 76 76 74 73 73 72 72 72 70 68 68 69 64 64 63 64 66 66
78 89 90 82 64 57 53 44 58 63 61 60 54 89 88 82 76 81 83 83 85 86 90 92 85 78 75 75 76 76 76 77 75 74 74 73 72 70 69 69 68 67 66 65 65 64 65 66 65
83 89 81 73 64 65 49 49 53 54 63 50 53 92 92 81 82 75 76 90 93 91 92 94 92 90 88 85 75 75 76 76 75 74 72 72 70 69 70 76 71 67 67 67 67 68 69 71 69
76 89 89 72 64 65 49 50 48 47 55 49 50 62 61 73 70 74 92 96 95 90 95 95 96 97 95 91 80 75 74 74 74 74 74 81 93 86 82 74 69 68 68 69 69 70 71 67 69
82 95 77 76 77 69 44 46 47 51 51 61 60 61 62 68 64 84 92 98 97 96 95 96 96 96 94 76 92 93 89 95 94 93 94 97 94 92 80 78 74 74 71 75 74 75 74 75 88
76 90 73 67 66 69 73 51 40 50 56 62 76 70 69 62 72 80 82 88 90 89 89 95 96 96 94 95 97 97 95 94 88 89 94 94 94 90 92 92 93 89 82 84 62 72 77 79 80
80 76 82 71 66 73 70 60 49 43 49 53 61 62 60 65 72 78 82 84 86 88 88 88 91 94 91 96 98 97 94 87 92 90 90 96 90 86 90 96 95 93 96 92 82 85 78 77 74
72 77 74 74 75 75 63 63 55 50 50 52 55 58 61 62 66 64 78 73 80 83 84 84 85 88 85 93 98 97 96 92 91 93 94 91 85 83 85 94 95 94 90 90 88 85 83 83 76
67 78 74 73 75 76 71 60 57 53 46 55 57 58 58 60 62 64 67 72 74 74 78 79 79 80 85 92 94 97 95 94 96 96 94 89 91 91 93 92 85 92 95 94 91 90 82 76 73
75 84 81 84 83 85 73 73 62 48 50 57 57 57 57 59 56 60 60 68 66 70 73 75 75 74 79 90 87 91 92 86 93 90 88 85 91 91 92 92 92 95 96 93 90 86 82 84 77
71 90 87 91 88 77 80 83 64 46 46 58 51 55 56 56 53 55 58 62 64 72 76 74 60 77 81 77 84 88 85 90 90 76 87 74 88 89 92 94 95 95 96 95 90 82 78 83 82
84 95 93 89 90 87 81 80 64 45 42 44 42 45 49 55 55 56 56 60 64 72 76 73 75 76 77 78 81 83 85 90 82 74 89 80 88 88 94 96 94 91 92 95 93 82 79 73 76
90 96 87 93 89 93 82 80 66 57 46 44 48 55 56 56 56 56 57 60 64 72 74 72 74 76 79 85 85 88 89 87 87 88 90 83 86 88 94 94 86 88 95 95 89 88 87 74 72
69 81 91 90 86 94 91 93 84 73 64 60 54 56 57 54 51 54 60 60 64 70 73 74 74 79 86 88 94 90 86 91 88 82 84 83 83 81 85 83 73 92 94 93 92 90 87 85 88
78 81 89 85 86 93 94 92 92 86 78 76 79 54 51 60 62 64 63 62 65 69 70 78 73 85 83 80 90 84 87 90 88 85 82 84 81 82 85 89 89 89 87 90 89 92 88 90 93
75 74 87 84 87 84 91 90 94 86 79 76 75 72 46 56 67 68 64 64 66 67 75 77 77 83 81 85 92 92 93 94 92 94 93 85 84 80 87 86 90 90 89 92 93 91 90 94 88
82 66 68 87 83 89 87 94 92 90 84 77 72 72 60 57 61 62 61 64 66 64 70 78 83 81 86 90 89 86 92 91 92 93 92 89 87 83 83 83 89 90 94 91 94 85 92 92 92
66 63 71 76 90 87 88 97 88 88 89 80 70 70 65 60 57 59 58 60 62 62 68 75 85 90 91 92 89 88 92 94 94 94 89 91 90 86 81 82 89 91 94 91 88 89 90 94 94
59 70 76 79 89 93 77 96 88 93 83 67 59 62 67 58 59 55 53 56 60 62 67 78 85 92 92 88 91 91 91 93 95 94 94 96 95 94 88 85 89 89 89 88 91 89 89 92 94
73 81 97 94 94 86 82 87 80 62 59 52 48 59 63 60 61 59 60 59 63 67 70 78 84 92 92 90 91 91 91 92 89 90 95 95 95 96 92 91 93 88 88 89 92 90 86 89 92
72 74 88 90 90 78 86 86 72 49 50 46 44 49 54 64 60 61 60 59 62 67 69 71 83 88 93 92 93 94 92 96 95 89 96 96 96 94 92 93 91 88 88 85 92 92 94 90 91
70 76 59 66 79 78 83 73 57 57 57 59 55 42 54 58 61 59 60 63 64 66 71 70 78 80 90 88 93 94 95 95 94 92 93 93 95 91 90 94 91 88 86 89 91 91 91 92 89
59 51 67 70 79 78 74 73 70 77 70 69 65 50 53 52 69 67 61 65 63 62 69 75 78 77 83 90 94 90 94 95 94 94 95 94 93 90 92 94 92 89 88 90 91 93 89 91 92
35 40 43 54 65 64 76 66 62 69 72 71 70 53 50 57 68 67 66 66 67 70 69 78 86 85 86 87 90 91 93 94 94 94 92 94 94 92 91 89 92 88 91 92 93 94 90 88 92
27 32 33 36 36 53 55 35 66 78 82 77 77 74 58 54 58 64 63 76 74 80 70 81 87 86 80 81 86 94 93 94 93 92 91 94 91 92 91 91 94 90 92 93 94 92 88 91 89